[[{"header":{"parameterUnit":"m.s-1","parameterCategory":1,"la1":30.6,"la2":29.2853,"lo1":-89.7004,"lo2":-87.6739,"dy":0.0162,"dx":0.0183,"nx":112,"ny":82,"refTime":"2025-05-16T12:00:00:Z","depth":0,"parameterNumber":2,"parameterNumberName":"U-component_of_WINDS"},"data":[0.0,0.0,0.0,0.0,0.0,0.0,0.0,0.0,0.0,0.0,0.0,0.0,0.0,0.0,0.0,0.0,0.0,0.0,0.0,0.0,0.0,0.0,0.0,0.0,0.0,0.0,0.0,0.0,0.0,0.0,0.0,0.0,0.0,0.0,0.0,0.0,0.0,0.0,0.0,0.0,0.0,0.0,0.0,0.0,0.0,0.0,0.0,0.0,0.0,0.0,0.0,0.0,0.0,0.0,0.0,0.0,0.0,0.0,0.0,0.0,0.0,0.0,0.0,0.0,0.0,0.0,0.0,0.0,0.0,0.0,0.0,0.0,0.0,0.0,0.0,0.0,0.0,0.0,0.0,0.0,0.0,0.0,0.0,0.0,0.0,0.0,0.0,0.0,0.0,0.0,-2.8869,-3.1364,-3.4043,-3.5437,-3.4992,-3.3861,-3.2094,-2.9581,0.0,0.0,0.0,0.0,0.0,0.0,0.0,0.0,0.0,0.0,0.0,0.0,0.0,0.0,0.0,0.0,0.0,0.0,0.0,0.0,0.0,0.0,0.0,0.0,0.0,0.0,0.0,0.0,0.0,0.0,0.0,0.0,0.0,0.0,0.0,0.0,0.0,0.0,0.0,0.0,0.0,0.0,0.0,0.0,0.0,0.0,0.0,0.0,0.0,0.0,0.0,0.0,0.0,0.0,0.0,0.0,0.0,0.0,0.0,0.0,0.0,0.0,0.0,0.0,0.0,0.0,0.0,0.0,0.0,0.0,0.0,0.0,0.0,0.0,0.0,0.0,0.0,0.0,0.0,0.0,0.0,0.0,0.0,0.0,0.0,0.0,0.0,0.0,0.0,0.0,0.0,0.0,0.0,0.0,0.0,0.0,0.0,0.0,0.0,0.0,0.0,0.0,0.0,0.0,-2.9242,-3.3744,-3.5014,-3.5581,-3.5509,-3.3729,-3.1865,-3.0074,0.0,0.0,0.0,0.0,0.0,0.0,0.0,0.0,0.0,0.0,0.0,0.0,0.0,0.0,0.0,0.0,0.0,0.0,0.0,0.0,0.0,0.0,0.0,0.0,0.0,0.0,0.0,0.0,0.0,0.0,0.0,0.0,0.0,0.0,0.0,0.0,0.0,0.0,0.0,0.0,0.0,0.0,0.0,0.0,0.0,0.0,0.0,0.0,0.0,0.0,0.0,0.0,0.0,0.0,0.0,0.0,0.0,0.0,0.0,0.0,0.0,0.0,0.0,0.0,0.0,0.0,0.0,0.0,0.0,0.0,0.0,0.0,0.0,0.0,0.0,0.0,0.0,0.0,0.0,0.0,0.0,0.0,0.0,0.0,0.0,0.0,0.0,0.0,0.0,0.0,0.0,0.0,0.0,0.0,0.0,0.0,0.0,0.0,0.0,0.0,0.0,0.0,0.0,-2.8946,-3.1199,-3.5589,-3.6074,-3.6038,-3.6038,-3.3861,-3.1805,-3.0194,-2.8558,0.0,0.0,0.0,0.0,0.0,0.0,0.0,0.0,0.0,0.0,0.0,0.0,0.0,0.0,0.0,0.0,0.0,0.0,0.0,0.0,0.0,0.0,0.0,0.0,0.0,0.0,0.0,0.0,0.0,0.0,0.0,0.0,0.0,0.0,0.0,0.0,0.0,0.0,0.0,0.0,0.0,0.0,0.0,0.0,0.0,0.0,0.0,0.0,0.0,0.0,0.0,0.0,0.0,0.0,0.0,0.0,0.0,0.0,0.0,0.0,0.0,0.0,0.0,0.0,0.0,0.0,0.0,0.0,0.0,0.0,0.0,0.0,0.0,0.0,0.0,0.0,0.0,0.0,0.0,0.0,0.0,0.0,0.0,0.0,0.0,0.0,0.0,0.0,0.0,0.0,0.0,0.0,0.0,0.0,0.0,0.0,0.0,0.0,0.0,0.0,0.0,0.0,-3.166,-3.3362,-3.6843,-3.6723,-3.6411,-3.6411,-3.3885,-3.1673,-3.0182,-2.7861,0.0,0.0,0.0,0.0,0.0,0.0,0.0,0.0,0.0,0.0,0.0,0.0,0.0,0.0,0.0,0.0,0.0,0.0,0.0,0.0,0.0,0.0,0.0,0.0,0.0,0.0,0.0,0.0,0.0,0.0,0.0,0.0,0.0,0.0,0.0,0.0,0.0,0.0,0.0,0.0,0.0,0.0,0.0,0.0,0.0,0.0,0.0,0.0,0.0,0.0,0.0,0.0,0.0,0.0,0.0,0.0,0.0,0.0,0.0,0.0,0.0,0.0,0.0,0.0,0.0,0.0,0.0,0.0,0.0,0.0,0.0,0.0,0.0,0.0,0.0,0.0,0.0,0.0,0.0,0.0,0.0,0.0,0.0,0.0,0.0,0.0,0.0,0.0,0.0,0.0,0.0,0.0,0.0,0.0,0.0,0.0,0.0,0.0,0.0,0.0,0.0,0.0,-3.2331,-3.5268,-3.7012,-3.6723,-3.6411,-3.6411,-3.3525,-3.1252,-3.0158,-2.7152,0.0,0.0,0.0,0.0,0.0,0.0,0.0,0.0,0.0,0.0,0.0,0.0,0.0,0.0,0.0,0.0,0.0,0.0,0.0,0.0,0.0,0.0,0.0,0.0,0.0,0.0,0.0,0.0,0.0,0.0,0.0,0.0,0.0,0.0,0.0,0.0,0.0,0.0,0.0,0.0,0.0,0.0,0.0,0.0,0.0,0.0,0.0,0.0,0.0,0.0,0.0,0.0,0.0,0.0,0.0,0.0,0.0,0.0,0.0,0.0,0.0,0.0,0.0,0.0,0.0,0.0,0.0,0.0,0.0,0.0,0.0,0.0,0.0,0.0,0.0,0.0,0.0,0.0,0.0,0.0,0.0,0.0,0.0,0.0,0.0,0.0,0.0,0.0,0.0,0.0,0.0,0.0,0.0,0.0,0.0,0.0,0.0,0.0,0.0,0.0,0.0,0.0,-3.2028,-3.4617,0.0,-3.6916,-3.6411,-3.6411,-3.3813,-3.1589,-3.017,0.0,0.0,0.0,0.0,0.0,0.0,0.0,0.0,0.0,0.0,0.0,0.0,0.0,0.0,0.0,0.0,0.0,0.0,0.0,0.0,0.0,0.0,0.0,0.0,0.0,0.0,0.0,0.0,0.0,0.0,0.0,0.0,0.0,0.0,0.0,0.0,0.0,0.0,0.0,0.0,0.0,0.0,0.0,0.0,0.0,0.0,0.0,0.0,0.0,0.0,0.0,0.0,0.0,0.0,0.0,0.0,0.0,0.0,0.0,0.0,0.0,0.0,0.0,0.0,0.0,0.0,0.0,0.0,0.0,0.0,0.0,0.0,0.0,0.0,0.0,0.0,0.0,0.0,0.0,0.0,0.0,0.0,0.0,0.0,0.0,0.0,0.0,0.0,0.0,0.0,0.0,0.0,0.0,0.0,0.0,0.0,0.0,0.0,0.0,0.0,0.0,0.0,-2.9804,-3.2252,-3.471,0.0,-3.7036,-3.6297,-3.5876,-3.3493,-3.1356,-2.9723,0.0,0.0,0.0,0.0,0.0,0.0,0.0,0.0,0.0,0.0,0.0,0.0,0.0,0.0,0.0,0.0,0.0,0.0,0.0,0.0,0.0,0.0,0.0,0.0,0.0,0.0,0.0,0.0,0.0,0.0,0.0,0.0,0.0,0.0,0.0,0.0,0.0,0.0,0.0,0.0,0.0,0.0,0.0,0.0,0.0,0.0,0.0,0.0,0.0,0.0,0.0,0.0,0.0,0.0,0.0,0.0,0.0,0.0,0.0,0.0,0.0,0.0,0.0,0.0,0.0,0.0,0.0,0.0,0.0,0.0,0.0,0.0,0.0,0.0,0.0,0.0,0.0,0.0,0.0,0.0,0.0,0.0,0.0,0.0,0.0,0.0,0.0,0.0,0.0,0.0,0.0,0.0,0.0,0.0,0.0,0.0,0.0,0.0,0.0,0.0,0.0,0.0,-2.9468,-3.3173,-3.623,-3.7817,-3.7036,-3.5991,-3.4913,-3.244,-3.0209,0.0,0.0,0.0,0.0,0.0,0.0,0.0,0.0,0.0,0.0,0.0,0.0,0.0,0.0,0.0,0.0,0.0,0.0,0.0,0.0,0.0,0.0,0.0,0.0,0.0,0.0,0.0,0.0,0.0,0.0,0.0,0.0,0.0,0.0,0.0,0.0,0.0,0.0,0.0,0.0,0.0,0.0,0.0,0.0,0.0,0.0,0.0,0.0,0.0,0.0,0.0,0.0,0.0,0.0,0.0,0.0,0.0,0.0,0.0,0.0,0.0,0.0,0.0,0.0,0.0,0.0,0.0,0.0,0.0,0.0,0.0,0.0,0.0,0.0,0.0,0.0,0.0,0.0,0.0,0.0,0.0,0.0,0.0,0.0,0.0,0.0,0.0,0.0,0.0,0.0,0.0,0.0,0.0,0.0,0.0,0.0,0.0,0.0,0.0,0.0,0.0,0.0,0.0,-3.0001,-3.3718,-3.6434,-3.7323,-3.6743,-3.6095,-3.542,-3.2349,-3.0267,-2.9638,0.0,0.0,0.0,0.0,0.0,0.0,0.0,0.0,0.0,0.0,0.0,0.0,0.0,0.0,0.0,0.0,0.0,0.0,0.0,0.0,0.0,0.0,0.0,0.0,0.0,0.0,0.0,0.0,0.0,0.0,0.0,0.0,0.0,0.0,0.0,0.0,0.0,0.0,0.0,0.0,0.0,0.0,0.0,0.0,0.0,0.0,0.0,0.0,0.0,0.0,0.0,0.0,0.0,0.0,0.0,0.0,0.0,0.0,0.0,0.0,0.0,0.0,0.0,0.0,0.0,0.0,0.0,0.0,0.0,0.0,0.0,0.0,0.0,0.0,0.0,0.0,0.0,0.0,0.0,0.0,0.0,0.0,0.0,0.0,0.0,0.0,0.0,0.0,0.0,0.0,0.0,0.0,0.0,0.0,0.0,0.0,0.0,0.0,0.0,0.0,0.0,0.0,-2.9862,-3.3457,-3.5864,-3.6225,-3.5903,-3.5078,-3.3816,-3.1903,-3.033,-2.9155,0.0,0.0,0.0,0.0,0.0,0.0,0.0,0.0,0.0,0.0,0.0,0.0,0.0,0.0,0.0,0.0,0.0,0.0,0.0,0.0,0.0,0.0,0.0,0.0,0.0,0.0,0.0,0.0,0.0,0.0,0.0,0.0,0.0,0.0,0.0,0.0,0.0,0.0,0.0,0.0,0.0,0.0,0.0,0.0,0.0,0.0,0.0,0.0,0.0,0.0,0.0,0.0,0.0,0.0,0.0,0.0,0.0,0.0,0.0,0.0,0.0,0.0,0.0,0.0,0.0,0.0,0.0,0.0,0.0,0.0,0.0,0.0,0.0,0.0,0.0,0.0,0.0,0.0,0.0,0.0,0.0,0.0,0.0,0.0,0.0,0.0,0.0,0.0,0.0,0.0,0.0,0.0,0.0,0.0,0.0,0.0,0.0,0.0,0.0,0.0,0.0,0.0,-2.9023,-3.246,-3.4683,-3.4648,-3.4504,-3.3486,-3.121,-3.1121,-3.0192,-2.7876,0.0,0.0,0.0,0.0,0.0,0.0,0.0,0.0,0.0,0.0,0.0,0.0,0.0,0.0,0.0,0.0,0.0,0.0,0.0,0.0,0.0,0.0,0.0,0.0,0.0,0.0,0.0,0.0,0.0,0.0,0.0,0.0,0.0,0.0,0.0,0.0,0.0,0.0,0.0,0.0,0.0,0.0,0.0,0.0,0.0,0.0,0.0,0.0,0.0,0.0,0.0,0.0,0.0,0.0,0.0,0.0,0.0,0.0,0.0,0.0,-1.7413,0.0,0.0,0.0,0.0,0.0,0.0,0.0,0.0,0.0,0.0,0.0,0.0,0.0,0.0,0.0,0.0,0.0,0.0,0.0,0.0,0.0,0.0,0.0,0.0,0.0,0.0,0.0,0.0,0.0,0.0,0.0,0.0,0.0,0.0,0.0,0.0,0.0,0.0,0.0,0.0,0.0,-2.7596,-3.1225,-3.3592,-3.3075,-3.3096,-3.2605,-3.1569,-3.0168,-2.9132,-2.8914,-2.639,0.0,0.0,0.0,0.0,0.0,0.0,0.0,0.0,0.0,0.0,0.0,0.0,0.0,0.0,0.0,0.0,0.0,0.0,0.0,0.0,0.0,0.0,0.0,0.0,0.0,0.0,0.0,0.0,0.0,0.0,0.0,0.0,0.0,0.0,0.0,0.0,0.0,0.0,0.0,0.0,0.0,0.0,0.0,0.0,0.0,0.0,0.0,0.0,0.0,0.0,0.0,0.0,0.0,0.0,0.0,0.0,0.0,0.0,0.0,0.0,-1.8105,0.0,0.0,0.0,0.0,0.0,0.0,0.0,0.0,0.0,0.0,0.0,0.0,0.0,0.0,0.0,0.0,0.0,0.0,0.0,0.0,0.0,0.0,0.0,0.0,0.0,0.0,0.0,0.0,0.0,0.0,0.0,0.0,0.0,0.0,0.0,0.0,0.0,0.0,0.0,0.0,-2.8062,-3.1186,-3.3182,-3.288,-3.2985,-3.2721,-3.1797,-3.1179,-3.0583,-3.0011,-2.8071,0.0,0.0,0.0,0.0,0.0,0.0,0.0,0.0,0.0,0.0,0.0,0.0,0.0,0.0,0.0,0.0,0.0,0.0,0.0,0.0,0.0,0.0,0.0,0.0,0.0,0.0,0.0,0.0,0.0,0.0,0.0,0.0,0.0,0.0,0.0,0.0,0.0,0.0,0.0,0.0,0.0,0.0,0.0,0.0,0.0,0.0,0.0,0.0,0.0,0.0,0.0,0.0,0.0,-2.0226,-2.0718,-2.1298,-2.1592,-2.1759,-2.1735,-2.0281,-1.9836,-2.0067,-1.9137,0.0,0.0,0.0,0.0,0.0,0.0,0.0,0.0,0.0,0.0,0.0,0.0,0.0,0.0,0.0,0.0,0.0,0.0,0.0,0.0,0.0,0.0,0.0,0.0,-2.4546,-2.4427,-2.1988,0.0,0.0,0.0,0.0,0.0,0.0,0.0,0.0,0.0,0.0,0.0,-2.8881,-3.1387,-3.2964,-3.3025,-3.3159,-3.287,-3.1895,-3.2452,-3.2219,-3.1015,-2.9968,-2.8865,0.0,0.0,0.0,0.0,0.0,0.0,0.0,0.0,0.0,0.0,0.0,0.0,0.0,0.0,0.0,0.0,0.0,0.0,0.0,0.0,0.0,0.0,0.0,0.0,0.0,0.0,0.0,0.0,0.0,0.0,0.0,0.0,-1.4156,-1.4832,0.0,0.0,0.0,0.0,0.0,0.0,0.0,0.0,0.0,0.0,0.0,0.0,0.0,-1.9336,-1.9979,-2.0972,-2.1528,-2.1624,-2.2283,-2.2649,-2.2736,-2.2791,-2.2974,-2.3252,-2.3022,0.0,-2.1211,-2.0758,0.0,0.0,0.0,0.0,0.0,0.0,0.0,0.0,0.0,0.0,0.0,0.0,0.0,0.0,0.0,0.0,0.0,0.0,0.0,0.0,0.0,0.0,-2.6032,-2.5711,-2.6004,-2.6151,0.0,-2.3763,-2.1931,-2.0466,-2.0053,0.0,0.0,0.0,0.0,0.0,0.0,0.0,-2.8031,-3.0704,-3.2521,-3.2675,-3.2271,-3.2159,-3.2373,-3.2114,-3.1732,-3.1506,-3.0503,-2.9829,-2.9713,-2.7765,0.0,0.0,0.0,0.0,0.0,0.0,0.0,0.0,0.0,0.0,0.0,0.0,0.0,0.0,0.0,0.0,0.0,0.0,0.0,0.0,0.0,0.0,0.0,0.0,0.0,0.0,0.0,0.0,0.0,-1.4172,-1.4975,-1.5674,-1.5443,-1.5149,0.0,0.0,0.0,0.0,0.0,0.0,0.0,0.0,0.0,-1.9971,-2.0535,-2.1068,-2.1568,-2.2418,-2.2942,-2.3141,-2.3649,-2.3999,-2.419,-2.419,-2.4277,-2.4428,-2.4428,-2.3959,-2.3149,-2.2402,-2.1715,-2.1037,0.0,0.0,0.0,0.0,-2.1907,-2.2688,-2.3754,-2.4418,-2.4583,-2.3721,0.0,0.0,0.0,0.0,0.0,0.0,0.0,0.0,0.0,0.0,-2.6985,-2.726,-2.7636,-2.782,-2.7416,-2.6307,-2.4757,0.0,-2.2639,-2.2419,-2.0622,0.0,0.0,0.0,0.0,-2.8508,-2.9796,-3.187,-3.3294,-3.3631,-3.3705,-3.3825,-3.3721,-3.378,-3.365,-3.3006,-3.23,-3.175,-3.148,-2.9677,-2.8198,0.0,0.0,0.0,0.0,0.0,0.0,0.0,0.0,0.0,0.0,0.0,0.0,0.0,0.0,0.0,0.0,0.0,0.0,0.0,0.0,0.0,0.0,0.0,0.0,0.0,0.0,0.0,0.0,-1.5157,-1.5944,-1.654,-1.6532,-1.6317,0.0,0.0,0.0,0.0,0.0,0.0,-1.9447,-1.9924,-2.0607,-2.156,-2.218,-2.2664,-2.3014,-2.3634,-2.407,-2.4325,-2.4682,-2.4992,-2.5246,-2.5334,-2.5373,-2.5373,-2.5373,-2.5222,-2.4897,-2.3753,-2.3087,-2.2846,-2.2601,-2.2657,-2.2997,-2.3876,-2.4287,-2.4736,-2.6281,-2.6738,-2.6628,-2.5931,-2.5693,-2.5399,-2.3877,0.0,0.0,0.0,0.0,-2.5106,-2.6518,-2.7187,-2.7664,-2.8379,-2.8764,-2.8902,-2.8608,-2.8297,-2.7334,0.0,-2.4968,-2.4812,-2.2584,0.0,0.0,0.0,0.0,-3.016,-3.1734,-3.3158,-3.423,-3.4925,-3.5277,-3.5392,-3.5144,-3.5383,-3.5165,-3.4222,-3.3765,-3.3308,-3.2911,-3.1348,-3.0062,-2.9136,0.0,0.0,0.0,0.0,0.0,0.0,0.0,0.0,0.0,0.0,0.0,0.0,0.0,0.0,0.0,0.0,0.0,0.0,0.0,0.0,0.0,0.0,0.0,0.0,0.0,0.0,0.0,0.0,0.0,-1.7652,-1.8271,0.0,0.0,0.0,0.0,-1.8669,-1.9654,-2.0551,-2.1282,-2.1957,-2.2664,-2.3387,-2.3761,-2.4118,-2.4476,-2.4841,-2.504,-2.5063,-2.5413,-2.5596,-2.562,-2.5945,-2.6088,-2.6088,-2.6088,-2.608,-2.5961,-2.4571,-2.3594,-2.3039,-2.3332,-2.3187,-2.3126,-2.4569,-2.537,-2.5863,-2.6875,-2.7141,-2.727,-2.7985,-2.7453,-2.6509,-2.6408,-2.5582,0.0,0.0,-2.616,-2.6655,-2.749,-2.8012,-2.8443,-2.8856,-2.8966,-2.8975,-2.8957,-2.8938,-2.8425,0.0,-2.616,-2.5766,-2.5243,0.0,-2.7744,-2.8278,-3.0525,-3.2427,-3.2929,-3.3868,-3.4936,-3.6048,-3.5733,-3.5759,-3.6255,-3.5841,-3.5412,-3.4823,-3.4294,-3.3982,-3.397,-3.243,-3.1324,-3.0771,-2.8703,0.0,0.0,0.0,0.0,0.0,0.0,0.0,0.0,0.0,0.0,0.0,0.0,0.0,0.0,0.0,0.0,0.0,0.0,0.0,0.0,0.0,0.0,0.0,0.0,0.0,0.0,0.0,0.0,-1.905,-1.9542,0.0,-1.9169,-1.9646,-2.013,-2.0488,-2.1274,-2.2053,-2.276,-2.3244,-2.3713,-2.4198,-2.4555,-2.4793,-2.4921,-2.527,-2.5445,-2.5453,-2.5802,-2.5969,-2.5969,-2.6088,-2.6144,-2.6144,-2.6144,-2.6144,-2.6104,-2.5604,-2.561,-2.5869,-2.5633,-2.6202,-2.7303,-2.7585,-2.8181,-2.8683,-2.9067,-2.8948,-2.8682,-2.8462,-2.7921,-2.7343,-2.7343,-2.704,-2.6811,-2.737,-2.7636,-2.7875,-2.8407,-2.8663,-2.881,-2.8948,-2.8984,-2.8984,-2.8984,-2.8984,-2.9046,-2.904,-2.8247,-2.7447,-2.7138,-2.8143,-2.9221,-2.9715,-3.1548,-3.2994,-3.3475,-3.4119,-3.4635,-3.5069,-3.5681,-3.5764,-3.5352,-3.5824,-3.5605,-3.439,-3.415,-3.3897,-3.3573,-3.2683,-3.1937,-3.1396,-2.9977,-2.8294,0.0,0.0,0.0,0.0,0.0,0.0,0.0,0.0,0.0,0.0,0.0,0.0,0.0,0.0,0.0,0.0,0.0,0.0,0.0,0.0,0.0,0.0,0.0,0.0,0.0,0.0,-1.9312,-2.0122,-2.0742,-2.0964,-2.0607,-2.1322,-2.1902,-2.214,-2.2799,-2.3395,-2.3872,-2.4221,-2.4515,-2.4754,-2.5103,-2.5286,-2.5286,-2.5635,-2.581,-2.581,-2.616,-2.6319,-2.6327,-2.6454,-2.6501,-2.6501,-2.6501,-2.6501,-2.6493,-2.6374,-2.6815,-2.7587,-2.6985,-2.7933,-2.9451,-2.9217,-2.9573,-3.0204,-3.0204,-3.002,-2.969,-2.9168,-2.8819,-2.859,-2.859,-2.859,-2.8618,-2.8755,-2.8792,-2.8819,-2.8948,-2.8984,-2.8984,-2.8984,-2.8984,-2.8984,-2.8984,-2.8984,-2.9331,-3.0265,-2.9704,-2.9134,-2.9277,-3.0128,-3.0987,-3.1335,-3.2696,-3.3672,-3.3999,-3.4327,-3.4635,-3.5069,-3.5829,-3.5972,-3.5363,-3.5836,-3.5533,-3.4126,-3.3885,-3.3561,-3.3044,-3.2503,-3.1961,-3.1408,-3.0362,-2.8955,-2.7188,0.0,0.0,0.0,0.0,0.0,0.0,0.0,0.0,0.0,0.0,0.0,0.0,0.0,0.0,0.0,0.0,0.0,0.0,0.0,0.0,0.0,0.0,0.0,-1.8796,-1.9201,-1.9844,-2.0861,-2.1902,-2.2402,-2.2053,-2.2966,-2.3578,-2.3578,-2.4213,-2.4595,-2.4595,-2.4928,-2.5127,-2.5127,-2.5469,-2.5651,-2.5651,-2.5993,-2.6168,-2.6168,-2.6517,-2.6692,-2.67,-2.7042,-2.72,-2.72,-2.72,-2.72,-2.7177,-2.6835,-2.7068,-2.7668,-2.7322,-2.795,-2.9217,-2.9217,-2.96,-3.0241,-3.0222,-3.0222,-3.0222,-3.0204,-3.0204,-3.0204,-3.0204,-3.0204,-3.0121,-2.9709,-2.9589,-2.9498,-2.9122,-2.9012,-2.9003,-2.9003,-2.8993,-2.8984,-2.8984,-2.8984,-2.934,-3.0265,-3.0382,-3.0723,-3.1632,-3.254,-3.3119,-3.3119,-3.3942,0.0,-3.4524,-3.4524,-3.4958,-3.6157,-3.6266,-3.6293,-3.6417,-3.5942,-3.5184,-3.4114,-3.3549,-3.3032,-3.2527,-3.1949,-3.1408,-3.0903,-2.9857,-2.8811,-2.7765,0.0,0.0,0.0,0.0,0.0,0.0,0.0,0.0,0.0,0.0,0.0,0.0,0.0,0.0,0.0,0.0,0.0,0.0,0.0,0.0,0.0,0.0,-1.8812,-1.9169,-2.0615,-2.183,-2.237,-2.3141,-2.3586,-2.3483,-2.3975,-2.4293,-2.4293,-2.4714,-2.496,-2.496,-2.5302,-2.5492,-2.5492,-2.5826,-2.6009,-2.6009,-2.6358,-2.6525,-2.6533,-2.6891,-2.7057,-2.7065,-2.7161,-2.72,-2.72,-2.72,-2.72,-2.7193,-2.7627,-2.8237,-2.885,-2.8476,-2.8835,-2.9625,-3.0428,-3.092,-3.1011,-3.0726,-3.0626,-3.058,-3.0296,-3.0204,-3.0204,-3.0204,-3.0204,-3.0176,-3.0057,-3.003,-3.0002,-2.9892,-2.9635,-2.9415,-2.9415,-2.9195,-2.8984,-2.8984,-2.8984,-2.944,-3.1063,-3.1411,-3.1747,-3.255,-3.2892,-3.3356,-3.4054,-3.4289,0.0,-3.4524,-3.4836,-3.5268,-3.5598,-3.6048,-3.6337,-3.6308,-3.5892,-3.5094,-3.4042,-3.32,-3.2647,-3.2515,-3.1601,-3.1204,-3.1444,-3.041,-2.9532,0.0,0.0,0.0,0.0,0.0,0.0,0.0,0.0,0.0,0.0,0.0,0.0,0.0,0.0,0.0,0.0,0.0,0.0,0.0,0.0,0.0,0.0,-1.9399,-2.0265,-2.0631,-2.1719,-2.2784,-2.3578,-2.4031,-2.4333,-2.4484,-2.4682,-2.4801,-2.4801,-2.4992,-2.5175,-2.5318,-2.5524,-2.5699,-2.585,-2.6184,-2.6366,-2.6366,-2.6716,-2.6899,-2.6899,-2.7105,-2.72,-2.72,-2.72,-2.72,-2.72,-2.72,-2.7334,-2.7733,-2.813,-2.8659,0.0,0.0,0.0,0.0,0.0,-3.1377,-3.135,-3.1112,-3.1038,-3.0992,-3.0772,-3.069,-3.069,-3.069,-3.069,-3.0662,-3.0497,-3.0442,-3.0406,-3.0241,-3.002,-2.9913,-3.0093,-2.9758,-2.9297,-2.9487,-2.9568,-3.003,-3.1516,-3.2092,0.0,-3.348,-3.3706,-3.3829,-3.4412,-3.4524,-3.4524,-3.4524,-3.5058,-3.5488,-3.5708,-3.6266,-3.6598,-3.6718,-3.6007,0.0,0.0,0.0,-3.2623,-3.2166,-3.1324,0.0,0.0,0.0,0.0,0.0,0.0,0.0,0.0,-2.8919,-2.8991,0.0,0.0,0.0,0.0,0.0,0.0,0.0,0.0,0.0,0.0,0.0,0.0,0.0,0.0,0.0,0.0,-2.0964,-2.2188,-2.2656,-2.272,-2.3189,-2.4436,-2.4619,-2.4762,-2.5079,-2.5111,-2.5127,-2.5167,-2.5175,-2.5326,-2.5675,0.0,0.0,0.0,0.0,-2.674,-2.674,-2.7042,-2.72,-2.72,-2.72,-2.72,-2.72,-2.72,-2.72,-2.72,-2.7334,-2.76,-2.813,-2.8395,-2.8922,-2.9569,-2.9438,-3.0222,-3.1377,-3.1377,-3.1377,-3.1377,-3.1377,0.0,0.0,-3.1377,-3.1377,-3.1377,-3.1377,-3.1377,-3.1304,-3.0956,-3.0855,-3.0772,-3.0424,-3.0429,-3.0538,-3.0886,-3.0511,-3.0129,-3.0428,-3.0576,-3.0898,-3.1757,-3.255,-3.3356,-3.4289,-3.4524,-3.4524,-3.4524,-3.4524,-3.4524,-3.4635,-3.5168,-3.5708,-3.6375,0.0,0.0,-3.7324,-3.6261,-3.5469,-3.504,-3.409,-3.3068,-3.1973,-3.1601,-3.1601,-3.201,-3.2022,-3.2503,-3.3464,-3.3909,-3.3933,-3.3489,-3.106,-3.0915,0.0,0.0,0.0,0.0,0.0,0.0,0.0,0.0,0.0,0.0,0.0,0.0,0.0,0.0,0.0,-2.0821,-2.1798,-2.2799,-2.4007,-2.4174,-2.4277,-2.4547,-2.4833,-2.5032,-2.5103,-2.5111,-2.523,-2.5516,-2.5532,-2.5683,-2.6033,-2.6319,-2.6501,-2.6565,-2.6914,-2.7097,-2.7097,-2.7169,-2.72,-2.72,0.0,0.0,-2.72,-2.72,-2.72,-2.72,-2.7865,-2.7865,-2.76,-2.9176,-3.0343,-3.0991,-3.0352,-3.0611,-3.1377,-3.1377,-3.1377,-3.1377,-3.1377,-3.1377,-3.1377,-3.1377,-3.1377,-3.1377,-3.1377,-3.1377,0.0,-3.1286,-3.1267,-3.1249,-3.1167,-3.1533,-3.176,-3.1071,-3.1635,-3.2236,-3.1088,-3.1466,-3.2297,-3.2737,-3.3006,-3.3356,-3.4289,-3.4524,-3.4524,-3.4524,-3.4524,-3.4624,-3.5157,-3.5708,-3.6375,-3.6916,-3.7024,-3.7299,-3.7841,-3.6835,-3.6149,-3.6134,-3.5509,-3.4691,-3.3621,-3.4294,-3.4547,-3.4222,-3.4222,-3.4318,-3.4535,-3.4631,-3.4847,-3.5148,-3.4198,-3.3753,0.0,0.0,0.0,0.0,0.0,0.0,0.0,0.0,0.0,0.0,0.0,-1.6603,-1.8099,0.0,-2.0813,-2.2029,-2.2815,-2.3578,-2.446,-2.473,-2.4841,-2.4841,-2.5,-2.5111,-2.5111,-2.527,-2.5445,-2.5628,-2.5794,-2.6041,-2.639,-2.6581,-2.6756,-2.693,-2.7113,-2.72,-2.72,-2.72,-2.72,-2.72,-2.72,-2.72,-2.72,-2.76,-2.7733,-2.7733,-2.813,-2.8518,-2.8905,-3.0213,-3.112,-3.1377,-3.0991,-3.112,-3.1377,-3.1377,-3.1377,-3.1377,-3.1377,-3.1377,-3.1377,-3.1377,-3.1377,-3.1377,-3.1377,-3.1754,-3.2001,-3.1506,-3.2128,-3.2756,-3.2256,-3.2349,-3.2643,-3.2936,-3.2834,-3.2802,-3.2834,-3.3044,-3.3296,-3.3414,-3.3639,-3.3942,-3.4412,-3.4524,-3.4524,-3.4524,-3.4524,-3.4736,-3.5268,-3.5938,-3.6495,-3.7024,-3.7346,-3.7655,-3.7986,-3.7178,-3.6653,-3.6435,-3.6158,-3.5653,-3.4859,-3.534,-3.5485,-3.5232,-3.522,-3.5352,-3.5617,-3.5881,-3.6146,-3.6411,-3.6411,-3.6122,0.0,0.0,0.0,0.0,0.0,0.0,0.0,0.0,-1.1982,-1.3793,-1.5565,-1.754,-1.9766,-2.1139,-2.2156,-2.307,-2.3745,-2.4277,-2.4635,-2.4928,-2.5111,-2.5111,-2.5111,-2.5111,-2.5111,-2.5429,-2.5667,-2.5731,-2.6057,-2.6398,-2.6756,-2.6779,-2.6907,-2.7193,-2.72,-2.72,-2.72,-2.72,-2.72,-2.72,-2.72,-2.7342,-2.7467,-2.7998,-2.8395,-2.8527,-2.8527,-2.9307,-3.0611,-3.0991,-3.1249,-3.1377,-3.1377,-3.1377,-3.1377,-3.1377,-3.1377,-3.1377,-3.1377,-3.1497,-3.1625,-3.1625,-3.1882,-3.2001,-3.1754,-3.2256,-3.2756,-3.1882,-3.2873,-3.4007,-3.3379,-3.3379,-3.3793,-3.4819,-3.4115,-3.3494,-3.4497,-3.4603,-3.4413,-3.4222,-3.4464,-3.4633,-3.4534,-3.4524,-3.4524,-3.4524,-3.4635,-3.4847,-3.5488,-3.6036,-3.67,-3.7239,-3.7667,-3.7986,-3.7986,-3.7589,-3.7168,-3.6735,-3.6711,-3.6519,-3.6098,-3.6074,-3.6074,-3.6074,-3.6074,-3.629,-3.6711,-3.7132,-3.7348,-3.736,-3.7781,-3.7757,-0.9108,-0.9417,-0.9455,-0.9998,-1.0008,-1.0168,0.0,0.0,-1.4752,-1.5754,-1.8415,-2.0674,-2.1293,-2.2379,-2.3443,-2.3864,-2.4269,-2.4642,-2.5,-2.5087,-2.5111,-2.5111,-2.5111,-2.5111,-2.5111,-2.5429,-2.5763,-2.6064,-2.6414,-2.6771,-2.7121,-2.7145,-2.7161,-2.72,-2.72,-2.72,-2.72,-2.72,-2.72,-2.72,-2.72,-2.76,-2.813,-2.8263,-2.8659,-2.9185,-2.9185,-2.9952,-3.1249,-3.0611,-3.0861,-3.1377,-3.1377,-3.1377,-3.1377,-3.1377,-3.1377,-3.1377,-3.1377,-3.2001,-3.2756,-3.2756,-3.3379,-3.3882,-3.3,-3.2756,-3.2873,-3.2756,-3.2873,-3.3253,-3.3998,-3.4871,-3.5366,-3.4696,-3.5683,-3.6553,-3.536,-3.5832,-3.6154,-3.5261,-3.5054,-3.5004,-3.4589,-3.4524,-3.4524,-3.4524,-3.4947,-3.5488,-3.6157,-3.67,-3.7239,-3.788,-3.7986,-3.7986,-3.7986,-3.7926,-3.7866,-3.7805,-3.7805,-3.7781,-3.7721,-3.7709,-3.7709,-3.7709,-3.7709,-3.7745,-3.7805,-3.7866,-3.789,-3.789,-3.795,-3.795,-1.0232,-1.048,0.0,0.0,-1.1113,-1.1359,-1.1888,-1.3583,-1.5364,-1.653,-1.9057,-2.1316,-2.2237,-2.3328,-2.4198,0.0,-2.4658,-2.4944,-2.5087,-2.5111,-2.5111,-2.5111,-2.5111,-2.5111,-2.5111,-2.5612,-2.5993,-2.6136,-2.6668,-2.705,-2.7193,-2.72,-2.72,-2.72,-2.72,-2.72,-2.72,-2.72,-2.72,-2.7208,-2.76,-2.7998,-2.8271,-2.9053,-2.9569,-2.9961,-3.0343,-3.0602,-3.0732,-3.0861,-3.112,-3.1377,-3.1377,-3.1754,-3.2256,-3.1625,-3.1377,-3.1506,-3.2128,-3.2502,-3.2883,-3.2883,-3.3126,-3.3505,-3.3,-3.3253,-3.3757,-3.3757,-3.4632,-3.55,-3.5376,-3.5623,-3.5879,-3.6125,-3.638,-3.6571,-3.651,-3.6633,-3.6577,-3.6151,-3.5845,-3.5496,-3.5004,-3.5153,-3.5391,-3.5102,-3.5268,-3.5708,-3.67,-3.6916,-3.7346,-3.7986,-3.7986,-3.7986,-3.7986,-3.7986,-3.7986,-3.7986,-3.7986,-3.7986,-3.7986,-3.7986,-3.7986,-3.7986,-3.7986,-3.7986,-3.7986,-3.7986,-3.7986,-3.7986,-3.7986,-3.7986,-1.0891,0.0,0.0,-1.1562,-1.1959,-1.2342,-1.2455,-1.4182,-1.6151,-1.7315,-1.9707,-2.1885,-2.3063,-2.3999,0.0,-2.4706,-2.4944,-2.5111,-2.5111,-2.5111,-2.5111,-2.5111,-2.5111,-2.5111,-2.5111,-2.5739,-2.6144,-2.6144,-2.6803,-2.72,-2.72,-2.72,-2.72,-2.72,-2.72,-2.72,-2.72,-2.72,-2.7334,-2.7467,-2.7998,-2.8527,-2.8914,-3.0091,-3.0602,-3.0611,-3.112,-3.112,-3.0611,-3.112,-3.1497,-3.1754,-3.1754,-3.2374,-3.3253,-3.2502,-3.2256,-3.2374,-3.3,-3.3505,-3.3631,-3.3379,-3.3631,-3.4007,-3.3505,-3.4007,-3.4746,-3.4746,-3.5869,-3.6878,-3.638,-3.6247,-3.6502,-3.7253,-3.6868,-3.6502,-3.7253,-3.7112,-3.6839,-3.6719,-3.6413,-3.6125,-3.5725,-3.5868,-3.6106,-3.6078,-3.6007,-3.6145,-3.7024,-3.7239,-3.756,-3.7986,-3.7986,-3.7986,-3.7986,-3.7986,-3.7986,-3.7986,-3.7986,-3.7986,-3.7986,-3.7986,-3.7986,-3.7986,-3.7986,-3.7986,-3.7986,-3.7986,-3.7986,-3.7986,-3.7986,-3.7986,0.0,0.0,-1.1798,-1.1808,-1.228,-1.2852,-1.3258,-1.5476,-1.7701,-1.8538,-2.1012,-2.3211,-2.3905,-2.4333,-2.4698,-2.504,-2.5103,-2.5111,-2.5111,-2.5111,-2.5111,-2.5111,-2.5111,-2.5111,0.0,-2.5739,-2.6144,-2.6144,-2.6803,-2.72,-2.72,-2.72,-2.72,-2.72,-2.72,-2.72,-2.72,-2.72,-2.76,-2.8271,-2.8263,-2.8922,-3.0222,-3.0991,-3.1377,-3.1377,-3.1377,-3.1377,-3.1377,-3.1377,-3.2001,-3.2883,-3.2883,-3.3505,-3.4373,-3.4383,-3.4248,-3.4248,-3.4373,-3.4995,-3.5623,-3.4632,-3.5623,-3.6878,-3.5005,-3.5005,-3.5879,-3.5879,-3.5879,-3.6125,-3.7121,-3.7374,-3.7374,-3.7374,-3.7374,-3.7374,-3.7374,-3.7363,-3.7221,-3.6784,-3.6686,-3.6747,-3.6809,-3.6431,-3.6454,-3.7664,-3.734,-3.7024,-3.7131,-3.7667,-3.7986,-3.7986,-3.7986,-3.7986,-3.7986,-3.7986,-3.7986,-3.7986,-3.7986,-3.7986,-3.7986,-3.7986,-3.7986,-3.7986,-3.7986,-3.7986,-3.7986,-3.7986,-3.7986,-3.7986,-3.7986,-3.7986,0.0,0.0,-1.2479,-1.2611,-1.3017,-1.3683,-1.4908,-1.6931,-1.8879,-1.9871,-2.1847,-2.3488,-2.3713,-2.3999,-2.4349,-2.4698,-2.4952,-2.5111,-2.5111,-2.5111,-2.5111,-2.5111,-2.5111,0.0,0.0,0.0,0.0,-2.6128,-2.6589,-2.6954,-2.7193,-2.72,-2.72,-2.72,-2.72,-2.7467,-2.7865,-2.7865,-2.8263,-2.8922,-2.9438,-3.0091,-3.0991,-3.1249,-3.1377,-3.1377,-3.1377,-3.1377,-3.1506,-3.2128,-3.2629,-3.3009,-3.3631,-3.4497,-3.5376,-3.5376,-3.5879,-3.6247,-3.5623,-3.5623,-3.5869,-3.55,-3.5879,-3.6247,-3.5623,-3.5623,-3.6002,-3.6757,-3.6878,-3.7,-3.7253,-3.7374,-3.7374,-3.7374,-3.7374,-3.7374,-3.7374,-3.7374,-3.733,-3.7178,-3.7515,-3.7707,-3.7439,-3.7896,-3.8358,-3.8476,-3.8013,-3.7667,-3.7667,-3.788,-3.7986,-3.7986,-3.7986,-3.7986,-3.7986,-3.7986,-3.7986,-3.7986,-3.7986,-3.7986,-3.7986,-3.7986,-3.7986,-3.7986,-3.7986,-3.7986,-3.7986,-3.7986,-3.7986,-3.7986,-3.7986,-3.7986,0.0,-1.2621,-1.3169,-1.3902,-1.4009,-1.4446,-1.648,-1.8045,-1.935,-2.0399,-2.193,-2.3051,-2.3165,-2.3141,-2.3403,-2.4253,-2.4476,-2.4682,-2.5056,-2.5111,-2.5111,-2.5111,-2.5222,0.0,0.0,0.0,0.0,-2.612,-2.6589,-2.6962,-2.7193,-2.72,-2.7334,-2.76,-2.76,-2.7998,-2.8659,-2.8659,-2.9045,-2.97,-3.0352,-3.0991,-3.1377,-3.1377,-3.1377,-3.1377,-3.1754,-3.1882,-3.2001,-3.3,-3.3631,-3.4007,-3.4622,-3.55,-3.6401,-3.6561,-3.7029,-3.7253,-3.6624,-3.638,-3.638,-3.6002,-3.6125,-3.638,-3.6002,-3.6125,-3.6624,-3.7253,-3.7374,-3.7374,-3.7374,-3.7374,-3.7374,-3.7374,-3.7374,-3.7374,-3.7374,-3.7374,-3.7495,-3.7736,-3.7987,-3.8365,-3.8498,-3.9232,-3.9569,-3.8863,-3.8515,-3.8214,-3.7998,-3.7986,-3.7986,-3.7986,-3.7986,-3.7986,-3.7986,-3.7986,-3.7986,-3.7986,-3.7986,-3.7986,-3.7986,-3.7986,-3.7986,-3.7986,-3.7986,-3.7986,-3.7986,-3.7986,-3.7986,-3.7986,-3.7986,-3.8082,-1.2866,-1.3254,-1.3878,-1.5471,-1.5145,-1.5117,-1.8054,-1.8772,-1.9108,-2.0364,-2.1314,-2.2088,0.0,0.0,-2.2029,-2.3721,-2.3777,-2.3951,-2.4968,-2.5127,-2.5135,0.0,0.0,0.0,0.0,0.0,0.0,-2.6152,0.0,-2.7161,-2.72,-2.72,-2.76,-2.8271,-2.8263,-2.8659,-2.9307,-2.9307,-2.97,-3.0352,-3.112,-3.1377,-3.1377,-3.1377,-3.1377,-3.1497,-3.2502,-3.2873,-3.3009,-3.4153,-3.5036,-3.5911,-3.6065,-3.6577,-3.7516,-3.7975,-3.7844,-3.7451,-3.7451,-3.744,-3.7286,-3.629,-3.6667,-3.7286,-3.6258,-3.6624,-3.7374,-3.7374,-3.7374,-3.7374,-3.7374,-3.7374,-3.7374,-3.7374,-3.7374,-3.7374,-3.7374,-3.7374,-3.7616,-3.8227,-3.8347,-3.8823,-3.9989,-4.0385,-4.0054,-3.9056,-3.8852,-3.8611,-3.8046,-3.7986,-3.7986,-3.7986,-3.7986,-3.7986,-3.7986,-3.7986,-3.7986,-3.7986,-3.7986,-3.7986,-3.7986,-3.7986,-3.7986,-3.7986,-3.7986,-3.7986,-3.7986,-3.7986,-3.7998,-3.8022,-3.8022,-3.8322,-1.3206,-1.3684,-1.4223,-1.4571,-1.5383,-1.6511,-1.799,-1.9363,-2.0557,-2.1094,-2.1424,-2.1526,0.0,0.0,0.0,-2.3117,-2.3864,0.0,-2.5032,-2.5342,0.0,0.0,0.0,-2.6017,-2.6017,-2.6255,0.0,0.0,-2.6462,-2.6644,-2.7177,-2.7733,-2.7865,-2.7467,-2.8527,-2.9185,-2.9307,-3.0343,-3.0991,-3.112,-3.1249,-3.1377,-3.1377,-3.1377,-3.1754,-3.2502,-3.2756,-3.3379,-3.4153,-3.5499,-3.6144,-3.656,-3.7681,-3.8206,-3.8477,-3.8608,-3.8575,-3.8466,-3.8466,-3.8226,-3.792,-3.7664,-3.7664,-3.7855,-3.724,-3.7253,-3.7374,-3.7374,-3.7374,-3.7374,-3.7374,-3.7374,-3.7374,-3.7374,-3.7374,-3.7374,-3.7374,-3.7374,-3.7616,-3.8227,-3.906,-3.9989,-4.0826,-4.0626,-4.0306,-4.003,-3.932,-3.8611,-3.8046,-3.7986,-3.7986,-3.7986,-3.7986,-3.7986,-3.7986,-3.7986,-3.7986,-3.7986,-3.7986,-3.7986,-3.7986,-3.7986,-3.7986,-3.7986,-3.7986,-3.7986,-3.7986,-3.7986,-3.8202,-3.8611,-3.8611,-3.8888,-1.3802,-1.4676,-1.5468,-1.6187,-1.6987,-1.7912,-1.9484,-2.0142,-2.0472,-2.0725,-2.0812,0.0,0.0,0.0,0.0,0.0,0.0,0.0,-2.5206,-2.5516,-2.5691,0.0,-2.6168,0.0,-2.6382,-2.6557,-2.674,0.0,-2.6724,-2.6911,-2.7716,-2.813,-2.8395,-2.8518,-2.9307,-2.9831,-3.0213,-3.0991,-3.1625,-3.2001,-3.1625,-3.1873,-3.2756,-3.2256,-3.2629,-3.3631,0.0,-3.4507,-3.516,-3.6632,-3.7217,-3.7385,-3.8391,-3.8838,-3.8859,-3.9067,-3.9012,-3.8859,-3.9078,-3.8838,-3.839,-3.8182,-3.8106,-3.8051,-3.7778,-3.7702,-3.7745,-3.7953,-3.7866,-3.7702,-3.7702,-3.7538,-3.7374,-3.7374,-3.7374,-3.7374,-3.7374,-3.7616,-3.8096,-3.893,-3.9989,-4.0711,-4.1184,-4.0944,-4.0667,-4.0427,-3.9886,-3.9224,-3.8443,-3.813,-3.7986,-3.7986,-3.7986,-3.7986,-3.7986,-3.7986,-3.7986,-3.7986,-3.7986,-3.7986,-3.7986,-3.7986,-3.7986,-3.7986,-3.7986,-3.8106,-3.8346,-3.8346,-3.8635,-3.9164,-3.9164,-3.9453,-1.4556,-1.5783,-1.7235,-1.8465,-1.8807,-1.9303,-2.1392,-2.0679,-1.9692,-1.9712,0.0,0.0,-1.8867,0.0,-2.0273,-2.1719,0.0,-2.361,-2.5326,-2.5651,-2.581,-2.6112,-2.6631,-2.6871,-2.674,-2.6879,-2.713,-2.731,-2.7467,-2.7733,-2.8263,-2.8527,-2.9176,-3.0602,-3.0602,-3.0861,-3.1625,-3.1754,-3.2128,-3.2883,-3.2128,-3.2756,-3.4383,-3.3505,-3.3631,-3.4632,-3.55,-3.6002,-3.6167,-3.753,-3.8106,-3.815,-3.8641,-3.8838,-3.8881,-3.9296,-3.9231,-3.898,-3.934,-3.922,-3.8838,-3.8292,-3.8106,-3.8106,-3.8106,-3.8106,-3.8193,-3.8619,-3.8434,-3.8095,-3.8029,-3.7702,-3.7374,-3.7374,-3.7374,-3.7374,-3.7374,-3.7987,-3.8823,-3.9989,-4.0699,-4.1184,-4.1184,-4.1184,-4.1028,-4.0571,-4.0439,-4.0066,-3.9152,-3.8479,-3.807,-3.7986,-3.7986,-3.7986,-3.7986,-3.7986,-3.7986,-3.7986,-3.7986,-3.7986,-3.7986,-3.8046,-3.8094,-3.8094,-3.8166,-3.8431,-3.8924,-3.8924,-3.92,-3.9717,-3.9717,-3.9994,-1.5169,-1.653,-1.8465,-1.7859,-1.9019,-2.0214,-2.0343,-2.034,0.0,0.0,0.0,-1.8533,-1.8414,-1.897,0.0,-2.1687,0.0,0.0,0.0,0.0,-2.608,0.0,0.0,0.0,0.0,0.0,0.0,0.0,0.0,-2.879,-2.8263,-2.9307,-3.0723,-3.2374,-3.1863,-3.1863,-3.2629,-3.3505,-3.3505,-3.2883,-3.3631,-3.3998,-3.4373,-3.4258,-3.4632,-3.5623,-3.5879,0.0,-3.7165,-3.7776,-3.8106,-3.815,-3.8641,-3.8838,-3.8849,-3.8925,-3.9154,-3.9384,-3.9067,-3.9165,-3.9274,-3.839,-3.8106,-3.8106,-3.8106,-3.8106,-3.8128,-3.8204,-3.8171,-3.8018,-3.7603,-3.744,-3.7374,-3.7374,-3.7374,-3.7374,-3.7374,-3.8347,-3.9297,-4.0106,-4.0699,-4.1184,-4.1184,-4.1184,-4.1148,-4.1064,-4.0667,-4.0331,-4.015,-3.9272,-3.8503,-3.8034,-3.7986,-3.7986,-3.7986,-3.7986,-3.7986,-3.7986,-3.7986,-3.7986,-3.7986,-3.8431,-3.8671,-3.8671,-3.9104,-3.9369,-3.9477,-3.9477,-3.9741,-4.0258,-4.0258,-4.0547,-1.7351,-1.8679,-2.0303,-2.003,-2.074,-2.143,-2.0859,0.0,0.0,0.0,0.0,-1.7914,-1.7556,0.0,0.0,0.0,0.0,0.0,0.0,0.0,0.0,0.0,0.0,0.0,0.0,0.0,0.0,0.0,0.0,-2.97,-2.9307,-3.0352,-3.1497,-3.2883,-3.2492,-3.2746,-3.3631,-3.4123,-3.4383,-3.4497,-3.4383,-3.5005,-3.6002,-3.5376,-3.5746,-3.6624,-3.6624,0.0,-3.7418,-3.7909,-3.8106,-3.815,-3.8641,-3.8838,-3.8859,-3.9111,-3.9351,-3.9482,-3.9001,-3.9143,-3.9395,-3.8423,-3.8281,-3.8488,-3.8488,-3.8663,-3.8903,-3.9165,-3.8881,-3.8434,-3.8204,-3.7767,-3.7374,-3.7374,-3.7616,-3.8096,-3.8682,-3.9285,-4.0001,-4.0595,-4.0942,-4.1184,-4.1184,-4.1184,-4.1184,-4.1184,-4.0968,-4.0703,-4.0427,-3.9958,-3.932,-3.8503,-3.8154,-3.7986,-3.7986,-3.7986,-3.8106,-3.8395,-3.8419,-3.8539,-3.8815,-3.908,-3.9224,-3.9224,-3.9477,-3.9741,-4.0018,-4.0018,-4.0282,-4.0812,-4.0812,-4.0944,-1.9455,-2.0757,-2.2194,-2.2117,-2.2333,-2.2268,-2.1659,-2.0249,0.0,0.0,0.0,-1.7405,-1.6937,0.0,0.0,0.0,0.0,0.0,0.0,0.0,0.0,0.0,0.0,0.0,0.0,0.0,0.0,0.0,0.0,0.0,-3.0611,-3.1249,-3.2128,-3.3126,-3.3379,-3.3882,-3.4746,-3.4881,-3.5376,-3.5869,-3.5376,-3.5879,-3.7374,-3.6624,-3.6624,-3.7374,-3.7374,0.0,0.0,-3.78,-3.7953,-3.7986,-3.8368,-3.8521,-3.8565,-3.8947,-3.922,-3.9329,-3.8849,-3.9067,-3.9406,-3.8543,-3.8521,-3.8859,-3.8958,-3.9253,-3.9635,-4.0017,-3.958,-3.8958,-3.8859,-3.8182,-3.7505,-3.7648,-3.8096,-3.8823,-3.9989,-4.0223,-4.0351,-4.1057,-4.1184,-4.1184,-4.1184,-4.1184,-4.1184,-4.1184,-4.1184,-4.104,-4.0619,-4.0463,-4.0078,-3.9248,-3.8659,-3.8334,-3.8334,-3.8334,-3.8515,-3.896,-3.8984,-3.9176,-3.9585,-3.9717,-3.9777,-3.9777,-3.9886,-4.015,-4.0559,-4.0559,-4.0775,-4.1184,-4.1184,-4.1184,-2.0015,-2.1603,-2.3529,-2.2335,-2.2044,-2.1947,-2.1557,0.0,0.0,0.0,-1.727,-1.6913,-1.7183,0.0,0.0,0.0,0.0,0.0,0.0,0.0,0.0,0.0,0.0,0.0,0.0,0.0,0.0,0.0,0.0,0.0,-3.1377,-3.2256,-3.3253,-3.4248,-3.5129,-3.5623,-3.5746,-3.6624,-3.6746,-3.5879,-3.6746,-3.7253,-3.7374,-3.7253,-3.7253,-3.7374,-3.7374,0.0,0.0,-3.7429,-3.744,-3.7451,-3.7494,-3.7516,-3.7516,-3.756,-3.8139,-3.8838,-3.8346,-3.8772,-3.946,-3.8936,-3.8794,-3.8914,-3.9351,-3.9515,-3.9558,-3.9602,-3.9558,-3.9384,-3.8947,-3.8434,-3.8054,-3.8208,-3.8704,-3.9414,-4.0106,-4.0223,-4.0351,-4.1057,-4.1184,-4.1184,-4.1184,-4.1184,-4.1184,-4.1184,-4.1184,-4.1172,-4.1124,-4.0691,-4.0355,-4.0258,-3.9777,-3.9453,-3.9453,-3.9453,-3.9477,-3.9525,-3.9537,-3.9561,-3.9609,-4.0066,-4.0331,-4.0331,-4.08,-4.1064,-4.1112,-4.1112,-4.1136,-4.1184,-4.1184,-4.1184,-2.2319,-2.3335,-2.4271,-2.3673,-2.2929,-2.219,-2.1502,0.0,-1.82,-1.7842,-1.7215,-1.6778,-1.6921,-1.7127,0.0,0.0,0.0,0.0,0.0,0.0,0.0,0.0,0.0,0.0,0.0,0.0,0.0,0.0,0.0,0.0,-3.3253,-3.3631,-3.4248,-3.5253,-3.5633,-3.6125,-3.6757,-3.7253,-3.7253,-3.6757,-3.7253,-3.7374,-3.7374,-3.7374,-3.7374,-3.7374,-3.7374,0.0,0.0,-3.7374,-3.7374,-3.7374,-3.7374,-3.7374,-3.7407,-3.7713,-3.8062,-3.8412,-3.851,-3.898,-3.9515,-3.9329,-3.946,-3.9679,-3.958,-3.9755,-3.9984,-3.9984,-3.9777,-3.9504,-3.9318,-3.8935,-3.872,-3.8829,-3.9414,-4.0001,-4.0699,-4.0826,-4.0826,-4.1184,-4.1184,-4.1184,-4.1184,-4.1184,-4.1184,-4.1184,-4.1184,-4.1184,-4.1184,-4.1004,-4.0872,-4.0872,-4.0114,-3.9609,-3.9609,-3.9609,-3.9741,-4.0066,-4.0078,-4.0222,-4.0547,-4.0763,-4.0872,-4.0872,-4.1076,-4.1184,-4.1184,-4.1184,-4.1184,-4.1184,-4.1184,-4.1184,-2.3411,-2.4084,-2.4464,-2.4237,-2.322,-2.2021,0.0,0.0,-1.8161,-1.7993,-1.7383,-1.6976,-1.7057,-1.7282,-1.7637,0.0,0.0,0.0,0.0,0.0,0.0,0.0,0.0,0.0,0.0,0.0,0.0,0.0,0.0,0.0,0.0,-3.5129,-3.55,-3.5879,-3.6125,-3.6624,-3.7374,-3.7374,-3.7374,-3.7374,-3.7374,-3.7374,-3.7374,-3.7374,-3.7374,-3.7374,-3.7374,0.0,0.0,-3.7374,-3.7374,-3.7374,-3.7374,-3.7374,-3.7418,-3.7767,-3.7986,-3.815,-3.8499,-3.8936,-3.934,-3.934,-3.9569,-3.9788,-3.9438,-3.9777,-4.0279,-4.0279,-3.993,-3.961,-3.9451,-3.9354,-3.9436,-3.953,-4.0001,-4.0583,-4.1069,-4.1184,-4.1184,-4.1184,-4.1184,-4.1184,-4.1184,-4.1184,-4.1184,-4.1184,-4.1184,-4.1184,-4.1184,-4.1184,-4.1184,-4.1184,-4.0523,-4.0066,-4.0066,-4.0066,-4.0234,-4.0607,-4.0631,-4.08,-4.1172,-4.1184,-4.1184,-4.1184,-4.1184,-4.1184,-4.1184,-4.1184,-4.1184,-4.1184,-4.1184,-4.1184,-2.2822,-2.3538,-2.3983,-2.3642,-2.2498,-2.137,0.0,-1.9296,-1.7945,-1.8284,-1.7887,-1.7473,-1.7878,-1.7945,-1.8145,-1.9025,0.0,0.0,0.0,0.0,0.0,0.0,0.0,0.0,0.0,0.0,0.0,0.0,0.0,0.0,0.0,-3.6878,-3.6878,-3.5879,-3.6878,-3.7374,-3.7374,-3.7374,-3.7374,-3.7374,-3.7374,-3.7374,-3.7374,-3.7374,-3.7374,-3.7374,0.0,0.0,0.0,-3.7374,-3.7374,-3.7374,-3.7374,-3.7374,-3.7374,-3.7385,-3.7691,-3.8106,-3.8117,-3.8434,-3.8849,-3.8849,-3.8849,-3.8849,-3.8849,-3.9515,-4.0279,-4.0279,-3.993,-3.9583,-3.9232,-3.956,-4.0013,-4.0106,-4.0699,-4.1184,-4.1184,-4.1184,-4.1184,-4.1184,-4.1184,-4.1184,-4.1184,-4.1184,-4.1184,-4.1184,-4.1184,-4.1184,-4.1184,-4.1184,-4.1184,-4.1184,-4.1172,-4.1172,-4.1172,-4.1172,-4.1172,-4.1172,-4.1172,-4.1172,-4.1184,-4.1184,-4.1184,-4.1184,-4.1184,-4.1184,-4.1184,-4.1184,-4.1184,-4.1184,-4.1184,-4.1184,-2.1613,-2.2275,-2.2537,-2.2196,-2.1417,-2.0676,-2.0378,-1.9231,-1.8296,-1.8473,-1.8127,-1.7878,-1.7959,-1.7972,-1.843,-1.9761,-2.0363,0.0,0.0,0.0,0.0,0.0,0.0,0.0,0.0,0.0,0.0,0.0,0.0,0.0,0.0,-3.7253,-3.7253,-3.6878,-3.7253,-3.7374,-3.7374,-3.7374,-3.7374,-3.7374,-3.7374,-3.7374,-3.7374,-3.7374,-3.7374,0.0,0.0,0.0,0.0,-3.7374,-3.7374,-3.7374,-3.7374,-3.7374,-3.7374,-3.7374,-3.7472,-3.7658,-3.7997,-3.8204,-3.839,-3.8728,-3.8838,-3.8838,-3.8838,-3.9045,-3.9423,-3.9792,-3.9807,-3.9779,-3.9719,-4.0151,-4.0513,-4.0235,-4.0699,-4.1184,-4.1184,-4.1184,-4.1184,-4.1184,-4.1184,-4.1184,-4.1184,-4.1184,-4.1184,-4.1184,-4.1184,-4.1184,-4.1184,-4.1184,-4.1184,-4.1184,-4.1184,-4.1184,-4.1184,-4.1184,-4.1184,-4.1184,-4.1184,-4.1184,-4.1184,-4.1184,-4.1184,-4.1184,-4.1184,-4.1184,-4.1184,-4.1184,-4.1184,-4.1184,-4.1184,-4.1184,0.0,-2.1617,-2.2038,-2.1819,-2.1119,-2.0459,-2.0309,-1.9329,-1.8524,-1.8797,-1.8542,-1.8282,-1.8434,-1.8628,-1.9259,-2.0656,-2.1248,0.0,0.0,0.0,0.0,0.0,0.0,0.0,0.0,0.0,0.0,0.0,0.0,0.0,0.0,-3.7374,-3.7374,-3.7374,-3.7374,-3.7374,-3.7374,-3.7374,-3.7374,-3.7374,-3.7374,-3.7374,-3.7374,-3.7374,-3.7374,0.0,0.0,0.0,0.0,-3.7374,-3.7374,-3.7374,-3.7374,-3.7374,-3.7374,-3.7374,-3.7374,-3.7418,-3.7724,-3.7833,-3.7887,-3.8429,-3.8774,-3.902,-3.902,-3.904,-3.9294,-3.9713,-3.9903,-3.9912,-4.0002,-4.0339,-4.0634,-4.055,-4.0942,-4.1184,-4.1184,-4.1184,-4.1184,-4.1184,-4.1184,-4.1184,-4.1184,-4.1184,-4.1184,-4.1184,-4.1184,-4.1184,-4.1184,-4.1184,-4.1184,-4.1184,-4.1184,-4.1184,-4.1184,-4.1184,-4.1184,-4.1184,-4.1184,-4.1184,-4.1184,-4.1184,-4.1184,-4.1184,-4.1184,-4.1184,-4.1184,-4.1184,-4.1184,-4.1184,-4.1184,-4.1184,0.0,-2.1341,-2.2204,-2.2204,-2.1411,-2.0619,-2.0593,-1.959,0.0,-1.9132,-1.9012,-1.8949,-1.9295,-1.982,-2.0482,-2.1611,-2.2308,0.0,0.0,0.0,0.0,0.0,0.0,0.0,0.0,0.0,0.0,0.0,0.0,0.0,0.0,-3.7374,-3.7374,-3.7374,-3.7374,-3.7374,-3.7374,-3.7374,-3.7374,-3.7374,-3.7374,-3.7374,-3.7374,-3.7374,-3.7374,0.0,0.0,0.0,0.0,-3.7374,-3.7374,-3.7374,-3.7374,-3.7374,-3.7374,-3.7374,-3.7374,-3.7374,-3.7374,-3.7374,-3.7616,-3.8227,-3.8823,-3.9308,-3.9297,-3.9602,-3.9747,-3.9991,-3.9962,-4.0098,-4.0235,-4.0223,-4.0467,-4.1057,-4.1184,-4.1184,-4.1184,-4.1184,-4.1184,-4.1184,-4.1184,-4.1184,-4.1184,-4.1184,-4.1184,-4.1184,-4.1184,-4.1184,-4.1184,-4.1184,-4.1184,-4.1184,-4.1184,-4.1184,-4.1184,-4.1184,-4.1184,-4.1184,-4.1184,-4.1184,-4.1184,-4.1184,-4.1184,-4.1184,-4.1184,-4.1184,-4.1184,-4.1184,-4.1184,-4.1184,-4.1184,-4.1184,-1.9129,0.0,-1.9869,-1.9869,-1.9664,-1.947,0.0,-1.9665,-1.9643,0.0,0.0,0.0,0.0,-2.0536,-2.1345,0.0,0.0,0.0,0.0,0.0,0.0,0.0,0.0,0.0,0.0,0.0,0.0,0.0,0.0,0.0,-3.7374,-3.7374,-3.7374,-3.7374,-3.7374,-3.7374,-3.7374,-3.7374,-3.7374,-3.7374,-3.7374,-3.7374,-3.7374,-3.7374,-3.7374,0.0,0.0,0.0,-3.7374,-3.7374,-3.7374,-3.7374,-3.7374,-3.7374,-3.7374,-3.7374,-3.7374,-3.7374,-3.7374,-3.7736,-3.8227,-3.8823,-3.9178,-3.9414,-3.9884,-3.9694,-3.951,-3.9965,-4.0165,-4.0259,-4.085,-4.0942,-4.0942,-4.1184,-4.1184,-4.1184,-4.1184,-4.1184,-4.1184,-4.1184,-4.1184,-4.1184,-4.1184,-4.1184,-4.1184,-4.1184,-4.1184,-4.1184,-4.1184,-4.1184,-4.1184,-4.1184,-4.1184,-4.1184,-4.1184,-4.1184,-4.1184,-4.1184,-4.1184,-4.1184,-4.1184,-4.1184,-4.1184,-4.1184,-4.1184,-4.1184,-4.1184,-4.1184,-4.1184,-4.1184,-4.1184,-4.1184,-1.9056,-1.9457,-1.9971,-1.9795,-1.975,-1.9867,-2.0154,0.0,0.0,0.0,0.0,0.0,0.0,0.0,0.0,0.0,0.0,0.0,0.0,0.0,0.0,0.0,0.0,0.0,0.0,0.0,0.0,0.0,0.0,0.0,-3.7374,-3.7374,-3.7374,-3.7374,-3.7374,-3.7374,-3.7374,-3.7374,-3.7374,-3.7374,-3.7374,-3.7374,-3.7374,-3.7374,-3.7374,0.0,0.0,0.0,-3.7374,-3.7374,-3.7374,-3.7374,-3.7374,-3.7374,-3.7374,-3.7374,-3.7374,-3.7374,-3.7374,-3.7987,-3.8823,-3.9532,-3.9884,-4.0246,-4.0595,-4.0479,-4.0235,-4.0583,-4.0699,-4.0699,-4.1069,-4.1184,-4.1184,-4.1184,-4.1184,-4.1184,-4.1184,-4.1184,-4.1184,-4.1184,-4.1184,-4.1184,-4.1184,-4.1184,-4.1184,-4.1184,-4.1184,-4.1184,-4.1184,-4.1184,-4.1184,-4.1184,-4.1184,-4.1184,-4.1184,-4.1184,-4.1184,-4.1184,-4.1184,-4.1184,-4.1184,-4.1184,-4.1184,-4.1184,-4.1184,-4.1184,-4.1184,-4.1184,-4.1184,-4.1184,-4.1184,-4.1184,-1.9441,-2.0264,-2.0979,-2.0466,-2.0383,-2.0597,-2.1272,0.0,0.0,0.0,0.0,0.0,0.0,0.0,0.0,0.0,0.0,0.0,0.0,0.0,0.0,0.0,0.0,0.0,0.0,0.0,0.0,0.0,0.0,-3.7374,-3.7374,-3.7374,-3.7374,-3.7374,-3.7374,-3.7374,-3.7374,-3.7374,-3.7374,-3.7374,-3.7374,-3.7374,-3.7374,-3.7374,-3.7374,-3.7374,0.0,0.0,-3.7374,-3.7374,-3.7374,-3.7374,-3.7374,-3.7374,-3.7374,-3.7374,-3.7374,-3.7374,-3.7616,-3.8455,-3.9532,-4.0118,-4.0699,-4.1184,-4.1184,-4.1184,-4.1184,-4.1184,-4.1184,-4.1184,-4.1184,-4.1184,-4.1184,-4.1184,-4.1184,-4.1184,-4.1184,-4.1184,-4.1184,-4.1184,-4.1184,-4.1184,-4.1184,-4.1184,-4.1184,-4.1184,-4.1184,-4.1184,-4.1184,-4.1184,-4.1184,-4.1184,-4.1184,-4.1184,-4.1184,-4.1184,-4.1184,-4.1184,-4.1184,-4.1184,-4.1184,-4.1184,-4.1184,-4.1184,-4.1184,-4.1184,-4.1184,-4.1184,-4.1184,-4.1184,-4.1184,-4.1184,-1.9993,-2.0677,-2.0842,-1.976,-1.976,-2.0181,0.0,0.0,0.0,0.0,0.0,0.0,0.0,0.0,0.0,0.0,0.0,0.0,0.0,0.0,0.0,0.0,0.0,0.0,0.0,0.0,0.0,0.0,0.0,0.0,-3.7374,-3.7374,-3.7374,-3.7374,-3.7374,-3.7374,-3.7374,-3.7374,-3.7374,-3.7374,-3.7374,-3.7374,-3.7374,-3.7374,-3.7374,-3.7374,0.0,-3.7374,-3.7374,-3.7374,-3.7374,-3.7374,-3.7374,-3.7374,-3.7374,-3.7374,-3.7374,-3.7495,-3.8585,-3.9532,-4.0118,-4.0826,-4.1069,-4.1184,-4.1184,-4.1184,-4.1184,-4.1184,-4.1184,-4.1184,-4.1184,-4.1184,-4.1184,-4.1184,-4.1184,-4.1184,-4.1184,-4.1184,-4.1184,-4.1184,-4.1184,-4.1184,-4.1184,-4.1184,-4.1184,-4.1184,-4.1184,-4.1184,-4.1184,-4.1184,-4.1184,-4.1184,-4.1184,-4.1184,-4.1184,-4.1184,-4.1184,-4.1184,-4.1184,-4.1184,-4.1184,-4.1184,-4.1184,-4.1184,-4.1184,-4.1184,-4.1184,-4.1184,-4.1184,-4.1184,-4.1184,-4.1184,-1.9832,-2.041,-2.0891,-2.0726,-2.0761,-2.1098,0.0,0.0,0.0,0.0,0.0,0.0,0.0,0.0,0.0,0.0,0.0,0.0,0.0,0.0,0.0,0.0,0.0,0.0,0.0,0.0,0.0,0.0,0.0,0.0,-3.7374,-3.7374,-3.7374,-3.7374,-3.7374,-3.7374,-3.7374,-3.7374,-3.7374,-3.7374,-3.7374,-3.7374,-3.7374,-3.7374,-3.7374,-3.7374,0.0,-3.7374,-3.7374,-3.7374,-3.7374,-3.7374,-3.7374,-3.7626,-3.7867,-3.7867,-3.7867,-3.7976,-3.8942,-3.965,-4.0339,-4.0942,-4.1184,-4.1184,-4.1184,-4.1184,-4.1184,-4.1184,-4.1184,-4.1184,-4.1184,-4.1184,-4.1184,-4.1184,-4.1184,-4.1184,-4.1184,-4.1184,-4.1184,-4.1184,-4.1184,-4.1184,-4.1184,-4.1184,-4.1184,-4.1184,-4.1184,-4.1184,-4.1184,-4.1184,-4.1184,-4.1184,-4.1184,-4.1184,-4.1184,-4.1184,-4.1184,-4.1184,-4.1184,-4.1184,-4.1184,-4.1184,-4.1184,-4.1184,-4.1184,-4.1184,-4.1184,-4.1184,-4.1184,-4.1184,-4.1184,-4.1184,-2.0031,-2.0596,-2.1211,-2.2039,0.0,-2.1832,-2.3373,0.0,0.0,0.0,0.0,0.0,0.0,0.0,0.0,0.0,0.0,0.0,0.0,0.0,0.0,0.0,0.0,0.0,0.0,0.0,0.0,0.0,0.0,0.0,-3.7374,-3.7374,-3.7374,-3.7374,-3.7374,-3.7374,-3.7374,-3.7374,-3.7374,-3.7374,-3.7374,-3.7374,-3.7374,-3.7374,-3.7374,-3.7374,-3.7374,-3.7374,-3.7374,-3.7374,-3.7374,-3.7374,-3.7374,-3.7736,-3.8347,-3.8466,-3.8585,-3.8823,-3.9297,-3.9884,-4.0467,-4.1057,-4.1184,-4.1184,-4.1184,-4.1184,-4.1184,-4.1184,-4.1184,-4.1184,-4.1184,-4.1184,-4.1184,-4.1184,-4.1184,-4.1184,-4.1184,-4.1184,-4.1184,-4.1184,-4.1184,-4.1184,-4.1184,-4.1184,-4.1184,-4.1184,-4.1184,-4.1184,-4.1184,-4.1184,-4.1184,-4.1184,-4.1184,-4.1184,-4.1184,-4.1184,-4.1184,-4.1184,-4.1184,-4.1184,-4.1184,-4.1184,-4.1184,-4.1184,-4.1184,-4.1184,-4.1184,-4.1184,-4.1184,-4.1184,-4.1184,-4.1184,-2.1251,-2.1699,-2.1919,-2.2998,0.0,0.0,-2.4792,0.0,0.0,0.0,0.0,0.0,0.0,0.0,0.0,0.0,0.0,0.0,0.0,0.0,0.0,0.0,0.0,0.0,0.0,0.0,0.0,0.0,0.0,0.0,-3.7352,-3.7374,-3.7374,-3.7374,-3.7374,-3.7374,-3.7374,-3.7374,-3.7374,-3.7374,-3.7374,-3.7374,-3.7374,-3.7374,-3.7374,-3.7374,-3.7374,-3.7374,-3.7374,-3.7374,-3.7374,-3.7374,-3.7374,-3.7736,-3.8347,-3.8942,-3.9532,-4.0106,-4.0106,-4.0583,-4.1184,-4.1184,-4.1184,-4.1184,-4.1184,-4.1184,-4.1184,-4.1184,-4.1184,-4.1184,-4.1184,-4.1184,-4.1184,-4.1184,-4.1184,-4.1184,-4.1184,-4.1184,-4.1184,-4.1184,-4.1184,-4.1184,-4.1184,-4.1184,-4.1184,-4.1184,-4.1184,-4.1184,-4.1184,-4.1184,-4.1184,-4.1184,-4.1184,-4.1184,-4.1184,-4.1184,-4.1184,-4.1184,-4.1184,-4.1184,-4.1184,-4.1184,-4.1184,-4.1184,-4.1184,-4.1184,-4.1184,-4.1184,-4.1184,-4.1184,-4.1184,-4.1184,-2.0989,-2.1818,-2.2579,-2.3396,0.0,0.0,0.0,0.0,0.0,0.0,0.0,0.0,0.0,0.0,0.0,0.0,0.0,0.0,0.0,0.0,0.0,0.0,0.0,0.0,0.0,0.0,0.0,0.0,0.0,0.0,-3.6489,-3.65,-3.6631,-3.6948,-3.6948,-3.709,-3.7374,-3.7374,-3.7374,-3.7374,-3.7374,-3.7374,-3.7374,-3.7374,-3.7374,-3.7374,-3.7374,-3.7374,-3.7374,-3.7374,-3.7374,-3.7506,-3.8216,-3.8704,-3.8942,-3.965,-3.9989,-4.0223,-4.0223,-4.0583,-4.1184,-4.1184,-4.1184,-4.1184,-4.1184,-4.1184,-4.1184,-4.1184,-4.1184,-4.1184,-4.1184,-4.1184,-4.1184,-4.1184,-4.1184,-4.1184,-4.1184,-4.1184,-4.1184,-4.1184,-4.1184,-4.1184,-4.1184,-4.1184,-4.1184,-4.1184,-4.1184,-4.1184,-4.1184,-4.1184,-4.1184,-4.1184,-4.1184,-4.1184,-4.1184,-4.1184,-4.1184,-4.1184,-4.1184,-4.1184,-4.1184,-4.1184,-4.1184,-4.1184,-4.1184,-4.1184,-4.1184,-4.1184,-4.1184,-4.1184,-4.1184,-4.1184,-2.106,-2.1882,0.0,0.0,0.0,0.0,0.0,0.0,0.0,0.0,0.0,0.0,0.0,0.0,0.0,0.0,0.0,0.0,0.0,0.0,0.0,0.0,0.0,0.0,0.0,0.0,0.0,0.0,0.0,0.0,0.0,-3.5965,-3.6118,-3.6457,-3.6468,-3.661,-3.6926,-3.7079,-3.7156,-3.7167,-3.7309,-3.7374,-3.7374,-3.7374,-3.7374,-3.7374,-3.7626,-3.7736,-3.7736,-3.7736,-3.7736,-3.7856,-3.906,-3.9532,-3.965,-4.0235,-4.0467,-4.0467,-4.0467,-4.0826,-4.1184,-4.1184,-4.1184,-4.1184,-4.1184,-4.1184,-4.1184,-4.1184,-4.1184,-4.1184,-4.1184,-4.1184,-4.1184,-4.1184,-4.1184,-4.1184,-4.1184,-4.1184,-4.1184,-4.1184,-4.1184,-4.1184,-4.1184,-4.1184,-4.1184,-4.1184,-4.1184,-4.1184,-4.1184,-4.1184,-4.1184,-4.1184,-4.1184,-4.1184,-4.1184,-4.1184,-4.1184,-4.1184,-4.1184,-4.1184,-4.1184,-4.1184,-4.1184,-4.1184,-4.1184,-4.1184,-4.1184,-4.1184,-4.1184,-4.1184,-4.1184,-4.1184,-2.1523,0.0,0.0,0.0,0.0,0.0,0.0,0.0,0.0,0.0,0.0,0.0,0.0,0.0,0.0,0.0,0.0,0.0,0.0,0.0,0.0,0.0,0.0,0.0,0.0,0.0,0.0,0.0,0.0,0.0,0.0,-3.5954,-3.5954,-3.5954,-3.5954,-3.5954,-3.5965,-3.6446,-3.6686,-3.6697,-3.7145,-3.7363,-3.7374,-3.7374,-3.7374,-3.7495,-3.7987,-3.8347,-3.8347,-3.8347,-3.8347,-3.8466,-3.9755,-4.0223,-4.0351,-4.0942,-4.1184,-4.1184,-4.1184,-4.1184,-4.1184,-4.1184,-4.1184,-4.1184,-4.1184,-4.1184,-4.1184,-4.1184,-4.1184,-4.1184,-4.1184,-4.1184,-4.1184,-4.1184,-4.1184,-4.1184,-4.1184,-4.1184,-4.1184,-4.1184,-4.1184,-4.1184,-4.1184,-4.1184,-4.1184,-4.1184,-4.1184,-4.1184,-4.1184,-4.1184,-4.1184,-4.1184,-4.1184,-4.1184,-4.1184,-4.1184,-4.1184,-4.1184,-4.1184,-4.1184,-4.1184,-4.1184,-4.1184,-4.1184,-4.1184,-4.1184,-4.1184,-4.1184,-4.1184,-4.1184,-4.1184,-4.1184,-2.1296,0.0,0.0,0.0,0.0,0.0,0.0,0.0,0.0,0.0,0.0,0.0,0.0,0.0,0.0,0.0,0.0,0.0,0.0,0.0,0.0,0.0,0.0,0.0,0.0,0.0,0.0,0.0,0.0,0.0,0.0,-3.4949,-3.5102,-3.5419,-3.543,-3.5605,-3.5965,-3.6107,-3.6184,-3.6184,-3.6772,-3.7074,-3.7374,-3.7374,-3.7626,-3.7987,-3.8227,-3.8585,-3.8942,-3.8942,-3.9297,-3.9638,-4.0106,-4.0467,-4.0942,-4.1184,-4.1184,-4.1184,-4.1184,-4.1184,-4.1184,-4.1184,-4.1184,-4.1184,-4.1184,-4.1184,-4.1184,-4.1184,-4.1184,-4.1184,-4.1184,-4.1184,-4.1184,-4.1184,-4.1184,-4.1184,-4.1184,-4.1184,-4.1184,-4.1184,-4.1184,-4.1184,-4.1184,-4.1184,-4.1184,-4.1184,-4.1184,-4.1184,-4.1184,-4.1184,-4.1184,-4.1184,-4.139,-4.1504,-4.1504,-4.1745,-4.1871,-4.1871,-4.1871,-4.1643,-4.1184,-4.1184,-4.1184,-4.1184,-4.1184,-4.1184,-4.1184,-4.139,-4.139,-4.1184,-4.1643,-4.1643,0.0,0.0,0.0,0.0,0.0,0.0,0.0,0.0,0.0,0.0,0.0,0.0,0.0,0.0,0.0,0.0,0.0,0.0,0.0,0.0,0.0,0.0,0.0,0.0,0.0,0.0,0.0,0.0,0.0,0.0,0.0,-3.4524,-3.4655,-3.4928,-3.5142,-3.5296,-3.5386,-3.5802,-3.589,-3.567,-3.6434,-3.695,-3.7163,-3.7163,-3.7629,-3.8422,-3.8851,-3.9285,-3.965,-3.9884,-4.0118,-4.0223,-4.0467,-4.0826,-4.1184,-4.1184,-4.1184,-4.1184,-4.1184,-4.1184,-4.1184,-4.1184,-4.1184,-4.1184,-4.1184,-4.1184,-4.1184,-4.1184,-4.1184,-4.1184,-4.1184,-4.1184,-4.1184,-4.1184,-4.1184,-4.1184,-4.1184,-4.1184,-4.1184,-4.1184,-4.1184,-4.1184,-4.1184,-4.1184,-4.1184,-4.1184,-4.1184,-4.1184,-4.1184,-4.1184,-4.1299,-4.1402,-4.1492,-4.1606,-4.1732,-4.1984,-4.211,-4.211,-4.211,-4.1997,-4.1528,-4.1528,-4.1516,-4.1402,-4.1516,-4.1528,-4.1528,-4.1745,-4.1745,-4.1528,-4.1871,-4.1871,0.0,0.0,0.0,0.0,0.0,0.0,0.0,0.0,0.0,0.0,0.0,0.0,0.0,0.0,0.0,0.0,0.0,0.0,0.0,0.0,0.0,0.0,0.0,0.0,0.0,0.0,0.0,0.0,0.0,0.0,0.0,-3.4524,-3.4524,-3.4524,-3.5058,-3.5157,-3.4635,-3.5501,-3.5825,-3.526,-3.6282,-3.6733,-3.6848,-3.6823,-3.746,-3.862,-3.9709,-4.028,-4.028,-4.093,-4.0826,-4.0339,-4.0942,-4.1184,-4.1184,-4.1184,-4.1184,-4.1184,-4.1184,-4.1184,-4.1184,-4.1184,-4.1184,-4.1184,-4.1184,-4.1184,-4.1184,-4.1184,-4.1184,-4.1184,-4.1184,-4.1184,-4.1184,-4.1184,-4.1184,-4.1184,-4.1184,-4.1184,-4.1184,-4.1184,-4.1184,-4.1184,-4.1184,-4.1184,-4.1184,-4.1184,-4.1184,-4.1184,-4.1184,-4.1299,-4.1287,-4.1606,-4.172,-4.1846,-4.2098,-4.2211,-4.2211,-4.2211,-4.2211,-4.2211,-4.2098,-4.211,-4.1984,-4.1606,-4.1972,-4.211,-4.211,-4.2098,-4.2098,-4.211,-4.211,-4.2098,0.0,0.0,0.0,0.0,0.0,0.0,0.0,0.0,0.0,0.0,0.0,0.0,0.0,0.0,0.0,0.0,0.0,0.0,0.0,0.0,0.0,0.0,0.0,0.0,0.0,0.0,0.0,0.0,0.0,0.0,-3.4524,-3.4524,-3.4524,-3.4524,-3.5058,-3.5378,-3.5157,-3.549,-3.5756,0.0,-3.6322,-3.6599,-3.706,-3.7402,-3.7941,-3.8657,-3.9867,-4.0332,-4.0368,-4.1004,-4.1069,-4.0942,-4.1184,-4.1184,-4.1184,-4.1184,-4.1184,-4.1184,-4.1184,-4.1184,-4.1184,-4.1184,-4.1184,-4.1184,-4.1184,-4.1184,-4.1184,-4.1184,-4.1184,-4.1184,-4.1184,-4.1184,-4.1184,-4.1184,-4.1184,-4.1184,-4.1184,-4.1184,-4.1184,-4.1184,-4.1184,-4.1184,-4.1184,-4.1184,-4.1184,-4.1184,-4.1184,-4.1287,-4.1492,-4.1492,-4.1618,-4.1984,-4.2187,-4.23,-4.2413,-4.265,-4.2762,-4.2762,-4.2762,-4.265,-4.2413,-4.2211,-4.2098,-4.1972,-4.2098,-4.211,-4.211,-4.2312,-4.2312,-4.211,-4.2538,-4.2538,0.0,0.0,0.0,0.0,0.0,0.0,0.0,0.0,0.0,0.0,0.0,0.0,0.0,0.0,0.0,0.0,0.0,0.0,0.0,0.0,0.0,0.0,0.0,0.0,0.0,0.0,0.0,0.0,0.0,-3.4524,-3.4524,-3.4524,-3.4524,-3.4524,-3.5389,-3.5708,-3.5378,-3.5927,-3.6254,-3.6266,-3.6592,-3.7024,-3.7584,-3.8052,-3.8196,-3.8342,-3.9555,-4.0018,-4.0054,-4.0583,-4.0812,-4.0824,-4.1088,-4.1184,-4.1184,-4.1184,-4.1184,-4.1184,-4.1184,-4.1184,-4.1184,-4.1184,-4.1184,-4.1184,-4.1184,-4.1184,-4.1184,-4.1184,-4.1184,-4.1184,-4.1184,-4.1184,-4.1184,-4.1184,-4.1184,-4.1184,-4.1184,-4.1184,-4.1184,-4.1184,-4.1184,-4.1184,-4.1184,-4.1184,-4.1299,-4.139,-4.139,-4.1504,-4.1859,-4.1859,-4.1972,-4.2312,-4.2413,-4.2525,-4.275,-4.2862,-4.2974,-4.2974,-4.2974,-4.2974,-4.275,-4.265,-4.2437,-4.2312,-4.2425,-4.2538,-4.2538,-4.2638,-4.2638,-4.2538,-4.2862,-4.2874,0.0,0.0,0.0,0.0,0.0,0.0,0.0,0.0,0.0,0.0,0.0,0.0,0.0,0.0,0.0,0.0,0.0,0.0,0.0,0.0,0.0,0.0,0.0,0.0,0.0,0.0,0.0,0.0,0.0,-3.4635,-3.4635,-3.4635,-3.4635,-3.4635,-3.5719,-3.6048,-3.5598,-3.658,-3.6916,-3.6592,-3.7024,-3.756,-3.7998,-3.8467,-3.8443,-3.802,-3.9005,-3.9477,-3.9513,-4.0042,-4.0258,-4.0306,-4.0739,-4.0968,-4.1052,-4.1052,-4.11,-4.1184,-4.1184,-4.1184,-4.1184,-4.1184,-4.1184,-4.1184,-4.1184,-4.1184,-4.1184,-4.1184,-4.1184,-4.1184,-4.1184,-4.1184,-4.1184,-4.1184,-4.1184,-4.1184,-4.1184,-4.1184,-4.1184,-4.1184,-4.1184,-4.1184,-4.1184,-4.1299,-4.1287,-4.1606,-4.1606,-4.1846,-4.2098,-4.2211,-4.2324,-4.2525,-4.2638,-4.275,-4.2974,-4.2974,-4.2974,-4.2974,-4.2974,-4.2974,-4.2974,-4.2974,-4.2862,-4.2638,-4.2862,-4.2974,-4.2974,-4.2974,-4.2974,-4.2974,-4.2974,-4.2974,0.0,0.0,0.0,0.0,0.0,0.0,0.0,0.0,0.0,0.0,0.0,0.0,0.0,0.0,0.0,0.0,0.0,0.0,0.0,0.0,0.0,0.0,0.0,0.0,0.0,0.0,0.0,0.0,-3.4947,-3.5268,-3.5268,-3.5268,-3.5268,-3.5268,-3.5938,-3.6266,-3.6157,-3.6808,-3.7346,-3.7761,-3.788,-3.788,-3.7986,-3.8058,-3.8094,-3.8011,-3.8683,-3.8924,-3.8972,-3.9501,-3.9717,-3.9717,-3.9789,-4.0102,-4.0499,-4.0499,-4.0787,-4.1184,-4.1184,-4.1184,-4.1184,-4.1184,-4.1184,-4.1184,-4.1184,-4.1184,-4.1184,-4.1184,-4.1184,-4.1184,-4.1184,-4.1184,-4.1184,-4.1184,-4.1184,-4.1184,-4.1184,-4.1184,-4.1184,-4.1184,-4.1184,-4.1184,-4.1184,-4.139,-4.1606,-4.1606,-4.1859,-4.2098,-4.2413,-4.2413,-4.2525,-4.2862,-4.2974,-4.2974,-4.2974,-4.2974,-4.2974,-4.2974,-4.2974,-4.2974,-4.2974,-4.2974,-4.2974,-4.2974,-4.2974,-4.2974,-4.2974,-4.2974,-4.2974,-4.2974,-4.2974,-4.2974,0.0,0.0,0.0,0.0,0.0,0.0,0.0,0.0,0.0,0.0,0.0,0.0,0.0,0.0,0.0,0.0,0.0,0.0,0.0,0.0,0.0,0.0,0.0,0.0,0.0,0.0,0.0,0.0,-3.4736,-3.5058,-3.5367,-3.5058,-3.5168,-3.5927,-3.6157,-3.6483,-3.67,-3.7346,-3.7773,-3.7986,-3.7986,-3.7986,-3.7986,-3.7986,-3.7986,-3.7998,-3.8238,-3.8346,-3.8395,-3.8936,-3.9164,-3.92,-3.9489,-3.9741,-3.9958,-3.9958,-4.0282,-4.0739,-4.0739,-4.0944,-4.1184,-4.1184,-4.1184,-4.1184,-4.1184,-4.1184,-4.1184,-4.1184,-4.1184,-4.1184,-4.1184,-4.1184,-4.1184,-4.1184,-4.1184,-4.1299,-4.139,-4.139,-4.1504,-4.1643,-4.1643,-4.1643,-4.1643,-4.1745,-4.196,-4.2061,-4.2187,-4.2425,-4.275,-4.275,-4.2862,-4.2974,-4.2974,-4.2974,-4.2974,-4.2974,-4.2974,-4.2974,-4.2974,-4.2974,-4.2974,-4.2974,-4.2974,-4.2974,-4.2974,-4.2974,-4.2974,-4.2974,-4.2974,-4.2974,-4.2974,-4.2974,0.0,0.0,0.0,0.0,0.0,0.0,0.0,0.0,0.0,0.0,0.0,0.0,0.0,0.0,0.0,0.0,0.0,0.0,0.0,0.0,0.0,0.0,0.0,0.0,0.0,0.0,0.0,0.0,-3.4736,-3.5279,-3.5916,-3.5488,-3.5708,-3.6796,-3.6796,-3.6904,-3.7131,-3.7667,-3.7986,-3.7986,-3.7986,-3.7986,-3.7986,-3.7986,-3.7986,-3.7986,-3.7986,-3.7986,-3.801,-3.8431,-3.8611,-3.8647,-3.9044,-3.9284,-3.9405,-3.9405,-3.9741,-4.0198,-4.0198,-4.0451,-4.0775,-4.0775,-4.0775,-4.0775,-4.0775,-4.0872,-4.0992,-4.0992,-4.1076,-4.1184,-4.1184,-4.1299,-4.1287,-4.1287,-4.1414,-4.1402,-4.1606,-4.172,-4.1846,-4.2098,-4.211,-4.211,-4.211,-4.2211,-4.2312,-4.2525,-4.2525,-4.275,-4.2974,-4.2974,-4.2974,-4.2974,-4.2974,-4.2974,-4.2974,-4.2974,-4.2974,-4.2974,-4.2974,-4.2974,-4.2974,-4.2974,-4.2974,-4.2974,-4.2974,-4.2974,-4.2974,-4.2974,-4.2974,-4.2974,-4.2974,-4.2974,0.0,0.0,0.0,0.0,0.0,0.0,0.0,0.0,0.0,0.0,0.0,0.0,0.0,0.0,0.0,0.0,0.0,0.0,0.0,0.0,0.0,0.0,0.0,0.0,0.0,0.0,0.0,0.0,-3.5609,-3.658,-3.7299,-3.712,-3.7334,-3.8255,-3.8255,-3.795,-3.7131,-3.7667,-3.7986,-3.7986,-3.7986,-3.7986,-3.7986,-3.7986,-3.7986,-3.7986,-3.7986,-3.7986,-3.7986,-3.801,-3.8022,-3.8022,-3.8058,-3.8395,-3.8864,-3.8864,-3.92,-3.9645,-3.9645,-3.9669,-3.9681,-3.9681,-3.9681,-3.9681,-3.9681,-4.0042,-4.0439,-4.0439,-4.08,-4.1184,-4.1184,-4.139,-4.1606,-4.1606,-4.1859,-4.1984,-4.172,-4.1859,-4.2098,-4.211,-4.211,-4.211,-4.211,-4.2312,-4.2525,-4.2525,-4.275,-4.2974,-4.2974,-4.2974,-4.2974,-4.2974,-4.2974,-4.2974,-4.2974,-4.2974,-4.2974,-4.2974,-4.2974,-4.2974,-4.2974,-4.2974,-4.2974,-4.2974,-4.2974,-4.2974,-4.2974,-4.2974,-4.2974,-4.2974,-4.2974,-4.2974,0.0,0.0,0.0,0.0,0.0,0.0,0.0,0.0,0.0,0.0,0.0,0.0,0.0,0.0,0.0,0.0,0.0,0.0,0.0,0.0,0.0,0.0,0.0,0.0,0.0,0.0,0.0,0.0,0.0,-3.6352,-3.7749,-3.7536,-3.7643,-3.8185,-3.8779,-3.8884,-3.8489,-3.8185,-3.7986,-3.7986,-3.7986,-3.7986,-3.7986,-3.7986,-3.7986,-3.7986,-3.7986,-3.7986,-3.7986,-3.7986,-3.7986,-3.7986,-3.7986,-3.8106,-3.8286,-3.8286,-3.8635,-3.9104,-3.9104,-3.932,-3.9609,-3.9609,-3.9609,-3.9609,-3.9609,-3.9741,-3.9886,-3.9886,-4.027,-4.0679,-4.0882,-4.1237,-4.1606,-4.1859,-4.2199,-4.23,-4.2174,-4.23,-4.2425,-4.265,-4.265,-4.265,-4.265,-4.2762,-4.2862,-4.2862,-4.2974,-4.2974,-4.2974,-4.2974,-4.2974,-4.2974,-4.2974,-4.2974,-4.2974,-4.2974,-4.2974,-4.2974,-4.2974,-4.2974,-4.2974,-4.2974,-4.2974,-4.2974,-4.2974,-4.2974,-4.2974,-4.2974,-4.2974,-4.2974,-4.2974,-4.2974,-1.9342,0.0,0.0,0.0,0.0,0.0,0.0,0.0,0.0,0.0,0.0,0.0,0.0,0.0,0.0,0.0,0.0,0.0,0.0,0.0,0.0,0.0,0.0,0.0,0.0,0.0,0.0,0.0,0.0,0.0,-3.8,-3.8209,-3.8491,-3.9208,-3.9609,-3.9815,-3.9622,-3.8804,-3.8291,-3.7986,-3.7986,-3.7986,-3.7986,-3.7986,-3.7986,-3.7986,-3.7986,-3.7986,-3.7986,-3.7986,-3.7986,-3.7986,-3.7986,-3.7986,-3.7986,-3.7986,-3.8214,-3.8539,-3.8539,-3.8767,-3.9068,-3.9068,-3.9068,-3.9068,-3.9068,-3.92,-3.9345,-3.9345,-3.9828,-4.0374,-4.0767,-4.1318,-4.1948,-4.2312,-4.2538,-4.2638,-4.2638,-4.2638,-4.275,-4.2974,-4.2974,-4.2974,-4.2974,-4.2974,-4.2974,-4.2974,-4.2974,-4.2974,-4.2974,-4.2974,-4.2974,-4.2974,-4.2974,-4.2974,-4.2974,-4.2974,-4.2974,-4.2974,-4.2974,-4.2974,-4.2974,-4.2974,-4.2974,-4.2974,-4.2974,-4.2974,-4.2974,-4.2974,-4.2974,-4.2974,-4.2974,-4.2974,0.0,0.0,0.0,0.0,0.0,0.0,0.0,0.0,0.0,0.0,0.0,0.0,0.0,0.0,0.0,0.0,0.0,0.0,0.0,0.0,0.0,0.0,0.0,0.0,0.0,0.0,0.0,0.0,-3.722,-3.7967,-3.8314,-3.9082,-4.0262,-4.1644,-4.0818,-4.0401,-4.0414,-3.9622,-3.8816,-3.8092,-3.7986,-3.7986,-3.7986,-3.7986,-3.7986,-3.7986,-3.7986,-3.7986,-3.7986,-3.7986,-3.7986,-3.7986,-3.7986,-3.7986,-3.7986,-3.7986,-3.7986,-3.7986,-3.7986,-3.7986,-3.7986,-3.7986,-3.7986,-3.7986,-3.7986,-3.8359,-3.8791,-3.8791,-3.937,-4.0111,-4.0658,-4.1656,-4.2638,-4.2974,-4.2974,-4.2974,-4.2974,-4.2974,-4.2974,-4.2974,-4.2974,-4.2974,-4.2974,-4.2974,-4.2974,-4.2974,-4.2974,-4.2974,-4.2974,-4.2974,-4.2974,-4.2974,-4.2974,-4.2974,-4.2974,-4.2974,-4.2974,-4.2974,-4.2974,-4.2974,-4.2974,-4.2974,-4.2974,-4.2974,-4.2974,-4.2974,-4.2974,-4.2974,-4.2974,-4.2974,-4.2974,-4.2974,-1.8097,0.0,0.0,0.0,0.0,0.0,0.0,0.0,0.0,0.0,0.0,0.0,0.0,0.0,0.0,0.0,0.0,0.0,0.0,0.0,0.0,0.0,0.0,0.0,0.0,0.0,0.0,0.0,-3.8092,-3.8199,-3.909,-3.9017,-3.9862,-4.1839,-4.0546,-4.0343,-4.1372,-3.9943,-3.9117,-3.8908,-3.8291,-3.7986,-3.7986,-3.7986,-3.7986,-3.7986,-3.7986,-3.7986,-3.7986,-3.7986,-3.7986,-3.7986,-3.7986,-3.7986,-3.7986,-3.7986,-3.7986,-3.7986,-3.7986,-3.7986,-3.7986,-3.7986,-3.7986,-3.7986,-3.7986,-3.8082,-3.8214,-3.8214,-3.8802,-3.9745,-4.1127,-4.2115,-4.2862,-4.2974,-4.2974,-4.2974,-4.2974,-4.2974,-4.2974,-4.2974,-4.2974,-4.2974,-4.2974,-4.2974,-4.2974,-4.2974,-4.2974,-4.2974,-4.2974,-4.2974,-4.2974,-4.2974,-4.2974,-4.2974,-4.2974,-4.2974,-4.2974,-4.2974,-4.2974,-4.2974,-4.2974,-4.2974,-4.2974,-4.2974,-4.2974,-4.2974,-4.2974,-4.2974,-4.2974,-4.2974,-4.2974,-4.2974,-1.884,0.0,0.0,0.0,0.0,0.0,0.0,0.0,0.0,0.0,0.0,0.0,0.0,0.0,0.0,0.0,0.0,0.0,0.0,0.0,0.0,0.0,0.0,0.0,0.0,-3.7044,-3.733,-3.899,-3.8699,-3.8812,-3.9747,-3.9129,-3.962,-4.1531,-4.0292,-3.9973,-4.082,-3.9726,-3.9013,-3.8699,-3.8185,-3.7986,-3.7986,-3.7986,-3.7986,-3.7986,-3.7986,-3.7986,-3.7986,-3.7986,-3.7986,-3.7986,-3.7986,-3.7986,-3.7986,-3.7986,-3.7986,-3.7986,-3.7986,-3.7986,-3.7986,-3.7986,-3.7986,-3.7974,-3.8092,-3.8198,-3.8198,-3.8303,-3.8904,-3.9836,-4.1146,-4.2111,-4.2685,-4.2924,-4.2974,-4.2974,-4.2974,-4.2974,-4.2974,-4.2974,-4.2974,-4.2974,-4.2974,-4.2974,-4.2974,-4.2974,-4.2974,-4.2974,-4.2974,-4.2974,-4.2974,-4.2974,-4.2974,-4.2974,-4.2974,-4.2974,-4.2974,-4.2974,-4.2974,-4.2974,-4.2974,-4.2974,-4.2974,-4.2974,-4.2974,-4.2974,-4.2974,-4.2974,-4.2974,-4.2974,-4.2974,-4.2974,0.0,0.0,0.0,0.0,0.0,0.0,-2.4234,-2.494,0.0,0.0,0.0,0.0,0.0,0.0,0.0,0.0,0.0,0.0,0.0,0.0,0.0,0.0,0.0,0.0,-3.8339,-3.7912,-3.7834,-3.8589,-3.9038,-3.9522,-4.0051,-3.9265,-3.9498,-4.0829,-4.0145,-3.9651,-3.953,-3.9372,-3.8822,-3.7995,-3.8056,-3.7986,-3.7986,-3.7986,-3.7986,-3.7986,-3.7986,-3.7986,-3.7986,-3.7986,-3.7986,-3.7986,-3.7986,-3.7986,-3.7986,-3.7986,-3.7986,-3.7986,-3.7986,-3.7986,-3.8092,-3.7986,-3.8092,-3.8092,-3.8303,-3.8409,-3.8514,-3.8736,-3.9445,-4.0296,-4.1009,-4.1656,-4.2208,-4.2748,-4.2886,-4.2898,-4.2961,-4.2974,-4.2974,-4.2974,-4.2974,-4.2974,-4.2974,-4.2974,-4.2974,-4.2974,-4.2974,-4.2974,-4.2974,-4.2974,-4.2974,-4.2974,-4.2974,-4.2974,-4.2974,-4.2974,-4.2974,-4.2974,-4.2974,-4.2974,-4.2974,-4.2974,-4.2974,-4.2974,-4.2974,-4.2974,-4.2974,-4.2974,-4.2974,-4.2974,-4.2974,-4.2974,0.0,0.0,0.0,0.0,0.0,0.0,-2.2015,-2.3063,0.0,0.0,0.0,0.0,0.0,0.0,0.0,0.0,0.0,0.0,0.0,0.0,0.0,0.0,0.0,0.0,-3.8006,-3.8222,-3.8512,-3.9087,-3.9216,-3.9346,-3.9468,-3.9307,-3.9318,-3.9508,-3.9906,-3.9719,-3.9038,-3.9405,-3.9083,-3.837,-3.8085,-3.7986,-3.7986,-3.7986,-3.7986,-3.7986,-3.7986,-3.7986,-3.7986,-3.7986,-3.7986,-3.7986,-3.7986,-3.7986,-3.7986,-3.7986,-3.7986,-3.7986,-3.7986,-3.8092,-3.8303,-3.8092,-3.8303,-3.8631,-3.8409,-3.8526,-3.8736,-3.9154,-3.9655,-4.0209,-4.0533,-4.1078,-4.163,-4.2183,-4.2321,-4.2434,-4.2886,-4.2974,-4.2974,-4.2974,-4.2974,-4.2974,-4.2974,-4.2974,-4.2974,-4.2974,-4.2974,-4.2974,-4.2974,-4.2974,-4.2974,-4.2974,-4.2974,-4.2974,-4.2974,-4.2974,-4.2974,-4.2974,-4.2974,-4.2974,-4.2974,-4.2974,-4.2974,-4.2974,-4.2974,-4.2974,-4.2974,-4.2974,-4.2974,-4.2974,-4.2974,-4.2974,0.0,0.0,0.0,-2.3475,0.0,0.0,0.0,0.0,0.0,0.0,0.0,0.0,0.0,0.0,0.0,0.0,0.0,0.0,0.0,0.0,0.0,0.0,0.0,0.0,-3.7663,-3.789,-3.822,-3.8817,-3.8857,-3.8993,-3.9278,-3.8935,-3.8889,-3.9184,-3.87,-3.8424,-3.8364,-3.8128,-3.7938,-3.78,-3.7665,-3.7733,-3.7986,-3.7986,-3.7986,-3.7986,-3.7986,-3.7986,-3.7986,-3.7986,-3.7986,-3.7986,-3.7986,-3.7986,-3.7986,-3.7986,-3.7986,-3.7986,-3.8198,-3.8303,-3.8409,-3.8409,-3.8619,-3.8841,-3.8841,-3.905,-3.927,-3.9478,-3.9678,-3.9952,-4.045,-4.0727,-4.1065,-4.1618,-4.1743,-4.1907,-4.2446,-4.2572,-4.2647,-4.2924,-4.2974,-4.2974,-4.2974,-4.2974,-4.2974,-4.2974,-4.2974,-4.2974,-4.2974,-4.2974,-4.2974,-4.2974,-4.2974,-4.2974,-4.2974,-4.2974,-4.2974,-4.2974,-4.2974,-4.2974,-4.2974,-4.2974,-4.2974,-4.2974,-4.2974,-4.2974,-4.2974,-4.2974,-4.2974,-4.2974,-4.2974,-4.2974,0.0,0.0,0.0,0.0,0.0,-2.5516,0.0,0.0,0.0,0.0,0.0,0.0,0.0,0.0,0.0,0.0,0.0,0.0,0.0,0.0,0.0,0.0,0.0,0.0,0.0,-3.7175,-3.7473,-3.8193,-3.803,-3.826,-3.9088,-3.8582,-3.8456,-3.9114,-3.7868,-3.726,-3.7502,-3.6974,-3.6763,-3.6892,-3.7096,-3.7421,-3.7829,-3.7938,-3.7986,-3.7986,-3.7986,-3.7986,-3.7986,-3.7986,-3.7986,-3.7986,-3.7986,-3.7986,-3.7986,-3.8092,-3.8092,-3.8092,-3.8409,-3.8514,-3.8631,-3.8736,-3.8841,-3.8945,-3.927,-3.9478,-3.9697,-3.9697,-3.9697,-3.9798,-4.0237,-4.0362,-4.0501,-4.1053,-4.1266,-4.1492,-4.2032,-4.2233,-4.2446,-4.2886,-4.2974,-4.2974,-4.2974,-4.2974,-4.2974,-4.2974,-4.2974,-4.2974,-4.2974,-4.2974,-4.2974,-4.2974,-4.2974,-4.2974,-4.2974,-4.2974,-4.2974,-4.2974,-4.2974,-4.2974,-4.2974,-4.2974,-4.2974,-4.2974,-4.2974,-4.2974,-4.2974,-4.2974,-4.2974,-4.2974,-4.2974,-4.2974,0.0,0.0,0.0,0.0,-2.7201,0.0,0.0,0.0,-2.7119,0.0,0.0,0.0,0.0,0.0,0.0,0.0,0.0,0.0,0.0,0.0,0.0,0.0,0.0,0.0,0.0,-3.5927,-3.6402,-3.7555,-3.6632,-3.6754,-3.8423,-3.8431,-3.8397,-3.8368,-3.8809,-3.8096,-3.6243,-3.7177,-3.7092,-3.5809,-3.6747,-3.7228,-3.73,-3.7769,-3.7986,-3.7986,-3.7986,-3.7986,-3.7986,-3.7986,-3.7986,-3.7986,-3.7986,-3.7986,-3.7986,-3.8303,-3.8303,-3.8409,-3.8631,-3.8945,-3.9154,-3.8841,-3.905,-3.927,-3.9581,-3.9697,-3.9697,-3.9697,-3.9697,-3.971,-3.9772,-3.9785,-3.9923,-4.0475,-4.0978,-4.1492,-4.2032,-4.2534,-4.2898,-4.2974,-4.2974,-4.2974,-4.2974,-4.2974,-4.2974,-4.2974,-4.2974,-4.2974,-4.2974,-4.2974,-4.2974,-4.2974,-4.2974,-4.2974,-4.2974,-4.2974,-4.2974,-4.2974,-4.2974,-4.2974,-4.2974,-4.2974,-4.2974,-4.2974,-4.2974,-4.2974,-4.2974,-4.2974,-4.2974,-4.2974,-4.2974,-4.2974,0.0,0.0,0.0,0.0,0.0,0.0,-2.6442,0.0,-2.7352,0.0,0.0,0.0,0.0,0.0,0.0,0.0,0.0,0.0,0.0,0.0,0.0,0.0,0.0,0.0,0.0,0.0,0.0,0.0,-3.5493,-3.5832,-3.7284,-3.803,-3.8169,-3.7698,-3.7924,-3.7348,-3.5966,-3.6093,-3.5893,-3.5629,-3.6062,-3.6603,-3.7204,-3.7421,-3.7697,-3.7986,-3.7986,-3.8092,-3.8198,-3.8198,-3.8303,-3.8409,-3.8409,-3.8409,-3.8303,-3.8514,-3.8631,-3.8631,-3.8945,-3.9154,-3.9258,-3.927,-3.9374,-3.9581,-3.9697,-3.9697,-3.9697,-3.9697,-3.9697,-3.9697,-3.9697,-3.9697,-3.9747,-3.9986,-4.0463,-4.1015,-4.1568,-4.2108,-4.2597,-4.2911,-4.2974,-4.2974,-4.2974,-4.2974,-4.2974,-4.2974,-4.2974,-4.2974,-4.2974,-4.2974,-4.2974,-4.2974,-4.2974,-4.2974,-4.2974,-4.2974,-4.2974,-4.2974,-4.2974,-4.2974,-4.2974,-4.2974,-4.2974,-4.2974,-4.2974,-4.2974,-4.2974,-4.2974,-4.2974,-4.2974,-4.2974,-4.2974,-2.8257,0.0,0.0,0.0,0.0,0.0,0.0,0.0,0.0,0.0,0.0,0.0,0.0,0.0,0.0,0.0,0.0,0.0,0.0,0.0,0.0,0.0,0.0,0.0,0.0,0.0,0.0,0.0,0.0,-3.4597,-3.6266,-3.702,-3.7464,-3.7595,-3.7092,-3.673,-3.6332,-3.5488,-3.5211,-3.54,-3.5545,-3.6014,-3.6771,-3.706,-3.7409,-3.7875,-3.8031,-3.8303,-3.8526,-3.8526,-3.8631,-3.8841,-3.8945,-3.8841,-3.8631,-3.8841,-3.8945,-3.8945,-3.9258,-3.9374,-3.9478,-3.9594,-3.9697,-3.9697,-3.9697,-3.9697,-3.9697,-3.9697,-3.9697,-3.9697,-3.9697,-3.9697,-3.9735,-3.9885,-4.0337,-4.089,-4.1442,-4.1995,-4.2497,-4.2898,-4.2974,-4.2974,-4.2974,-4.2974,-4.2974,-4.2974,-4.2974,-4.2974,-4.2974,-4.2974,-4.2974,-4.2974,-4.2974,-4.2974,-4.2974,-4.2974,-4.2974,-4.2974,-4.2974,-4.2974,-4.2974,-4.2974,-4.2974,-4.2974,-4.2974,-4.2974,-4.2974,-4.2974,-4.2974,-4.2974,-4.2974,-4.2974,0.0,0.0,0.0,-2.8291,0.0,0.0,0.0,0.0,-2.9,0.0,0.0,0.0,0.0,0.0,-2.9428,-2.9442,0.0,0.0,0.0,0.0,0.0,0.0,0.0,0.0,0.0,0.0,0.0,0.0,0.0,0.0,-3.5588,-3.5112,-3.5925,-3.8269,-3.7061,-3.6598,-3.7057,-3.6332,-3.5596,-3.4859,-3.5376,-3.5629,-3.5701,-3.6723,-3.7308,-3.7667,-3.819,-3.8526,-3.8736,-3.8736,-3.8736,-3.8841,-3.9154,-3.927,-3.9258,-3.927,-3.9258,-3.9362,-3.9581,-3.9697,-3.9697,-3.9697,-3.9697,-3.9697,-3.9697,-3.9697,-3.9697,-3.9697,-3.9697,-3.9697,-3.9697,-3.9697,-3.9823,-4.0362,-4.0915,-4.1467,-4.2007,-4.2559,-4.2949,-4.2974,-4.2974,-4.2974,-4.2974,-4.2974,-4.2974,-4.2974,-4.2974,-4.2974,-4.2974,-4.2974,-4.2974,-4.2974,-4.2974,-4.2974,-4.2974,-4.2974,-4.2974,-4.2974,-4.2974,-4.2974,-4.2974,-4.2974,-4.2974,-4.2974,-4.2974,-4.2974,-4.2974,-4.2974,-4.2974,-4.2974,-4.2974,-4.2974,0.0,0.0,-3.4288,-3.1008,0.0,0.0,0.0,0.0,0.0,0.0,0.0,0.0,0.0,0.0,0.0,-2.9536,-2.9482,0.0,0.0,0.0,0.0,0.0,0.0,0.0,0.0,0.0,0.0,0.0,-3.1517,0.0,0.0,-3.442,-3.4997,-3.5709,-3.5672,-3.5581,-3.5571,-3.5295,-3.5114,-3.4823,-3.5004,-3.5379,-3.584,-3.6654,-3.7278,-3.7861,-3.8399,-3.8841,-3.9154,-3.9154,-3.927,-3.9374,-3.9478,-3.9581,-3.9581,-3.9581,-3.9581,-3.9581,-3.9697,-3.9697,-3.9697,-3.9697,-3.9697,-3.9697,-3.9697,-3.9697,-3.9697,-3.9697,-3.9697,-3.9697,-3.9697,-3.9697,-3.9835,-4.0388,-4.094,-4.1492,-4.2032,-4.2585,-4.2974,-4.2974,-4.2974,-4.2974,-4.2974,-4.2974,-4.2974,-4.2974,-4.2974,-4.2974,-4.2974,-4.2974,-4.2974,-4.2974,-4.2974,-4.2974,-4.2974,-4.2974,-4.2974,-4.2974,-4.2974,-4.2974,-4.2974,-4.2974,-4.2974,-4.2974,-4.2974,-4.2974,-4.2974,-4.2974,-4.2974,-4.2974,-4.2974,-4.2974,-3.4281,-3.5391,0.0,-3.2954,-3.2537,0.0,-2.9107,0.0,-3.0902,0.0,0.0,0.0,0.0,0.0,0.0,-3.0473,-2.9903,0.0,0.0,-2.6837,0.0,0.0,0.0,0.0,0.0,0.0,-2.9211,-3.0853,0.0,0.0,0.0,0.0,-3.3965,-3.4433,-3.4491,-3.4764,-3.5199,-3.492,-3.4823,-3.492,-3.492,-3.5296,-3.5868,-3.6588,-3.7314,-3.7873,-3.8625,-3.9154,-3.9478,-3.9478,-3.9581,-3.9697,-3.9697,-3.9697,-3.9697,-3.9697,-3.9697,-3.9697,-3.9697,-3.9697,-3.9697,-3.9697,-3.9697,-3.9697,-3.9697,-3.9697,-3.9697,-3.9697,-3.9697,-3.9697,-3.9697,-3.9697,-3.9885,-4.0626,-4.1078,-4.1543,-4.2283,-4.2735,-4.2974,-4.2974,-4.2974,-4.2974,-4.2974,-4.2974,-4.2974,-4.2974,-4.2974,-4.2974,-4.2974,-4.2974,-4.2974,-4.2974,-4.2974,-4.2974,-4.2974,-4.2974,-4.2974,-4.2974,-4.2974,-4.2974,-4.2974,-4.2974,-4.2974,-4.2974,-4.2974,-4.2974,-4.2974,-4.2974,-4.2974,-4.2974,-4.3406,-4.3615]},{"header":{"parameterUnit":"m.s-1","parameterCategory":1,"la1":30.6,"la2":29.2853,"lo1":-89.7004,"lo2":-87.6739,"dy":0.0162,"dx":0.0183,"nx":112,"ny":82,"refTime":"2025-05-16T12:00:00:Z","depth":0,"parameterNumber":3,"parameterNumberName":"V-component_of_WINDS"},"data":[0.0,0.0,0.0,0.0,0.0,0.0,0.0,0.0,0.0,0.0,0.0,0.0,0.0,0.0,0.0,0.0,0.0,0.0,0.0,0.0,0.0,0.0,0.0,0.0,0.0,0.0,0.0,0.0,0.0,0.0,0.0,0.0,0.0,0.0,0.0,0.0,0.0,0.0,0.0,0.0,0.0,0.0,0.0,0.0,0.0,0.0,0.0,0.0,0.0,0.0,0.0,0.0,0.0,0.0,0.0,0.0,0.0,0.0,0.0,0.0,0.0,0.0,0.0,0.0,0.0,0.0,0.0,0.0,0.0,0.0,0.0,0.0,0.0,0.0,0.0,0.0,0.0,0.0,0.0,0.0,0.0,0.0,0.0,0.0,0.0,0.0,0.0,0.0,0.0,0.0,-3.8137,-4.1246,-4.3967,-4.5357,-4.4787,-4.334,-4.1078,-3.7861,0.0,0.0,0.0,0.0,0.0,0.0,0.0,0.0,0.0,0.0,0.0,0.0,0.0,0.0,0.0,0.0,0.0,0.0,0.0,0.0,0.0,0.0,0.0,0.0,0.0,0.0,0.0,0.0,0.0,0.0,0.0,0.0,0.0,0.0,0.0,0.0,0.0,0.0,0.0,0.0,0.0,0.0,0.0,0.0,0.0,0.0,0.0,0.0,0.0,0.0,0.0,0.0,0.0,0.0,0.0,0.0,0.0,0.0,0.0,0.0,0.0,0.0,0.0,0.0,0.0,0.0,0.0,0.0,0.0,0.0,0.0,0.0,0.0,0.0,0.0,0.0,0.0,0.0,0.0,0.0,0.0,0.0,0.0,0.0,0.0,0.0,0.0,0.0,0.0,0.0,0.0,0.0,0.0,0.0,0.0,0.0,0.0,0.0,0.0,0.0,0.0,0.0,0.0,0.0,-3.8982,-4.358,-4.5018,-4.5541,-4.5449,-4.3171,-4.0786,-3.8492,0.0,0.0,0.0,0.0,0.0,0.0,0.0,0.0,0.0,0.0,0.0,0.0,0.0,0.0,0.0,0.0,0.0,0.0,0.0,0.0,0.0,0.0,0.0,0.0,0.0,0.0,0.0,0.0,0.0,0.0,0.0,0.0,0.0,0.0,0.0,0.0,0.0,0.0,0.0,0.0,0.0,0.0,0.0,0.0,0.0,0.0,0.0,0.0,0.0,0.0,0.0,0.0,0.0,0.0,0.0,0.0,0.0,0.0,0.0,0.0,0.0,0.0,0.0,0.0,0.0,0.0,0.0,0.0,0.0,0.0,0.0,0.0,0.0,0.0,0.0,0.0,0.0,0.0,0.0,0.0,0.0,0.0,0.0,0.0,0.0,0.0,0.0,0.0,0.0,0.0,0.0,0.0,0.0,0.0,0.0,0.0,0.0,0.0,0.0,0.0,0.0,0.0,0.0,-3.8764,-4.1028,-4.5758,-4.6172,-4.6126,-4.6126,-4.334,-4.0709,-3.8646,-3.6553,0.0,0.0,0.0,0.0,0.0,0.0,0.0,0.0,0.0,0.0,0.0,0.0,0.0,0.0,0.0,0.0,0.0,0.0,0.0,0.0,0.0,0.0,0.0,0.0,0.0,0.0,0.0,0.0,0.0,0.0,0.0,0.0,0.0,0.0,0.0,0.0,0.0,0.0,0.0,0.0,0.0,0.0,0.0,0.0,0.0,0.0,0.0,0.0,0.0,0.0,0.0,0.0,0.0,0.0,0.0,0.0,0.0,0.0,0.0,0.0,0.0,0.0,0.0,0.0,0.0,0.0,0.0,0.0,0.0,0.0,0.0,0.0,0.0,0.0,0.0,0.0,0.0,0.0,0.0,0.0,0.0,0.0,0.0,0.0,0.0,0.0,0.0,0.0,0.0,0.0,0.0,0.0,0.0,0.0,0.0,0.0,0.0,0.0,0.0,0.0,0.0,0.0,-4.1635,-4.3283,-4.7157,-4.7004,-4.6603,-4.6603,-4.3371,-4.0539,-3.8631,-3.566,0.0,0.0,0.0,0.0,0.0,0.0,0.0,0.0,0.0,0.0,0.0,0.0,0.0,0.0,0.0,0.0,0.0,0.0,0.0,0.0,0.0,0.0,0.0,0.0,0.0,0.0,0.0,0.0,0.0,0.0,0.0,0.0,0.0,0.0,0.0,0.0,0.0,0.0,0.0,0.0,0.0,0.0,0.0,0.0,0.0,0.0,0.0,0.0,0.0,0.0,0.0,0.0,0.0,0.0,0.0,0.0,0.0,0.0,0.0,0.0,0.0,0.0,0.0,0.0,0.0,0.0,0.0,0.0,0.0,0.0,0.0,0.0,0.0,0.0,0.0,0.0,0.0,0.0,0.0,0.0,0.0,0.0,0.0,0.0,0.0,0.0,0.0,0.0,0.0,0.0,0.0,0.0,0.0,0.0,0.0,0.0,0.0,0.0,0.0,0.0,0.0,0.0,-4.2326,-4.5141,-4.7373,-4.7004,-4.6603,-4.6603,-4.291,-4.0001,-3.86,-3.4752,0.0,0.0,0.0,0.0,0.0,0.0,0.0,0.0,0.0,0.0,0.0,0.0,0.0,0.0,0.0,0.0,0.0,0.0,0.0,0.0,0.0,0.0,0.0,0.0,0.0,0.0,0.0,0.0,0.0,0.0,0.0,0.0,0.0,0.0,0.0,0.0,0.0,0.0,0.0,0.0,0.0,0.0,0.0,0.0,0.0,0.0,0.0,0.0,0.0,0.0,0.0,0.0,0.0,0.0,0.0,0.0,0.0,0.0,0.0,0.0,0.0,0.0,0.0,0.0,0.0,0.0,0.0,0.0,0.0,0.0,0.0,0.0,0.0,0.0,0.0,0.0,0.0,0.0,0.0,0.0,0.0,0.0,0.0,0.0,0.0,0.0,0.0,0.0,0.0,0.0,0.0,0.0,0.0,0.0,0.0,0.0,0.0,0.0,0.0,0.0,0.0,0.0,-4.2311,-4.4708,0.0,-4.725,-4.6603,-4.6603,-4.3279,-4.0432,-3.8616,0.0,0.0,0.0,0.0,0.0,0.0,0.0,0.0,0.0,0.0,0.0,0.0,0.0,0.0,0.0,0.0,0.0,0.0,0.0,0.0,0.0,0.0,0.0,0.0,0.0,0.0,0.0,0.0,0.0,0.0,0.0,0.0,0.0,0.0,0.0,0.0,0.0,0.0,0.0,0.0,0.0,0.0,0.0,0.0,0.0,0.0,0.0,0.0,0.0,0.0,0.0,0.0,0.0,0.0,0.0,0.0,0.0,0.0,0.0,0.0,0.0,0.0,0.0,0.0,0.0,0.0,0.0,0.0,0.0,0.0,0.0,0.0,0.0,0.0,0.0,0.0,0.0,0.0,0.0,0.0,0.0,0.0,0.0,0.0,0.0,0.0,0.0,0.0,0.0,0.0,0.0,0.0,0.0,0.0,0.0,0.0,0.0,0.0,0.0,0.0,0.0,0.0,-4.0462,-4.2607,-4.5031,0.0,-4.7404,-4.6667,-4.6967,-4.3256,-4.0315,-3.8911,0.0,0.0,0.0,0.0,0.0,0.0,0.0,0.0,0.0,0.0,0.0,0.0,0.0,0.0,0.0,0.0,0.0,0.0,0.0,0.0,0.0,0.0,0.0,0.0,0.0,0.0,0.0,0.0,0.0,0.0,0.0,0.0,0.0,0.0,0.0,0.0,0.0,0.0,0.0,0.0,0.0,0.0,0.0,0.0,0.0,0.0,0.0,0.0,0.0,0.0,0.0,0.0,0.0,0.0,0.0,0.0,0.0,0.0,0.0,0.0,0.0,0.0,0.0,0.0,0.0,0.0,0.0,0.0,0.0,0.0,0.0,0.0,0.0,0.0,0.0,0.0,0.0,0.0,0.0,0.0,0.0,0.0,0.0,0.0,0.0,0.0,0.0,0.0,0.0,0.0,0.0,0.0,0.0,0.0,0.0,0.0,0.0,0.0,0.0,0.0,0.0,0.0,-4.0006,-4.3428,-4.6372,-4.8404,-4.7404,-4.6904,-4.7615,-4.2661,-3.9548,0.0,0.0,0.0,0.0,0.0,0.0,0.0,0.0,0.0,0.0,0.0,0.0,0.0,0.0,0.0,0.0,0.0,0.0,0.0,0.0,0.0,0.0,0.0,0.0,0.0,0.0,0.0,0.0,0.0,0.0,0.0,0.0,0.0,0.0,0.0,0.0,0.0,0.0,0.0,0.0,0.0,0.0,0.0,0.0,0.0,0.0,0.0,0.0,0.0,0.0,0.0,0.0,0.0,0.0,0.0,0.0,0.0,0.0,0.0,0.0,0.0,0.0,0.0,0.0,0.0,0.0,0.0,0.0,0.0,0.0,0.0,0.0,0.0,0.0,0.0,0.0,0.0,0.0,0.0,0.0,0.0,0.0,0.0,0.0,0.0,0.0,0.0,0.0,0.0,0.0,0.0,0.0,0.0,0.0,0.0,0.0,0.0,0.0,0.0,0.0,0.0,0.0,0.0,-4.0729,-4.4142,-4.7055,-4.886,-4.832,-4.7683,-4.7433,-4.4118,-4.1091,-3.8976,0.0,0.0,0.0,0.0,0.0,0.0,0.0,0.0,0.0,0.0,0.0,0.0,0.0,0.0,0.0,0.0,0.0,0.0,0.0,0.0,0.0,0.0,0.0,0.0,0.0,0.0,0.0,0.0,0.0,0.0,0.0,0.0,0.0,0.0,0.0,0.0,0.0,0.0,0.0,0.0,0.0,0.0,0.0,0.0,0.0,0.0,0.0,0.0,0.0,0.0,0.0,0.0,0.0,0.0,0.0,0.0,0.0,0.0,0.0,0.0,0.0,0.0,0.0,0.0,0.0,0.0,0.0,0.0,0.0,0.0,0.0,0.0,0.0,0.0,0.0,0.0,0.0,0.0,0.0,0.0,0.0,0.0,0.0,0.0,0.0,0.0,0.0,0.0,0.0,0.0,0.0,0.0,0.0,0.0,0.0,0.0,0.0,0.0,0.0,0.0,0.0,0.0,-4.129,-4.4804,-4.7809,-4.9631,-4.919,-4.8726,-4.8519,-4.5352,-4.2325,-3.9945,0.0,0.0,0.0,0.0,0.0,0.0,0.0,0.0,0.0,0.0,0.0,0.0,0.0,0.0,0.0,0.0,0.0,0.0,0.0,0.0,0.0,0.0,0.0,0.0,0.0,0.0,0.0,0.0,0.0,0.0,0.0,0.0,0.0,0.0,0.0,0.0,0.0,0.0,0.0,0.0,0.0,0.0,0.0,0.0,0.0,0.0,0.0,0.0,0.0,0.0,0.0,0.0,0.0,0.0,0.0,0.0,0.0,0.0,0.0,0.0,0.0,0.0,0.0,0.0,0.0,0.0,0.0,0.0,0.0,0.0,0.0,0.0,0.0,0.0,0.0,0.0,0.0,0.0,0.0,0.0,0.0,0.0,0.0,0.0,0.0,0.0,0.0,0.0,0.0,0.0,0.0,0.0,0.0,0.0,0.0,0.0,0.0,0.0,0.0,0.0,0.0,0.0,-4.1836,-4.5508,-4.8624,-5.065,-5.0204,-4.988,-5.0189,-4.6575,-4.3522,-4.172,0.0,0.0,0.0,0.0,0.0,0.0,0.0,0.0,0.0,0.0,0.0,0.0,0.0,0.0,0.0,0.0,0.0,0.0,0.0,0.0,0.0,0.0,0.0,0.0,0.0,0.0,0.0,0.0,0.0,0.0,0.0,0.0,0.0,0.0,0.0,0.0,0.0,0.0,0.0,0.0,0.0,0.0,0.0,0.0,0.0,0.0,0.0,0.0,0.0,0.0,0.0,0.0,0.0,0.0,0.0,0.0,0.0,0.0,0.0,0.0,-3.9111,0.0,0.0,0.0,0.0,0.0,0.0,0.0,0.0,0.0,0.0,0.0,0.0,0.0,0.0,0.0,0.0,0.0,0.0,0.0,0.0,0.0,0.0,0.0,0.0,0.0,0.0,0.0,0.0,0.0,0.0,0.0,0.0,0.0,0.0,0.0,0.0,0.0,0.0,0.0,0.0,0.0,-4.2698,-4.6293,-4.9337,-5.1668,-5.1701,-5.118,-5.0033,-4.8514,-4.5728,-4.1103,-3.8219,0.0,0.0,0.0,0.0,0.0,0.0,0.0,0.0,0.0,0.0,0.0,0.0,0.0,0.0,0.0,0.0,0.0,0.0,0.0,0.0,0.0,0.0,0.0,0.0,0.0,0.0,0.0,0.0,0.0,0.0,0.0,0.0,0.0,0.0,0.0,0.0,0.0,0.0,0.0,0.0,0.0,0.0,0.0,0.0,0.0,0.0,0.0,0.0,0.0,0.0,0.0,0.0,0.0,0.0,0.0,0.0,0.0,0.0,0.0,0.0,-4.0663,0.0,0.0,0.0,0.0,0.0,0.0,0.0,0.0,0.0,0.0,0.0,0.0,0.0,0.0,0.0,0.0,0.0,0.0,0.0,0.0,0.0,0.0,0.0,0.0,0.0,0.0,0.0,0.0,0.0,0.0,0.0,0.0,0.0,0.0,0.0,0.0,0.0,0.0,0.0,0.0,-4.3211,-4.6673,-4.9661,-5.1861,-5.2026,-5.1361,-4.9912,-4.8707,-4.6206,-4.1881,-3.8994,0.0,0.0,0.0,0.0,0.0,0.0,0.0,0.0,0.0,0.0,0.0,0.0,0.0,0.0,0.0,0.0,0.0,0.0,0.0,0.0,0.0,0.0,0.0,0.0,0.0,0.0,0.0,0.0,0.0,0.0,0.0,0.0,0.0,0.0,0.0,0.0,0.0,0.0,0.0,0.0,0.0,0.0,0.0,0.0,0.0,0.0,0.0,0.0,0.0,0.0,0.0,0.0,0.0,-4.5427,-4.6534,-4.7836,-4.8496,-4.8871,-4.8817,-4.5552,-4.4553,-4.5071,-4.2983,0.0,0.0,0.0,0.0,0.0,0.0,0.0,0.0,0.0,0.0,0.0,0.0,0.0,0.0,0.0,0.0,0.0,0.0,0.0,0.0,0.0,0.0,0.0,0.0,-4.6165,-4.5941,-4.1354,0.0,0.0,0.0,0.0,0.0,0.0,0.0,0.0,0.0,0.0,0.0,-4.3842,-4.7196,-5.004,-5.1839,-5.18,-5.1103,-4.9826,-4.834,-4.6228,-4.3083,-3.995,-3.728,0.0,0.0,0.0,0.0,0.0,0.0,0.0,0.0,0.0,0.0,0.0,0.0,0.0,0.0,0.0,0.0,0.0,0.0,0.0,0.0,0.0,0.0,0.0,0.0,0.0,0.0,0.0,0.0,0.0,0.0,0.0,0.0,-3.1796,-3.3312,0.0,0.0,0.0,0.0,0.0,0.0,0.0,0.0,0.0,0.0,0.0,0.0,0.0,-4.3429,-4.4874,-4.7105,-4.8354,-4.8568,-5.0049,-5.0869,-5.1066,-5.1191,-5.1601,-5.2225,-5.1708,0.0,-4.764,-4.6623,0.0,0.0,0.0,0.0,0.0,0.0,0.0,0.0,0.0,0.0,0.0,0.0,0.0,0.0,0.0,0.0,0.0,0.0,0.0,0.0,0.0,0.0,-4.8959,-4.8355,-4.8907,-4.9183,0.0,-4.4458,-4.103,-3.8491,-3.7715,0.0,0.0,0.0,0.0,0.0,0.0,0.0,-4.5518,-4.8662,-5.1048,-5.2037,-5.1645,-5.0723,-4.9377,-4.8518,-4.6823,-4.3765,-4.1983,-4.0128,-3.8031,-3.5537,0.0,0.0,0.0,0.0,0.0,0.0,0.0,0.0,0.0,0.0,0.0,0.0,0.0,0.0,0.0,0.0,0.0,0.0,0.0,0.0,0.0,0.0,0.0,0.0,0.0,0.0,0.0,0.0,0.0,-3.1831,-3.3633,-3.5204,-3.4686,-3.4026,0.0,0.0,0.0,0.0,0.0,0.0,0.0,0.0,0.0,-4.4856,-4.6123,-4.7319,-4.8443,-5.0352,-5.153,-5.1976,-5.3118,-5.3903,-5.4331,-5.4331,-5.4527,-5.4866,-5.4866,-5.3813,-5.1993,-5.0316,-4.8206,-4.5896,0.0,0.0,0.0,0.0,-4.3463,-4.4051,-4.5148,-4.5924,-4.6234,-4.4613,0.0,0.0,0.0,0.0,0.0,0.0,0.0,0.0,0.0,0.0,-5.0752,-5.1269,-5.1977,-5.2321,-5.1563,-4.9476,-4.6562,0.0,-4.2578,-4.2164,-3.8784,0.0,0.0,0.0,0.0,-4.4109,-4.6323,-4.8842,-5.0781,-5.1541,-5.1165,-5.0147,-4.8609,-4.8019,-4.6529,-4.38,-4.2669,-4.1565,-4.0293,-3.7984,-3.6091,0.0,0.0,0.0,0.0,0.0,0.0,0.0,0.0,0.0,0.0,0.0,0.0,0.0,0.0,0.0,0.0,0.0,0.0,0.0,0.0,0.0,0.0,0.0,0.0,0.0,0.0,0.0,0.0,-3.4044,-3.581,-3.7148,-3.7131,-3.6649,0.0,0.0,0.0,0.0,0.0,0.0,-4.3679,-4.4749,-4.6284,-4.8425,-4.9817,-5.0905,-5.169,-5.3082,-5.4063,-5.4634,-5.5437,-5.6133,-5.6704,-5.69,-5.6989,-5.6989,-5.6989,-5.665,-5.5919,-5.335,-5.1251,-4.9558,-4.8746,-4.777,-4.6891,-4.737,-4.7665,-4.8028,-4.9689,-5.0287,-5.008,-4.8769,-4.8321,-4.7769,-4.4906,0.0,0.0,0.0,0.0,-4.7217,-4.9873,-5.1132,-5.2028,-5.3373,-5.4098,-5.4356,-5.3804,-5.3218,-5.1407,0.0,-4.6958,-4.6665,-4.2475,0.0,0.0,0.0,0.0,-4.5783,-4.7269,-4.9159,-5.051,-5.0816,-5.0381,-4.939,-4.7711,-4.7169,-4.6035,-4.4,-4.3217,-4.2633,-4.2125,-4.0124,-3.8477,-3.7292,0.0,0.0,0.0,0.0,0.0,0.0,0.0,0.0,0.0,0.0,0.0,0.0,0.0,0.0,0.0,0.0,0.0,0.0,0.0,0.0,0.0,0.0,0.0,0.0,0.0,0.0,0.0,0.0,0.0,-3.9646,-4.1038,0.0,0.0,0.0,0.0,-4.193,-4.4143,-4.6159,-4.78,-4.9317,-5.0905,-5.2529,-5.3367,-5.417,-5.4973,-5.5794,-5.624,-5.6294,-5.7079,-5.7489,-5.7543,-5.8274,-5.8595,-5.8595,-5.8595,-5.8577,-5.831,-5.5187,-5.2993,-5.1444,-5.0323,-4.9442,-4.8758,-4.901,-4.9524,-5.0215,-5.0811,-5.1045,-5.1287,-5.2632,-5.1632,-4.9855,-4.9666,-4.8114,0.0,0.0,-4.92,-5.0131,-5.1701,-5.2684,-5.3494,-5.427,-5.4477,-5.4494,-5.446,-5.4425,-5.346,0.0,-4.92,-4.8459,-4.7476,0.0,-4.6173,-4.6831,-4.7456,-4.8074,-4.8819,-5.0212,-5.0832,-5.0073,-4.9409,-4.8326,-4.6824,-4.6081,-4.5326,-4.4572,-4.3895,-4.3494,-4.3479,-4.1509,-4.0093,-3.9385,-3.6738,0.0,0.0,0.0,0.0,0.0,0.0,0.0,0.0,0.0,0.0,0.0,0.0,0.0,0.0,0.0,0.0,0.0,0.0,0.0,0.0,0.0,0.0,0.0,0.0,0.0,0.0,0.0,0.0,-4.2787,-4.3893,0.0,-4.3054,-4.4125,-4.5213,-4.6016,-4.7783,-4.9531,-5.1119,-5.2208,-5.326,-5.4349,-5.5152,-5.5687,-5.5972,-5.6757,-5.715,-5.7168,-5.7953,-5.8328,-5.8328,-5.8595,-5.872,-5.872,-5.872,-5.872,-5.8631,-5.7507,-5.6197,-5.485,-5.4659,-5.402,-5.3296,-5.4139,-5.4426,-5.4516,-5.4667,-5.4443,-5.3942,-5.3529,-5.2511,-5.1425,-5.1425,-5.0856,-5.0424,-5.1476,-5.1977,-5.2425,-5.3425,-5.3908,-5.4184,-5.4443,-5.4512,-5.4512,-5.4512,-5.4512,-5.4058,-5.266,-5.2025,-5.1081,-4.8958,-4.85,-4.8155,-4.7554,-4.8119,-4.8916,-4.9629,-5.0584,-5.1108,-5.0788,-5.0023,-4.9,-4.7558,-4.6687,-4.5572,-4.4018,-4.371,-4.3387,-4.2971,-4.1832,-4.0878,-4.0185,-3.8369,-3.6215,0.0,0.0,0.0,0.0,0.0,0.0,0.0,0.0,0.0,0.0,0.0,0.0,0.0,0.0,0.0,0.0,0.0,0.0,0.0,0.0,0.0,0.0,0.0,0.0,0.0,0.0,-4.3375,-4.5195,-4.6587,-4.7087,-4.6284,-4.789,-4.9192,-4.9727,-5.1208,-5.2547,-5.3617,-5.4402,-5.5062,-5.5598,-5.6383,-5.6793,-5.6793,-5.7578,-5.7971,-5.7971,-5.8756,-5.9113,-5.9131,-5.9416,-5.9523,-5.9523,-5.9523,-5.9523,-5.9505,-5.9238,-5.8502,-5.7515,-5.7541,-5.6956,-5.6275,-5.7034,-5.7114,-5.6805,-5.6805,-5.646,-5.5839,-5.4856,-5.4201,-5.377,-5.377,-5.377,-5.3822,-5.408,-5.4149,-5.4201,-5.4443,-5.4512,-5.4512,-5.4512,-5.4512,-5.4512,-5.4512,-5.4512,-5.4303,-5.3766,-5.3587,-5.2831,-5.071,-5.0391,-5.0074,-4.9187,-4.9398,-4.992,-5.0406,-5.0892,-5.1108,-5.0788,-5.023,-4.9284,-4.7573,-4.6702,-4.548,-4.3679,-4.3371,-4.2956,-4.2294,-4.1601,-4.0909,-4.0201,-3.8862,-3.7061,-3.4799,0.0,0.0,0.0,0.0,0.0,0.0,0.0,0.0,0.0,0.0,0.0,0.0,0.0,0.0,0.0,0.0,0.0,0.0,0.0,0.0,0.0,0.0,0.0,-4.2216,-4.3126,-4.4571,-4.6855,-4.9192,-5.0316,-4.9531,-5.1583,-5.2957,-5.2957,-5.4384,-5.5241,-5.5241,-5.599,-5.6436,-5.6436,-5.7204,-5.7614,-5.7614,-5.8381,-5.8774,-5.8774,-5.9559,-5.9951,-5.9969,-6.0736,-6.1093,-6.1093,-6.1093,-6.1093,-6.104,-6.0272,-5.974,-5.9335,-5.8591,-5.7947,-5.7341,-5.7341,-5.7166,-5.6874,-5.684,-5.684,-5.684,-5.6805,-5.6805,-5.6805,-5.6805,-5.6805,-5.665,-5.5874,-5.565,-5.5477,-5.477,-5.4563,-5.4546,-5.4546,-5.4529,-5.4512,-5.4512,-5.4512,-5.4321,-5.3766,-5.37,-5.3483,-5.2905,-5.2329,-5.1987,-5.1987,-5.1524,0.0,-5.1183,-5.1183,-5.0864,-4.9995,-4.9916,-4.9048,-4.6821,-4.6003,-4.5033,-4.3664,-4.294,-4.2279,-4.1632,-4.0893,-4.0201,-3.9554,-3.8215,-3.6876,-3.5537,0.0,0.0,0.0,0.0,0.0,0.0,0.0,0.0,0.0,0.0,0.0,0.0,0.0,0.0,0.0,0.0,0.0,0.0,0.0,0.0,0.0,0.0,-4.2251,-4.3054,-4.6302,-4.9032,-5.0245,-5.1976,-5.2975,-5.2743,-5.3849,-5.4563,-5.4563,-5.5508,-5.6062,-5.6062,-5.6829,-5.7257,-5.7257,-5.8006,-5.8417,-5.8417,-5.9202,-5.9577,-5.9594,-6.0397,-6.0772,-6.079,-6.1004,-6.1093,-6.1093,-6.1093,-6.1093,-6.1075,-6.0622,-6.0211,-5.9812,-5.9038,-5.8472,-5.8142,-5.8452,-5.8459,-5.8323,-5.7788,-5.7598,-5.7512,-5.6978,-5.6805,-5.6805,-5.6805,-5.6805,-5.6753,-5.6529,-5.6477,-5.6426,-5.6219,-5.5736,-5.5322,-5.5322,-5.4908,-5.4512,-5.4512,-5.4512,-5.4222,-5.3264,-5.306,-5.2836,-5.2345,-5.2131,-5.1858,-5.145,-5.1317,0.0,-5.1183,-5.0924,-5.0602,-5.037,-5.0073,-4.9331,-4.7964,-4.72,-4.5942,-4.3769,-4.2494,-4.1786,-4.1617,-4.0447,-3.9939,-4.0247,-3.8923,-3.78,0.0,0.0,0.0,0.0,0.0,0.0,0.0,0.0,0.0,0.0,0.0,0.0,0.0,0.0,0.0,0.0,0.0,0.0,0.0,0.0,0.0,0.0,-4.3572,-4.5517,-4.6337,-4.8782,-5.1173,-5.2957,-5.3974,-5.4652,-5.4991,-5.5437,-5.5705,-5.5705,-5.6133,-5.6543,-5.6865,-5.7328,-5.7721,-5.806,-5.8809,-5.922,-5.922,-6.0005,-6.0415,-6.0415,-6.0879,-6.1093,-6.1093,-6.1093,-6.1093,-6.1093,-6.1093,-6.1034,-6.0854,-6.0671,-6.0423,0.0,0.0,0.0,0.0,0.0,-5.9012,-5.8961,-5.8512,-5.8374,-5.8288,-5.7874,-5.7719,-5.7719,-5.7719,-5.7719,-5.7667,-5.7357,-5.7253,-5.7185,-5.6874,-5.646,-5.5964,-5.5424,-5.5094,-5.481,-5.4308,-5.4175,-5.3898,-5.2974,-5.2627,0.0,-5.1802,-5.1655,-5.1598,-5.1258,-5.1183,-5.1183,-5.1183,-5.0771,-5.0448,-5.0292,-4.9916,-4.9235,-4.8069,-4.7137,0.0,0.0,0.0,-4.1755,-4.117,-4.0093,0.0,0.0,0.0,0.0,0.0,0.0,0.0,0.0,-3.7015,-3.7107,0.0,0.0,0.0,0.0,0.0,0.0,0.0,0.0,0.0,0.0,0.0,0.0,0.0,0.0,0.0,0.0,-4.7087,-4.9834,-5.0887,-5.103,-5.2083,-5.4884,-5.5294,-5.5616,-5.6329,-5.6401,-5.6436,-5.6525,-5.6543,-5.6882,-5.7667,0.0,0.0,0.0,0.0,-6.0058,-6.0058,-6.0736,-6.1093,-6.1093,-6.1093,-6.1093,-6.1093,-6.1093,-6.1093,-6.1093,-6.1034,-6.0914,-6.0671,-6.0547,-6.0297,-5.9961,-6.0025,-5.9635,-5.9012,-5.9012,-5.9012,-5.9012,-5.9012,0.0,0.0,-5.9012,-5.9012,-5.9012,-5.9012,-5.9012,-5.8875,-5.8219,-5.803,-5.7874,-5.7219,-5.6929,-5.6537,-5.5433,-5.5328,-5.5204,-5.4056,-5.377,-5.3518,-5.2853,-5.2345,-5.1858,-5.1317,-5.1183,-5.1183,-5.1183,-5.1183,-5.1183,-5.1108,-5.0695,-5.0292,-4.9836,0.0,0.0,-4.7773,-4.6621,-4.5603,-4.4849,-4.3633,-4.2325,-4.0924,-4.0447,-4.0447,-4.097,-4.0986,-4.1601,-4.2833,-4.3402,-4.3433,-4.2863,-3.9754,-3.957,0.0,0.0,0.0,0.0,0.0,0.0,0.0,0.0,0.0,0.0,0.0,0.0,0.0,0.0,0.0,-4.6766,-4.896,-5.1208,-5.392,-5.4295,-5.4527,-5.5134,-5.5776,-5.6222,-5.6383,-5.6401,-5.6668,-5.7311,-5.7346,-5.7685,-5.847,-5.9113,-5.9523,-5.9666,-6.0451,-6.0861,-6.0861,-6.1022,-6.1093,-6.1093,0.0,0.0,-6.1093,-6.1093,-6.1093,-6.1093,-6.0793,-6.0793,-6.0914,-6.0153,-5.9551,-5.9217,-5.9569,-5.9436,-5.9012,-5.9012,-5.9012,-5.9012,-5.9012,-5.9012,-5.9012,-5.9012,-5.9012,-5.9012,-5.9012,-5.9012,0.0,-5.884,-5.8806,-5.8771,-5.8616,-5.7775,-5.7003,-5.7226,-5.62,-5.4999,-5.4669,-5.4227,-5.3486,-5.239,-5.2059,-5.1858,-5.1317,-5.1183,-5.1183,-5.1183,-5.1183,-5.1092,-5.0679,-5.0292,-4.9836,-4.9437,-4.9356,-4.905,-4.8435,-4.8004,-4.7324,-4.6249,-4.5449,-4.4402,-4.3033,-4.3895,-4.4218,-4.3802,-4.3802,-4.3925,-4.4202,-4.4326,-4.4603,-4.4987,-4.3771,-4.3202,0.0,0.0,0.0,0.0,0.0,0.0,0.0,0.0,0.0,0.0,0.0,-4.0836,-4.1626,0.0,-4.6748,-4.9478,-5.1244,-5.2957,-5.4937,-5.5544,-5.5794,-5.5794,-5.6151,-5.6401,-5.6401,-5.6757,-5.715,-5.756,-5.7935,-5.8488,-5.9273,-5.9701,-6.0094,-6.0487,-6.0897,-6.1093,-6.1093,-6.1093,-6.1093,-6.1093,-6.1093,-6.1093,-6.1093,-6.0914,-6.0854,-6.0854,-6.0671,-6.0468,-6.0262,-5.9617,-5.9149,-5.9012,-5.9217,-5.9149,-5.9012,-5.9012,-5.9012,-5.9012,-5.9012,-5.9012,-5.9012,-5.9012,-5.9012,-5.9012,-5.9012,-5.8789,-5.8632,-5.8944,-5.8562,-5.8192,-5.8492,-5.8061,-5.7403,-5.6761,-5.6301,-5.5686,-5.4644,-5.3923,-5.3284,-5.2703,-5.2048,-5.1524,-5.1258,-5.1183,-5.1183,-5.1183,-5.1183,-5.1016,-5.0602,-5.0152,-4.9773,-4.9356,-4.9113,-4.8852,-4.862,-4.8233,-4.7552,-4.6634,-4.628,-4.5634,-4.4618,-4.5234,-4.5418,-4.5095,-4.508,-4.5249,-4.5588,-4.5926,-4.6265,-4.6603,-4.6603,-4.6234,0.0,0.0,0.0,0.0,0.0,0.0,0.0,0.0,-4.0776,-4.0633,-4.2763,-4.4815,-4.5459,-4.7479,-4.9763,-5.1815,-5.3332,-5.4527,-5.533,-5.599,-5.6401,-5.6401,-5.6401,-5.6401,-5.6401,-5.7114,-5.765,-5.7792,-5.8524,-5.9291,-6.0094,-6.0148,-6.0433,-6.1075,-6.1093,-6.1093,-6.1093,-6.1093,-6.1093,-6.1093,-6.1093,-6.1052,-6.0974,-6.0732,-6.0547,-6.0485,-6.0485,-6.0089,-5.9436,-5.9217,-5.9081,-5.9012,-5.9012,-5.9012,-5.9012,-5.9012,-5.9012,-5.9012,-5.9012,-5.8927,-5.8858,-5.8858,-5.8719,-5.8632,-5.8789,-5.8492,-5.8192,-5.8719,-5.8103,-5.7446,-5.7814,-5.7814,-5.7369,-5.5994,-5.622,-5.6298,-5.4675,-5.3797,-5.3245,-5.295,-5.2069,-5.1345,-5.1199,-5.1183,-5.1183,-5.1183,-5.1108,-5.094,-5.0448,-5.0058,-4.9597,-4.9194,-4.8867,-4.862,-4.862,-4.8112,-4.7573,-4.7019,-4.6988,-4.6742,-4.6203,-4.6172,-4.6172,-4.6172,-4.6172,-4.6449,-4.6988,-4.7527,-4.7804,-4.7819,-4.8358,-4.8327,-3.8307,-3.7769,-3.7921,-4.01,-4.0138,-4.0783,0.0,0.0,-4.5069,-4.7083,-4.8287,-4.9001,-4.8969,-5.086,-5.2654,-5.3599,-5.4509,-5.5348,-5.6151,-5.6347,-5.6401,-5.6401,-5.6401,-5.6401,-5.6401,-5.7114,-5.7864,-5.8542,-5.9327,-6.013,-6.0915,-6.0968,-6.1004,-6.1093,-6.1093,-6.1093,-6.1093,-6.1093,-6.1093,-6.1093,-6.1093,-6.0914,-6.0671,-6.0609,-6.0423,-6.0171,-6.0171,-5.9748,-5.9081,-5.9436,-5.9284,-5.9012,-5.9012,-5.9012,-5.9012,-5.9012,-5.9012,-5.9012,-5.9012,-5.8632,-5.8192,-5.8192,-5.7814,-5.752,-5.8031,-5.8192,-5.8103,-5.8192,-5.8103,-5.7887,-5.7429,-5.6904,-5.6597,-5.6896,-5.6282,-5.5488,-5.5237,-5.4652,-5.3853,-5.2523,-5.2215,-5.1896,-5.128,-5.1183,-5.1183,-5.1183,-5.0848,-5.0448,-4.9995,-4.9597,-4.9194,-4.8702,-4.862,-4.862,-4.862,-4.8543,-4.8466,-4.8389,-4.8389,-4.8358,-4.8281,-4.8266,-4.8266,-4.8266,-4.8266,-4.8312,-4.8389,-4.8466,-4.8496,-4.8496,-4.8573,-4.8573,-4.2215,-4.2033,0.0,0.0,-4.4573,-4.5558,-4.7681,-4.816,-4.836,-4.9047,-5.03,-5.1146,-5.0838,-5.2705,-5.4349,0.0,-5.5384,-5.6026,-5.6347,-5.6401,-5.6401,-5.6401,-5.6401,-5.6401,-5.6401,-5.7525,-5.8381,-5.8702,-5.9898,-6.0754,-6.1075,-6.1093,-6.1093,-6.1093,-6.1093,-6.1093,-6.1093,-6.1093,-6.1093,-6.1111,-6.0914,-6.0732,-6.0627,-6.0234,-5.9961,-5.9766,-5.9551,-5.9418,-5.9351,-5.9284,-5.9149,-5.9012,-5.9012,-5.8789,-5.8492,-5.8858,-5.9012,-5.8944,-5.8562,-5.8334,-5.812,-5.812,-5.7959,-5.7741,-5.8031,-5.7887,-5.7594,-5.7594,-5.7072,-5.6536,-5.6614,-5.6459,-5.6319,-5.6162,-5.602,-5.578,-5.5422,-5.4825,-5.4227,-5.3596,-5.3142,-5.2624,-5.1896,-5.1629,-5.1254,-5.0836,-5.0602,-5.0292,-4.9597,-4.9437,-4.9113,-4.862,-4.862,-4.862,-4.862,-4.862,-4.862,-4.862,-4.862,-4.862,-4.862,-4.862,-4.862,-4.862,-4.862,-4.862,-4.862,-4.862,-4.862,-4.862,-4.862,-4.862,-4.4507,0.0,0.0,-4.6373,-4.7965,-4.95,-4.9955,-5.071,-5.1225,-5.1008,-5.2017,-5.2834,-5.2416,-5.3903,0.0,-5.5491,-5.6026,-5.6401,-5.6401,-5.6401,-5.6401,-5.6401,-5.6401,-5.6401,-5.6401,-5.781,-5.872,-5.872,-6.0201,-6.1093,-6.1093,-6.1093,-6.1093,-6.1093,-6.1093,-6.1093,-6.1093,-6.1093,-6.1034,-6.0974,-6.0732,-6.0485,-6.028,-5.97,-5.9418,-5.9436,-5.9149,-5.9149,-5.9436,-5.9149,-5.8927,-5.8789,-5.8789,-5.8405,-5.7887,-5.8334,-5.8492,-5.8405,-5.8031,-5.7741,-5.7668,-5.7814,-5.7668,-5.7446,-5.7741,-5.7446,-5.698,-5.698,-5.6303,-5.5717,-5.602,-5.6083,-5.5941,-5.5491,-5.5701,-5.5941,-5.5491,-5.5021,-5.4616,-5.4438,-5.3984,-5.3307,-5.2469,-5.1945,-5.1326,-5.058,-5.0247,-4.9979,-4.9356,-4.9194,-4.8949,-4.862,-4.862,-4.862,-4.862,-4.862,-4.862,-4.862,-4.862,-4.862,-4.862,-4.862,-4.862,-4.862,-4.862,-4.862,-4.862,-4.862,-4.862,-4.862,-4.862,-4.862,0.0,0.0,-4.7321,-4.7359,-4.9254,-5.1547,-5.3177,-5.353,-5.368,-5.4223,-5.4383,-5.4353,-5.4008,-5.4652,-5.5473,-5.624,-5.6383,-5.6401,-5.6401,-5.6401,-5.6401,-5.6401,-5.6401,-5.6401,0.0,-5.781,-5.872,-5.872,-6.0201,-6.1093,-6.1093,-6.1093,-6.1093,-6.1093,-6.1093,-6.1093,-6.1093,-6.1093,-6.0914,-6.0627,-6.0609,-6.0297,-5.9635,-5.9217,-5.9012,-5.9012,-5.9012,-5.9012,-5.9012,-5.9012,-5.8632,-5.812,-5.812,-5.7741,-5.7206,-5.7222,-5.7281,-5.7281,-5.7206,-5.6827,-5.6459,-5.7072,-5.6459,-5.5717,-5.6844,-5.6844,-5.6319,-5.6319,-5.6319,-5.6162,-5.5556,-5.5409,-5.5409,-5.5409,-5.5409,-5.5409,-5.5409,-5.5393,-5.5183,-5.4535,-5.4389,-5.397,-5.2813,-5.2029,-5.1343,-5.0438,-4.9778,-4.9356,-4.9275,-4.8867,-4.862,-4.862,-4.862,-4.862,-4.862,-4.862,-4.862,-4.862,-4.862,-4.862,-4.862,-4.862,-4.862,-4.862,-4.862,-4.862,-4.862,-4.862,-4.862,-4.862,-4.862,-4.862,0.0,0.0,-5.005,-5.058,-5.221,-5.3875,-5.4684,-5.4951,-5.4829,-5.4228,-5.3736,-5.3381,-5.326,-5.3903,-5.4688,-5.5473,-5.6044,-5.6401,-5.6401,-5.6401,-5.6401,-5.6401,-5.6401,0.0,0.0,0.0,0.0,-5.8684,-5.9719,-6.054,-6.1075,-6.1093,-6.1093,-6.1093,-6.1093,-6.0974,-6.0793,-6.0793,-6.0609,-6.0297,-6.0025,-5.97,-5.9217,-5.9081,-5.9012,-5.9012,-5.9012,-5.9012,-5.8944,-5.8562,-5.8263,-5.8048,-5.7668,-5.7131,-5.6614,-5.6614,-5.6319,-5.6083,-5.6459,-5.6459,-5.6303,-5.6536,-5.6319,-5.6083,-5.6459,-5.6459,-5.6241,-5.5797,-5.5717,-5.5637,-5.5491,-5.5409,-5.5409,-5.5409,-5.5409,-5.5409,-5.5409,-5.5409,-5.5345,-5.5118,-5.4841,-5.4354,-5.3469,-5.2641,-5.1602,-5.0142,-4.9316,-4.8867,-4.8867,-4.8702,-4.862,-4.862,-4.862,-4.862,-4.862,-4.862,-4.862,-4.862,-4.862,-4.862,-4.862,-4.862,-4.862,-4.862,-4.862,-4.862,-4.862,-4.862,-4.862,-4.862,-4.862,-4.862,0.0,-5.0618,-5.2333,-5.3275,-5.4659,-5.5857,-5.6086,-5.5951,-5.541,-5.4198,-5.2943,-5.208,-5.2029,-5.1976,-5.2564,-5.4474,-5.4973,-5.5437,-5.6276,-5.6401,-5.6401,-5.6401,-5.665,0.0,0.0,0.0,0.0,-5.8667,-5.9719,-6.0558,-6.1075,-6.1093,-6.1034,-6.0914,-6.0914,-6.0732,-6.0423,-6.0423,-6.0216,-5.9896,-5.9569,-5.9217,-5.9012,-5.9012,-5.9012,-5.9012,-5.8789,-5.8719,-5.8632,-5.8031,-5.7668,-5.7446,-5.7055,-5.6536,-5.6053,-5.6299,-5.5945,-5.5491,-5.5861,-5.602,-5.602,-5.6241,-5.6162,-5.602,-5.6241,-5.6162,-5.5861,-5.5491,-5.5409,-5.5409,-5.5409,-5.5409,-5.5409,-5.5409,-5.5409,-5.5409,-5.5409,-5.5409,-5.5328,-5.5164,-5.5014,-5.4537,-5.3724,-5.2777,-5.1568,-4.9966,-4.9297,-4.8912,-4.8635,-4.862,-4.862,-4.862,-4.862,-4.862,-4.862,-4.862,-4.862,-4.862,-4.862,-4.862,-4.862,-4.862,-4.862,-4.862,-4.862,-4.862,-4.862,-4.862,-4.862,-4.862,-4.862,-4.8743,-5.1604,-5.3158,-5.4148,-5.5319,-5.6522,-5.7418,-5.726,-5.6514,-5.5494,-5.4107,-5.2098,-5.0498,0.0,0.0,-4.9478,-5.3278,-5.3403,-5.3796,-5.6079,-5.6436,-5.6454,0.0,0.0,0.0,0.0,0.0,0.0,-5.8738,0.0,-6.1004,-6.1093,-6.1093,-6.0914,-6.0627,-6.0609,-6.0423,-6.0089,-6.0089,-5.9896,-5.9569,-5.9149,-5.9012,-5.9012,-5.9012,-5.9012,-5.8927,-5.8334,-5.8103,-5.8048,-5.7406,-5.6894,-5.6369,-5.634,-5.6055,-5.562,-5.63,-5.6106,-5.5523,-5.5523,-5.5507,-5.5539,-5.6149,-5.5927,-5.5539,-5.61,-5.5861,-5.5409,-5.5409,-5.5409,-5.5409,-5.5409,-5.5409,-5.5409,-5.5409,-5.5409,-5.5409,-5.5409,-5.5409,-5.5246,-5.4848,-5.4765,-5.4428,-5.3552,-5.2394,-5.1267,-4.9989,-4.9728,-4.942,-4.8696,-4.862,-4.862,-4.862,-4.862,-4.862,-4.862,-4.862,-4.862,-4.862,-4.862,-4.862,-4.862,-4.862,-4.862,-4.862,-4.862,-4.862,-4.862,-4.862,-4.8635,-4.8666,-4.8666,-4.905,-5.2968,-5.4882,-5.6519,-5.6854,-5.7408,-5.7582,-5.6625,-5.5839,-5.4619,-5.2208,-5.0168,-4.8633,0.0,0.0,0.0,-5.1922,-5.3599,0.0,-5.6222,-5.6918,0.0,0.0,0.0,-5.8435,-5.8435,-5.897,0.0,0.0,-5.9434,-5.9844,-6.104,-6.0854,-6.0793,-6.0974,-6.0485,-6.0171,-6.0089,-5.9551,-5.9217,-5.9149,-5.9081,-5.9012,-5.9012,-5.9012,-5.8789,-5.8334,-5.8192,-5.7814,-5.7406,-5.7365,-5.7285,-5.7113,-5.72,-5.718,-5.7045,-5.7239,-5.7191,-5.7029,-5.7029,-5.6672,-5.6219,-5.6368,-5.6368,-5.6122,-5.5734,-5.5491,-5.5409,-5.5409,-5.5409,-5.5409,-5.5409,-5.5409,-5.5409,-5.5409,-5.5409,-5.5409,-5.5409,-5.5409,-5.5246,-5.4848,-5.4258,-5.3552,-5.2966,-5.2233,-5.159,-5.1236,-5.0328,-4.942,-4.8696,-4.862,-4.862,-4.862,-4.862,-4.862,-4.862,-4.862,-4.862,-4.862,-4.862,-4.862,-4.862,-4.862,-4.862,-4.862,-4.862,-4.862,-4.862,-4.862,-4.8897,-4.942,-4.942,-4.9774,-5.5356,-5.6746,-5.7729,-5.7877,-5.781,-5.7243,-5.5404,-5.4232,-5.2644,-4.9424,-4.7581,0.0,0.0,0.0,0.0,0.0,0.0,0.0,-5.6615,-5.7311,-5.7703,0.0,-5.8774,0.0,-5.9255,-5.9648,-6.0058,0.0,-6.0023,-6.0089,-6.0818,-6.0671,-6.0547,-6.0468,-6.0089,-5.9831,-5.9617,-5.9217,-5.8858,-5.8632,-5.8858,-5.8702,-5.8192,-5.8492,-5.8263,-5.7668,0.0,-5.7147,-5.6817,-5.6951,-5.7037,-5.7021,-5.7456,-5.7579,-5.7611,-5.7919,-5.7838,-5.7611,-5.7935,-5.7579,-5.6915,-5.6608,-5.6494,-5.6413,-5.6008,-5.5895,-5.596,-5.6268,-5.6138,-5.5895,-5.5895,-5.5652,-5.5409,-5.5409,-5.5409,-5.5409,-5.5409,-5.5246,-5.4915,-5.4327,-5.3552,-5.3055,-5.2713,-5.2406,-5.2052,-5.1744,-5.1051,-5.0205,-4.9204,-4.8804,-4.862,-4.862,-4.862,-4.862,-4.862,-4.862,-4.862,-4.862,-4.862,-4.862,-4.862,-4.862,-4.862,-4.862,-4.862,-4.8773,-4.9081,-4.9081,-4.9451,-5.0128,-5.0128,-5.0497,-5.7845,-5.8393,-5.8184,-5.8564,-5.7881,-5.6459,-5.3961,-5.2164,-4.9992,-4.6439,0.0,0.0,-4.2376,0.0,-4.5534,-4.8782,0.0,-5.3028,-5.6882,-5.7614,-5.7971,-5.8649,-5.9465,-6.0,-6.0058,-6.0018,-6.0226,-6.098,-6.0974,-6.0854,-6.0609,-6.0485,-6.0153,-5.9418,-5.9418,-5.9284,-5.8858,-5.8789,-5.8562,-5.812,-5.8562,-5.8192,-5.7222,-5.7741,-5.7668,-5.7072,-5.6536,-5.6241,-5.6228,-5.6433,-5.6494,-5.6559,-5.7288,-5.7579,-5.7644,-5.8259,-5.8162,-5.779,-5.8324,-5.8146,-5.7579,-5.677,-5.6494,-5.6494,-5.6494,-5.6494,-5.6624,-5.7255,-5.698,-5.6478,-5.6381,-5.5895,-5.5409,-5.5409,-5.5409,-5.5409,-5.5409,-5.5014,-5.4428,-5.3552,-5.304,-5.2713,-5.2713,-5.2713,-5.2513,-5.1929,-5.1759,-5.1282,-5.0112,-4.9251,-4.8727,-4.862,-4.862,-4.862,-4.862,-4.862,-4.862,-4.862,-4.862,-4.862,-4.862,-4.8696,-4.8758,-4.8758,-4.885,-4.9189,-4.982,-4.982,-5.0174,-5.0836,-5.0836,-5.119,-5.8131,-5.8612,-5.8564,-5.8874,-5.7256,-5.5163,-5.3342,-5.0343,0.0,0.0,0.0,-4.1627,-4.1359,-4.2608,0.0,-4.871,0.0,0.0,0.0,0.0,-5.8577,0.0,0.0,0.0,0.0,0.0,0.0,0.0,0.0,-6.036,-6.0609,-6.0089,-5.9334,-5.8405,-5.8685,-5.8685,-5.8263,-5.7741,-5.7741,-5.812,-5.7668,-5.7429,-5.7206,-5.7297,-5.7072,-5.6459,-5.6319,0.0,-5.5621,-5.6269,-5.6494,-5.6559,-5.7288,-5.7579,-5.7595,-5.7709,-5.8049,-5.8389,-5.7919,-5.8065,-5.8227,-5.6915,-5.6494,-5.6494,-5.6494,-5.6494,-5.6527,-5.664,-5.6591,-5.6365,-5.5749,-5.5507,-5.5409,-5.5409,-5.5409,-5.5409,-5.5409,-5.4765,-5.4087,-5.3465,-5.304,-5.2713,-5.2713,-5.2713,-5.2667,-5.256,-5.2052,-5.1621,-5.139,-5.0266,-4.9281,-4.8681,-4.862,-4.862,-4.862,-4.862,-4.862,-4.862,-4.862,-4.862,-4.862,-4.9189,-4.9497,-4.9497,-5.0051,-5.0389,-5.0528,-5.0528,-5.0867,-5.1528,-5.1528,-5.1898,-5.8109,-5.8353,-5.8139,-5.8171,-5.6218,-5.3715,-5.1629,0.0,0.0,0.0,0.0,-4.0235,-3.9432,0.0,0.0,0.0,0.0,0.0,0.0,0.0,0.0,0.0,0.0,0.0,0.0,0.0,0.0,0.0,0.0,-5.9896,-6.0089,-5.9569,-5.8927,-5.812,-5.8317,-5.8174,-5.7668,-5.7355,-5.7222,-5.7131,-5.7222,-5.6844,-5.6241,-5.6614,-5.6381,-5.5861,-5.5861,0.0,-5.5474,-5.6203,-5.6494,-5.6559,-5.7288,-5.7579,-5.7611,-5.7984,-5.834,-5.8534,-5.7822,-5.8032,-5.8405,-5.6964,-5.6753,-5.7061,-5.7061,-5.732,-5.7676,-5.8065,-5.7644,-5.698,-5.664,-5.5992,-5.5409,-5.5409,-5.5246,-5.4915,-5.4481,-5.4071,-5.3568,-5.3144,-5.2877,-5.2713,-5.2713,-5.2713,-5.2713,-5.2713,-5.2436,-5.2098,-5.1744,-5.1144,-5.0328,-4.9281,-4.8835,-4.862,-4.862,-4.862,-4.8773,-4.9143,-4.9174,-4.9328,-4.9682,-5.002,-5.0205,-5.0205,-5.0528,-5.0867,-5.1221,-5.1221,-5.1559,-5.2236,-5.2236,-5.2406,-5.7728,-5.7812,-5.7443,-5.7243,-5.493,-5.2143,-4.9811,-4.6569,0.0,0.0,0.0,-3.9093,-3.8041,0.0,0.0,0.0,0.0,0.0,0.0,0.0,0.0,0.0,0.0,0.0,0.0,0.0,0.0,0.0,0.0,0.0,-5.9436,-5.9081,-5.8562,-5.7959,-5.7814,-5.752,-5.698,-5.692,-5.6614,-5.6303,-5.6614,-5.6319,-5.5409,-5.5861,-5.5861,-5.5409,-5.5409,0.0,0.0,-5.6041,-5.6268,-5.6316,-5.6883,-5.711,-5.7174,-5.7741,-5.8146,-5.8308,-5.7595,-5.7919,-5.8421,-5.7142,-5.711,-5.7611,-5.7757,-5.8194,-5.8761,-5.9328,-5.868,-5.7757,-5.7611,-5.6608,-5.5604,-5.5294,-5.4915,-5.4428,-5.3552,-5.3377,-5.3305,-5.2788,-5.2713,-5.2713,-5.2713,-5.2713,-5.2713,-5.2713,-5.2713,-5.2529,-5.199,-5.179,-5.1298,-5.0236,-4.9481,-4.9066,-4.9066,-4.9066,-4.9297,-4.9866,-4.9897,-5.0143,-5.0667,-5.0836,-5.0913,-5.0913,-5.1051,-5.139,-5.1913,-5.1913,-5.219,-5.2713,-5.2713,-5.2713,-5.6915,-5.7021,-5.6804,-5.634,-5.355,-5.0474,-4.8704,0.0,0.0,0.0,-3.879,-3.7987,-3.8594,0.0,0.0,0.0,0.0,0.0,0.0,0.0,0.0,0.0,0.0,0.0,0.0,0.0,0.0,0.0,0.0,0.0,-5.9012,-5.8492,-5.7887,-5.7281,-5.6768,-5.6459,-5.6381,-5.5861,-5.5781,-5.6319,-5.5781,-5.5491,-5.5409,-5.5491,-5.5491,-5.5409,-5.5409,0.0,0.0,-5.549,-5.5507,-5.5523,-5.5587,-5.562,-5.562,-5.5685,-5.6543,-5.7579,-5.685,-5.7482,-5.8502,-5.7725,-5.7514,-5.7692,-5.834,-5.8583,-5.8648,-5.8713,-5.8648,-5.8389,-5.7741,-5.698,-5.6152,-5.5076,-5.4513,-5.4001,-5.3465,-5.3377,-5.3305,-5.2788,-5.2713,-5.2713,-5.2713,-5.2713,-5.2713,-5.2713,-5.2713,-5.2698,-5.2637,-5.2082,-5.1652,-5.1528,-5.0913,-5.0497,-5.0497,-5.0497,-5.0528,-5.059,-5.0605,-5.0636,-5.0697,-5.1282,-5.1621,-5.1621,-5.2221,-5.256,-5.2621,-5.2621,-5.2652,-5.2713,-5.2713,-5.2713,-5.5589,-5.6335,-5.6491,-5.577,-5.305,-5.0133,-4.8579,0.0,-4.0877,-4.0075,-3.8665,-3.7684,-3.8005,-3.8469,0.0,0.0,0.0,0.0,0.0,0.0,0.0,0.0,0.0,0.0,0.0,0.0,0.0,0.0,0.0,0.0,-5.7887,-5.7668,-5.7281,-5.6691,-5.6475,-5.6162,-5.5797,-5.5491,-5.5491,-5.5797,-5.5491,-5.5409,-5.5409,-5.5409,-5.5409,-5.5409,-5.5409,0.0,0.0,-5.5409,-5.5409,-5.5409,-5.5409,-5.5409,-5.5458,-5.5911,-5.6429,-5.6948,-5.7093,-5.779,-5.8583,-5.8308,-5.8502,-5.8826,-5.868,-5.8939,-5.9279,-5.9279,-5.8972,-5.8567,-5.8292,-5.7183,-5.5814,-5.4688,-5.4001,-5.3568,-5.304,-5.2966,-5.2966,-5.2713,-5.2713,-5.2713,-5.2713,-5.2713,-5.2713,-5.2713,-5.2713,-5.2713,-5.2713,-5.2483,-5.2313,-5.2313,-5.1344,-5.0697,-5.0697,-5.0697,-5.0867,-5.1282,-5.1298,-5.1482,-5.1898,-5.2175,-5.2313,-5.2313,-5.2575,-5.2713,-5.2713,-5.2713,-5.2713,-5.2713,-5.2713,-5.2713,-5.3841,-5.5061,-5.5598,-5.4759,-5.2154,-4.946,0.0,0.0,-4.0552,-3.9943,-3.859,-3.7466,-3.7429,-3.8142,-3.8925,0.0,0.0,0.0,0.0,0.0,0.0,0.0,0.0,0.0,0.0,0.0,0.0,0.0,0.0,0.0,0.0,-5.6768,-5.6536,-5.6319,-5.6162,-5.5861,-5.5409,-5.5409,-5.5409,-5.5409,-5.5409,-5.5409,-5.5409,-5.5409,-5.5409,-5.5409,-5.5409,0.0,0.0,-5.5409,-5.5409,-5.5409,-5.5409,-5.5409,-5.5474,-5.5992,-5.6316,-5.6559,-5.7077,-5.7725,-5.8324,-5.8324,-5.8664,-5.8988,-5.847,-5.8972,-5.9716,-5.9716,-5.9198,-5.8448,-5.7942,-5.6729,-5.5287,-5.4159,-5.3568,-5.3129,-5.2803,-5.2713,-5.2713,-5.2713,-5.2713,-5.2713,-5.2713,-5.2713,-5.2713,-5.2713,-5.2713,-5.2713,-5.2713,-5.2713,-5.2713,-5.2713,-5.1867,-5.1282,-5.1282,-5.1282,-5.1498,-5.1975,-5.2006,-5.2221,-5.2698,-5.2713,-5.2713,-5.2713,-5.2713,-5.2713,-5.2713,-5.2713,-5.2713,-5.2713,-5.2713,-5.2713,-5.1562,-5.2868,-5.3867,-5.31,-5.053,-4.7997,0.0,-4.334,-3.9836,-3.966,-3.8359,-3.7259,-3.7066,-3.7835,-3.8691,-3.9223,0.0,0.0,0.0,0.0,0.0,0.0,0.0,0.0,0.0,0.0,0.0,0.0,0.0,0.0,0.0,-5.5717,-5.5717,-5.6319,-5.5717,-5.5409,-5.5409,-5.5409,-5.5409,-5.5409,-5.5409,-5.5409,-5.5409,-5.5409,-5.5409,-5.5409,0.0,0.0,0.0,-5.5409,-5.5409,-5.5409,-5.5409,-5.5409,-5.5409,-5.5426,-5.5879,-5.6494,-5.651,-5.698,-5.7595,-5.7595,-5.7595,-5.7595,-5.7595,-5.8583,-5.9716,-5.9716,-5.9198,-5.8136,-5.629,-5.5461,-5.4822,-5.3709,-5.304,-5.2713,-5.2713,-5.2713,-5.2713,-5.2713,-5.2713,-5.2713,-5.2713,-5.2713,-5.2713,-5.2713,-5.2713,-5.2713,-5.2713,-5.2713,-5.2713,-5.2713,-5.2698,-5.2698,-5.2698,-5.2698,-5.2698,-5.2698,-5.2698,-5.2698,-5.2713,-5.2713,-5.2713,-5.2713,-5.2713,-5.2713,-5.2713,-5.2713,-5.2713,-5.2713,-5.2713,-5.2713,-4.8829,-5.0031,-5.062,-4.9852,-4.8104,-4.6167,-4.4716,-4.1955,-3.9461,-3.873,-3.7791,-3.7066,-3.7027,-3.7259,-3.8209,-4.0516,-4.1982,0.0,0.0,0.0,0.0,0.0,0.0,0.0,0.0,0.0,0.0,0.0,0.0,0.0,0.0,-5.5491,-5.5491,-5.5717,-5.5491,-5.5409,-5.5409,-5.5409,-5.5409,-5.5409,-5.5409,-5.5409,-5.5409,-5.5409,-5.5409,0.0,0.0,0.0,0.0,-5.5409,-5.5409,-5.5409,-5.5409,-5.5409,-5.5409,-5.5409,-5.5555,-5.583,-5.6332,-5.664,-5.6915,-5.7417,-5.7579,-5.7579,-5.7579,-5.7887,-5.8173,-5.7898,-5.765,-5.7075,-5.5684,-5.5011,-5.4502,-5.3637,-5.304,-5.2713,-5.2713,-5.2713,-5.2713,-5.2713,-5.2713,-5.2713,-5.2713,-5.2713,-5.2713,-5.2713,-5.2713,-5.2713,-5.2713,-5.2713,-5.2713,-5.2713,-5.2713,-5.2713,-5.2713,-5.2713,-5.2713,-5.2713,-5.2713,-5.2713,-5.2713,-5.2713,-5.2713,-5.2713,-5.2713,-5.2713,-5.2713,-5.2713,-5.2713,-5.2713,-5.2713,-5.2713,0.0,-4.7435,-4.808,-4.7601,-4.6074,-4.4378,-4.3306,-4.0983,-3.8836,-3.8117,-3.7393,-3.6869,-3.6771,-3.6957,-3.7798,-3.9891,-4.0816,0.0,0.0,0.0,0.0,0.0,0.0,0.0,0.0,0.0,0.0,0.0,0.0,0.0,0.0,-5.5409,-5.5409,-5.5409,-5.5409,-5.5409,-5.5409,-5.5409,-5.5409,-5.5409,-5.5409,-5.5409,-5.5409,-5.5409,-5.5409,0.0,0.0,0.0,0.0,-5.5409,-5.5409,-5.5409,-5.5409,-5.5409,-5.5409,-5.5409,-5.5409,-5.5474,-5.5928,-5.6089,-5.617,-5.644,-5.6417,-5.6247,-5.6247,-5.6803,-5.7174,-5.6454,-5.6201,-5.5954,-5.4806,-5.4267,-5.3923,-5.3326,-5.2877,-5.2713,-5.2713,-5.2713,-5.2713,-5.2713,-5.2713,-5.2713,-5.2713,-5.2713,-5.2713,-5.2713,-5.2713,-5.2713,-5.2713,-5.2713,-5.2713,-5.2713,-5.2713,-5.2713,-5.2713,-5.2713,-5.2713,-5.2713,-5.2713,-5.2713,-5.2713,-5.2713,-5.2713,-5.2713,-5.2713,-5.2713,-5.2713,-5.2713,-5.2713,-5.2713,-5.2713,-5.2713,0.0,-4.4741,-4.5778,-4.5778,-4.4144,-4.2509,-4.2457,-4.0165,0.0,-3.7753,-3.7113,-3.6596,-3.6481,-3.6887,-3.7528,-3.8197,-3.8834,0.0,0.0,0.0,0.0,0.0,0.0,0.0,0.0,0.0,0.0,0.0,0.0,0.0,0.0,-5.5409,-5.5409,-5.5409,-5.5409,-5.5409,-5.5409,-5.5409,-5.5409,-5.5409,-5.5409,-5.5409,-5.5409,-5.5409,-5.5409,0.0,0.0,0.0,0.0,-5.5409,-5.5409,-5.5409,-5.5409,-5.5409,-5.5409,-5.5409,-5.5409,-5.5409,-5.5409,-5.5409,-5.5246,-5.4848,-5.4428,-5.4103,-5.4087,-5.5264,-5.6502,-5.5296,-5.5004,-5.4687,-5.3637,-5.3377,-5.3217,-5.2788,-5.2713,-5.2713,-5.2713,-5.2713,-5.2713,-5.2713,-5.2713,-5.2713,-5.2713,-5.2713,-5.2713,-5.2713,-5.2713,-5.2713,-5.2713,-5.2713,-5.2713,-5.2713,-5.2713,-5.2713,-5.2713,-5.2713,-5.2713,-5.2713,-5.2713,-5.2713,-5.2713,-5.2713,-5.2713,-5.2713,-5.2713,-5.2713,-5.2713,-5.2713,-5.2713,-5.2713,-5.2713,-5.2713,-3.8367,0.0,-4.0963,-4.0963,-4.0541,-3.9919,0.0,-3.8183,-3.7335,0.0,0.0,0.0,0.0,-3.7432,-3.7921,0.0,0.0,0.0,0.0,0.0,0.0,0.0,0.0,0.0,0.0,0.0,0.0,0.0,0.0,0.0,-5.5409,-5.5409,-5.5409,-5.5409,-5.5409,-5.5409,-5.5409,-5.5409,-5.5409,-5.5409,-5.5409,-5.5409,-5.5409,-5.5409,-5.5409,0.0,0.0,0.0,-5.5409,-5.5409,-5.5409,-5.5409,-5.5409,-5.5409,-5.5409,-5.5409,-5.5409,-5.5409,-5.5409,-5.5164,-5.4848,-5.4428,-5.4173,-5.4001,-5.3655,-5.4136,-5.4632,-5.4009,-5.3787,-5.3668,-5.2997,-5.2877,-5.2877,-5.2713,-5.2713,-5.2713,-5.2713,-5.2713,-5.2713,-5.2713,-5.2713,-5.2713,-5.2713,-5.2713,-5.2713,-5.2713,-5.2713,-5.2713,-5.2713,-5.2713,-5.2713,-5.2713,-5.2713,-5.2713,-5.2713,-5.2713,-5.2713,-5.2713,-5.2713,-5.2713,-5.2713,-5.2713,-5.2713,-5.2713,-5.2713,-5.2713,-5.2713,-5.2713,-5.2713,-5.2713,-5.2713,-5.2713,-3.6606,-3.7982,-3.9408,-3.906,-3.8972,-3.8782,-3.8104,0.0,0.0,0.0,0.0,0.0,0.0,0.0,0.0,0.0,0.0,0.0,0.0,0.0,0.0,0.0,0.0,0.0,0.0,0.0,0.0,0.0,0.0,0.0,-5.5409,-5.5409,-5.5409,-5.5409,-5.5409,-5.5409,-5.5409,-5.5409,-5.5409,-5.5409,-5.5409,-5.5409,-5.5409,-5.5409,-5.5409,0.0,0.0,0.0,-5.5409,-5.5409,-5.5409,-5.5409,-5.5409,-5.5409,-5.5409,-5.5409,-5.5409,-5.5409,-5.5409,-5.5014,-5.4428,-5.3915,-5.3655,-5.3409,-5.3144,-5.3233,-5.3393,-5.3129,-5.304,-5.304,-5.2803,-5.2713,-5.2713,-5.2713,-5.2713,-5.2713,-5.2713,-5.2713,-5.2713,-5.2713,-5.2713,-5.2713,-5.2713,-5.2713,-5.2713,-5.2713,-5.2713,-5.2713,-5.2713,-5.2713,-5.2713,-5.2713,-5.2713,-5.2713,-5.2713,-5.2713,-5.2713,-5.2713,-5.2713,-5.2713,-5.2713,-5.2713,-5.2713,-5.2713,-5.2713,-5.2713,-5.2713,-5.2713,-5.2713,-5.2713,-5.2713,-5.2713,-3.6182,-3.7912,-3.9457,-3.8491,-3.8336,-3.8332,-3.7984,0.0,0.0,0.0,0.0,0.0,0.0,0.0,0.0,0.0,0.0,0.0,0.0,0.0,0.0,0.0,0.0,0.0,0.0,0.0,0.0,0.0,0.0,-5.5409,-5.5409,-5.5409,-5.5409,-5.5409,-5.5409,-5.5409,-5.5409,-5.5409,-5.5409,-5.5409,-5.5409,-5.5409,-5.5409,-5.5409,-5.5409,-5.5409,0.0,0.0,-5.5409,-5.5409,-5.5409,-5.5409,-5.5409,-5.5409,-5.5409,-5.5409,-5.5409,-5.5409,-5.5246,-5.4665,-5.3915,-5.3481,-5.304,-5.2713,-5.2713,-5.2713,-5.2713,-5.2713,-5.2713,-5.2713,-5.2713,-5.2713,-5.2713,-5.2713,-5.2713,-5.2713,-5.2713,-5.2713,-5.2713,-5.2713,-5.2713,-5.2713,-5.2713,-5.2713,-5.2713,-5.2713,-5.2713,-5.2713,-5.2713,-5.2713,-5.2713,-5.2713,-5.2713,-5.2713,-5.2713,-5.2713,-5.2713,-5.2713,-5.2713,-5.2713,-5.2713,-5.2713,-5.2713,-5.2713,-5.2713,-5.2713,-5.2713,-5.2713,-5.2713,-5.2713,-5.2713,-5.2713,-3.5701,-3.7689,-3.9198,-3.7163,-3.7163,-3.7558,0.0,0.0,0.0,0.0,0.0,0.0,0.0,0.0,0.0,0.0,0.0,0.0,0.0,0.0,0.0,0.0,0.0,0.0,0.0,0.0,0.0,0.0,0.0,0.0,-5.5409,-5.5409,-5.5409,-5.5409,-5.5409,-5.5409,-5.5409,-5.5409,-5.5409,-5.5409,-5.5409,-5.5409,-5.5409,-5.5409,-5.5409,-5.5409,0.0,-5.5409,-5.5409,-5.5409,-5.5409,-5.5409,-5.5409,-5.5409,-5.5409,-5.5409,-5.5409,-5.5328,-5.4597,-5.3915,-5.3481,-5.2966,-5.2803,-5.2713,-5.2713,-5.2713,-5.2713,-5.2713,-5.2713,-5.2713,-5.2713,-5.2713,-5.2713,-5.2713,-5.2713,-5.2713,-5.2713,-5.2713,-5.2713,-5.2713,-5.2713,-5.2713,-5.2713,-5.2713,-5.2713,-5.2713,-5.2713,-5.2713,-5.2713,-5.2713,-5.2713,-5.2713,-5.2713,-5.2713,-5.2713,-5.2713,-5.2713,-5.2713,-5.2713,-5.2713,-5.2713,-5.2713,-5.2713,-5.2713,-5.2713,-5.2713,-5.2713,-5.2713,-5.2713,-5.2713,-5.2713,-5.2713,-3.5052,-3.6631,-3.7883,-3.6633,-3.7843,-3.9061,0.0,0.0,0.0,0.0,0.0,0.0,0.0,0.0,0.0,0.0,0.0,0.0,0.0,0.0,0.0,0.0,0.0,0.0,0.0,0.0,0.0,0.0,0.0,0.0,-5.5409,-5.5409,-5.5409,-5.5409,-5.5409,-5.5409,-5.5409,-5.5409,-5.5409,-5.5409,-5.5409,-5.5409,-5.5409,-5.5409,-5.5409,-5.5409,0.0,-5.5409,-5.5409,-5.5409,-5.5409,-5.5409,-5.5409,-5.5262,-5.5097,-5.5097,-5.5097,-5.4998,-5.4343,-5.3829,-5.329,-5.2877,-5.2713,-5.2713,-5.2713,-5.2713,-5.2713,-5.2713,-5.2713,-5.2713,-5.2713,-5.2713,-5.2713,-5.2713,-5.2713,-5.2713,-5.2713,-5.2713,-5.2713,-5.2713,-5.2713,-5.2713,-5.2713,-5.2713,-5.2713,-5.2713,-5.2713,-5.2713,-5.2713,-5.2713,-5.2713,-5.2713,-5.2713,-5.2713,-5.2713,-5.2713,-5.2713,-5.2713,-5.2713,-5.2713,-5.2713,-5.2713,-5.2713,-5.2713,-5.2713,-5.2713,-5.2713,-5.2713,-5.2713,-5.2713,-5.2713,-5.2713,-3.4871,-3.5853,-3.6738,-3.6499,0.0,-3.9795,-3.9092,0.0,0.0,0.0,0.0,0.0,0.0,0.0,0.0,0.0,0.0,0.0,0.0,0.0,0.0,0.0,0.0,0.0,0.0,0.0,0.0,0.0,0.0,0.0,-5.5409,-5.5409,-5.5409,-5.5409,-5.5409,-5.5409,-5.5409,-5.5409,-5.5409,-5.5409,-5.5409,-5.5409,-5.5409,-5.5409,-5.5409,-5.5409,-5.5409,-5.5409,-5.5409,-5.5409,-5.5409,-5.5409,-5.5409,-5.5164,-5.4765,-5.4681,-5.4597,-5.4428,-5.4087,-5.3655,-5.3217,-5.2788,-5.2713,-5.2713,-5.2713,-5.2713,-5.2713,-5.2713,-5.2713,-5.2713,-5.2713,-5.2713,-5.2713,-5.2713,-5.2713,-5.2713,-5.2713,-5.2713,-5.2713,-5.2713,-5.2713,-5.2713,-5.2713,-5.2713,-5.2713,-5.2713,-5.2713,-5.2713,-5.2713,-5.2713,-5.2713,-5.2713,-5.2713,-5.2713,-5.2713,-5.2713,-5.2713,-5.2713,-5.2713,-5.2713,-5.2713,-5.2713,-5.2713,-5.2713,-5.2713,-5.2713,-5.2713,-5.2713,-5.2713,-5.2713,-5.2713,-5.2713,-3.5719,-3.6293,-3.648,-3.6804,0.0,0.0,-3.9483,0.0,0.0,0.0,0.0,0.0,0.0,0.0,0.0,0.0,0.0,0.0,0.0,0.0,0.0,0.0,0.0,0.0,0.0,0.0,0.0,0.0,0.0,0.0,-5.5377,-5.5409,-5.5409,-5.5409,-5.5409,-5.5409,-5.5409,-5.5409,-5.5409,-5.5409,-5.5409,-5.5409,-5.5409,-5.5409,-5.5409,-5.5409,-5.5409,-5.5409,-5.5409,-5.5409,-5.5409,-5.5409,-5.5409,-5.5164,-5.4765,-5.4343,-5.3915,-5.3465,-5.3465,-5.3129,-5.2713,-5.2713,-5.2713,-5.2713,-5.2713,-5.2713,-5.2713,-5.2713,-5.2713,-5.2713,-5.2713,-5.2713,-5.2713,-5.2713,-5.2713,-5.2713,-5.2713,-5.2713,-5.2713,-5.2713,-5.2713,-5.2713,-5.2713,-5.2713,-5.2713,-5.2713,-5.2713,-5.2713,-5.2713,-5.2713,-5.2713,-5.2713,-5.2713,-5.2713,-5.2713,-5.2713,-5.2713,-5.2713,-5.2713,-5.2713,-5.2713,-5.2713,-5.2713,-5.2713,-5.2713,-5.2713,-5.2713,-5.2713,-5.2713,-5.2713,-5.2713,-5.2713,-3.3752,-3.4916,-3.596,-3.5855,0.0,0.0,0.0,0.0,0.0,0.0,0.0,0.0,0.0,0.0,0.0,0.0,0.0,0.0,0.0,0.0,0.0,0.0,0.0,0.0,0.0,0.0,0.0,0.0,0.0,0.0,-5.4098,-5.4114,-5.4308,-5.4778,-5.4778,-5.4988,-5.5409,-5.5409,-5.5409,-5.5409,-5.5409,-5.5409,-5.5409,-5.5409,-5.5409,-5.5409,-5.5409,-5.5409,-5.5409,-5.5409,-5.5409,-5.5344,-5.4832,-5.4513,-5.4343,-5.3829,-5.3552,-5.3377,-5.3377,-5.3129,-5.2713,-5.2713,-5.2713,-5.2713,-5.2713,-5.2713,-5.2713,-5.2713,-5.2713,-5.2713,-5.2713,-5.2713,-5.2713,-5.2713,-5.2713,-5.2713,-5.2713,-5.2713,-5.2713,-5.2713,-5.2713,-5.2713,-5.2713,-5.2713,-5.2713,-5.2713,-5.2713,-5.2713,-5.2713,-5.2713,-5.2713,-5.2713,-5.2713,-5.2713,-5.2713,-5.2713,-5.2713,-5.2713,-5.2713,-5.2713,-5.2713,-5.2713,-5.2713,-5.2713,-5.2713,-5.2713,-5.2713,-5.2713,-5.2713,-5.2713,-5.2713,-5.2713,-3.2899,-3.4019,0.0,0.0,0.0,0.0,0.0,0.0,0.0,0.0,0.0,0.0,0.0,0.0,0.0,0.0,0.0,0.0,0.0,0.0,0.0,0.0,0.0,0.0,0.0,0.0,0.0,0.0,0.0,0.0,0.0,-5.3321,-5.3547,-5.4049,-5.4065,-5.4276,-5.4745,-5.4972,-5.5086,-5.5102,-5.5312,-5.5409,-5.5409,-5.5409,-5.5409,-5.5409,-5.5262,-5.5164,-5.5164,-5.5164,-5.5164,-5.5081,-5.4258,-5.3915,-5.3829,-5.3393,-5.3217,-5.3217,-5.3217,-5.2966,-5.2713,-5.2713,-5.2713,-5.2713,-5.2713,-5.2713,-5.2713,-5.2713,-5.2713,-5.2713,-5.2713,-5.2713,-5.2713,-5.2713,-5.2713,-5.2713,-5.2713,-5.2713,-5.2713,-5.2713,-5.2713,-5.2713,-5.2713,-5.2713,-5.2713,-5.2713,-5.2713,-5.2713,-5.2713,-5.2713,-5.2713,-5.2713,-5.2713,-5.2713,-5.2713,-5.2713,-5.2713,-5.2713,-5.2713,-5.2713,-5.2713,-5.2713,-5.2713,-5.2713,-5.2713,-5.2713,-5.2713,-5.2713,-5.2713,-5.2713,-5.2713,-5.2713,-3.3785,0.0,0.0,0.0,0.0,0.0,0.0,0.0,0.0,0.0,0.0,0.0,0.0,0.0,0.0,0.0,0.0,0.0,0.0,0.0,0.0,0.0,0.0,0.0,0.0,0.0,0.0,0.0,0.0,0.0,0.0,-5.3304,-5.3304,-5.3304,-5.3304,-5.3304,-5.3321,-5.4033,-5.4389,-5.4405,-5.5069,-5.5393,-5.5409,-5.5409,-5.5409,-5.5328,-5.5014,-5.4765,-5.4765,-5.4765,-5.4765,-5.4681,-5.3726,-5.3377,-5.3305,-5.2877,-5.2713,-5.2713,-5.2713,-5.2713,-5.2713,-5.2713,-5.2713,-5.2713,-5.2713,-5.2713,-5.2713,-5.2713,-5.2713,-5.2713,-5.2713,-5.2713,-5.2713,-5.2713,-5.2713,-5.2713,-5.2713,-5.2713,-5.2713,-5.2713,-5.2713,-5.2713,-5.2713,-5.2713,-5.2713,-5.2713,-5.2713,-5.2713,-5.2713,-5.2713,-5.2713,-5.2713,-5.2713,-5.2713,-5.2713,-5.2713,-5.2713,-5.2713,-5.2713,-5.2713,-5.2713,-5.2713,-5.2713,-5.2713,-5.2713,-5.2713,-5.2713,-5.2713,-5.2713,-5.2713,-5.2713,-5.2713,-3.2022,0.0,0.0,0.0,0.0,0.0,0.0,0.0,0.0,0.0,0.0,0.0,0.0,0.0,0.0,0.0,0.0,0.0,0.0,0.0,0.0,0.0,0.0,0.0,0.0,0.0,0.0,0.0,0.0,0.0,0.0,-5.1815,-5.2041,-5.2511,-5.2527,-5.2786,-5.3321,-5.3531,-5.3644,-5.3644,-5.3504,-5.4196,-5.5409,-5.5409,-5.5262,-5.5014,-5.4848,-5.4597,-5.4343,-5.4343,-5.4087,-5.3813,-5.3465,-5.3217,-5.2877,-5.2713,-5.2713,-5.2713,-5.2713,-5.2713,-5.2713,-5.2713,-5.2713,-5.2713,-5.2713,-5.2713,-5.2713,-5.2713,-5.2713,-5.2713,-5.2713,-5.2713,-5.2713,-5.2713,-5.2713,-5.2713,-5.2713,-5.2713,-5.2713,-5.2713,-5.2713,-5.2713,-5.2713,-5.2713,-5.2713,-5.2713,-5.2713,-5.2713,-5.2713,-5.2713,-5.2713,-5.2713,-5.2503,-5.2412,-5.2412,-5.2246,-5.217,-5.217,-5.217,-5.2352,-5.2713,-5.2713,-5.2713,-5.2713,-5.2713,-5.2713,-5.2713,-5.2503,-5.2503,-5.2713,-5.2352,-5.2352,0.0,0.0,0.0,0.0,0.0,0.0,0.0,0.0,0.0,0.0,0.0,0.0,0.0,0.0,0.0,0.0,0.0,0.0,0.0,0.0,0.0,0.0,0.0,0.0,0.0,0.0,0.0,0.0,0.0,0.0,0.0,-5.1183,-5.1378,-5.1782,-5.1613,-5.1839,-5.2462,-5.2582,-5.2711,-5.2883,-5.2764,-5.3262,-5.4325,-5.4325,-5.4241,-5.4114,-5.4216,-5.4071,-5.3829,-5.3655,-5.3481,-5.3377,-5.3217,-5.2966,-5.2713,-5.2713,-5.2713,-5.2713,-5.2713,-5.2713,-5.2713,-5.2713,-5.2713,-5.2713,-5.2713,-5.2713,-5.2713,-5.2713,-5.2713,-5.2713,-5.2713,-5.2713,-5.2713,-5.2713,-5.2713,-5.2713,-5.2713,-5.2713,-5.2713,-5.2713,-5.2713,-5.2713,-5.2713,-5.2713,-5.2713,-5.2713,-5.2713,-5.2713,-5.2713,-5.2713,-5.2624,-5.2518,-5.2397,-5.2306,-5.2231,-5.2078,-5.2002,-5.2002,-5.2002,-5.2094,-5.2443,-5.2443,-5.2427,-5.2518,-5.2427,-5.2443,-5.2443,-5.2246,-5.2246,-5.2443,-5.217,-5.217,0.0,0.0,0.0,0.0,0.0,0.0,0.0,0.0,0.0,0.0,0.0,0.0,0.0,0.0,0.0,0.0,0.0,0.0,0.0,0.0,0.0,0.0,0.0,0.0,0.0,0.0,0.0,0.0,0.0,0.0,0.0,-5.1183,-5.1183,-5.1183,-5.0771,-5.0679,-5.1108,-5.1414,-5.1642,-5.2029,-5.23,-5.2461,-5.2381,-5.2589,-5.2761,-5.2913,-5.3177,-5.3212,-5.3212,-5.2862,-5.2966,-5.329,-5.2877,-5.2713,-5.2713,-5.2713,-5.2713,-5.2713,-5.2713,-5.2713,-5.2713,-5.2713,-5.2713,-5.2713,-5.2713,-5.2713,-5.2713,-5.2713,-5.2713,-5.2713,-5.2713,-5.2713,-5.2713,-5.2713,-5.2713,-5.2713,-5.2713,-5.2713,-5.2713,-5.2713,-5.2713,-5.2713,-5.2713,-5.2713,-5.2713,-5.2713,-5.2713,-5.2713,-5.2713,-5.2624,-5.2608,-5.2306,-5.2215,-5.2139,-5.1987,-5.1895,-5.1895,-5.1895,-5.1895,-5.1895,-5.1987,-5.2002,-5.2078,-5.2306,-5.2063,-5.2002,-5.2002,-5.1987,-5.1987,-5.2002,-5.2002,-5.1987,0.0,0.0,0.0,0.0,0.0,0.0,0.0,0.0,0.0,0.0,0.0,0.0,0.0,0.0,0.0,0.0,0.0,0.0,0.0,0.0,0.0,0.0,0.0,0.0,0.0,0.0,0.0,0.0,0.0,0.0,-5.1183,-5.1183,-5.1183,-5.1183,-5.0771,-5.0525,-5.0679,-5.0685,-5.0593,0.0,-5.0454,-5.0374,-5.0084,-5.148,-5.1982,-5.1768,-5.1955,-5.209,-5.2136,-5.2483,-5.2803,-5.2877,-5.2713,-5.2713,-5.2713,-5.2713,-5.2713,-5.2713,-5.2713,-5.2713,-5.2713,-5.2713,-5.2713,-5.2713,-5.2713,-5.2713,-5.2713,-5.2713,-5.2713,-5.2713,-5.2713,-5.2713,-5.2713,-5.2713,-5.2713,-5.2713,-5.2713,-5.2713,-5.2713,-5.2713,-5.2713,-5.2713,-5.2713,-5.2713,-5.2713,-5.2713,-5.2713,-5.2608,-5.2397,-5.2397,-5.2322,-5.2078,-5.1864,-5.1772,-5.168,-5.1509,-5.1416,-5.1416,-5.1416,-5.1509,-5.168,-5.1895,-5.1987,-5.2063,-5.1987,-5.2002,-5.2002,-5.1787,-5.1787,-5.2002,-5.1602,-5.1602,0.0,0.0,0.0,0.0,0.0,0.0,0.0,0.0,0.0,0.0,0.0,0.0,0.0,0.0,0.0,0.0,0.0,0.0,0.0,0.0,0.0,0.0,0.0,0.0,0.0,0.0,0.0,0.0,0.0,-5.1183,-5.1183,-5.1183,-5.1183,-5.1183,-5.0541,-5.0292,-5.0525,-5.0136,-4.99,-4.9916,-4.9677,-4.9356,-4.898,-5.0268,-5.0918,-5.0882,-5.1086,-5.1221,-5.1267,-5.1944,-5.2236,-5.2252,-5.259,-5.2713,-5.2713,-5.2713,-5.2713,-5.2713,-5.2713,-5.2713,-5.2713,-5.2713,-5.2713,-5.2713,-5.2713,-5.2713,-5.2713,-5.2713,-5.2713,-5.2713,-5.2713,-5.2713,-5.2713,-5.2713,-5.2713,-5.2713,-5.2713,-5.2713,-5.2713,-5.2713,-5.2713,-5.2713,-5.2713,-5.2713,-5.2624,-5.2503,-5.2503,-5.2412,-5.2155,-5.2155,-5.2063,-5.1787,-5.168,-5.1587,-5.1401,-5.1308,-5.1214,-5.1214,-5.1214,-5.1214,-5.1401,-5.1509,-5.171,-5.1787,-5.1695,-5.1602,-5.1602,-5.1494,-5.1494,-5.1602,-5.1308,-5.1323,0.0,0.0,0.0,0.0,0.0,0.0,0.0,0.0,0.0,0.0,0.0,0.0,0.0,0.0,0.0,0.0,0.0,0.0,0.0,0.0,0.0,0.0,0.0,0.0,0.0,0.0,0.0,0.0,0.0,-5.1108,-5.1108,-5.1108,-5.1108,-5.1108,-5.0308,-5.0073,-5.037,-4.9661,-4.9437,-4.9677,-4.9356,-4.8949,-4.8635,-4.9235,-4.965,-4.9999,-5.0375,-5.0528,-5.0574,-5.1251,-5.1528,-5.159,-5.2144,-5.2436,-5.2544,-5.2544,-5.2606,-5.2713,-5.2713,-5.2713,-5.2713,-5.2713,-5.2713,-5.2713,-5.2713,-5.2713,-5.2713,-5.2713,-5.2713,-5.2713,-5.2713,-5.2713,-5.2713,-5.2713,-5.2713,-5.2713,-5.2713,-5.2713,-5.2713,-5.2713,-5.2713,-5.2713,-5.2713,-5.2624,-5.2608,-5.2306,-5.2306,-5.2139,-5.1987,-5.1895,-5.1803,-5.1587,-5.1494,-5.1401,-5.1214,-5.1214,-5.1214,-5.1214,-5.1214,-5.1214,-5.1214,-5.1214,-5.1308,-5.1494,-5.1308,-5.1214,-5.1214,-5.1214,-5.1214,-5.1214,-5.1214,-5.1214,0.0,0.0,0.0,0.0,0.0,0.0,0.0,0.0,0.0,0.0,0.0,0.0,0.0,0.0,0.0,0.0,0.0,0.0,0.0,0.0,0.0,0.0,0.0,0.0,0.0,0.0,0.0,0.0,-5.0848,-5.0602,-5.0602,-5.0602,-5.0602,-5.0602,-5.0152,-4.9916,-4.9995,-4.9517,-4.9113,-4.8769,-4.8702,-4.8702,-4.862,-4.8712,-4.8758,-4.8872,-4.9512,-4.982,-4.9882,-5.0559,-5.0836,-5.0836,-5.0928,-5.1328,-5.1836,-5.1836,-5.2206,-5.2713,-5.2713,-5.2713,-5.2713,-5.2713,-5.2713,-5.2713,-5.2713,-5.2713,-5.2713,-5.2713,-5.2713,-5.2713,-5.2713,-5.2713,-5.2713,-5.2713,-5.2713,-5.2713,-5.2713,-5.2713,-5.2713,-5.2713,-5.2713,-5.2713,-5.2713,-5.2503,-5.2306,-5.2306,-5.2155,-5.1987,-5.168,-5.168,-5.1587,-5.1308,-5.1214,-5.1214,-5.1214,-5.1214,-5.1214,-5.1214,-5.1214,-5.1214,-5.1214,-5.1214,-5.1214,-5.1214,-5.1214,-5.1214,-5.1214,-5.1214,-5.1214,-5.1214,-5.1214,-5.1214,0.0,0.0,0.0,0.0,0.0,0.0,0.0,0.0,0.0,0.0,0.0,0.0,0.0,0.0,0.0,0.0,0.0,0.0,0.0,0.0,0.0,0.0,0.0,0.0,0.0,0.0,0.0,0.0,-5.1016,-5.0771,-5.0509,-5.0771,-5.0695,-5.0136,-4.9995,-4.9757,-4.9597,-4.9113,-4.8785,-4.862,-4.862,-4.862,-4.862,-4.862,-4.862,-4.8635,-4.8943,-4.9081,-4.9143,-4.9835,-5.0128,-5.0174,-5.0543,-5.0867,-5.1144,-5.1144,-5.1559,-5.2144,-5.2144,-5.2406,-5.2713,-5.2713,-5.2713,-5.2713,-5.2713,-5.2713,-5.2713,-5.2713,-5.2713,-5.2713,-5.2713,-5.2713,-5.2713,-5.2713,-5.2713,-5.2624,-5.2503,-5.2503,-5.2412,-5.2352,-5.2352,-5.2352,-5.2352,-5.2246,-5.2048,-5.1941,-5.1864,-5.1695,-5.1401,-5.1401,-5.1308,-5.1214,-5.1214,-5.1214,-5.1214,-5.1214,-5.1214,-5.1214,-5.1214,-5.1214,-5.1214,-5.1214,-5.1214,-5.1214,-5.1214,-5.1214,-5.1214,-5.1214,-5.1214,-5.1214,-5.1214,-5.1214,0.0,0.0,0.0,0.0,0.0,0.0,0.0,0.0,0.0,0.0,0.0,0.0,0.0,0.0,0.0,0.0,0.0,0.0,0.0,0.0,0.0,0.0,0.0,0.0,0.0,0.0,0.0,0.0,-5.1016,-5.0618,-5.012,-5.0448,-5.0292,-4.9501,-4.9501,-4.9421,-4.9275,-4.8867,-4.862,-4.862,-4.862,-4.862,-4.862,-4.862,-4.862,-4.862,-4.862,-4.862,-4.865,-4.9189,-4.942,-4.9466,-4.9974,-5.0282,-5.0436,-5.0436,-5.0867,-5.1451,-5.1451,-5.1775,-5.219,-5.219,-5.219,-5.219,-5.219,-5.2313,-5.2467,-5.2467,-5.2575,-5.2713,-5.2713,-5.2624,-5.2608,-5.2608,-5.2533,-5.2518,-5.2306,-5.2215,-5.2139,-5.1987,-5.2002,-5.2002,-5.2002,-5.1895,-5.1787,-5.1587,-5.1587,-5.1401,-5.1214,-5.1214,-5.1214,-5.1214,-5.1214,-5.1214,-5.1214,-5.1214,-5.1214,-5.1214,-5.1214,-5.1214,-5.1214,-5.1214,-5.1214,-5.1214,-5.1214,-5.1214,-5.1214,-5.1214,-5.1214,-5.1214,-5.1214,-5.1214,0.0,0.0,0.0,0.0,0.0,0.0,0.0,0.0,0.0,0.0,0.0,0.0,0.0,0.0,0.0,0.0,0.0,0.0,0.0,0.0,0.0,0.0,0.0,0.0,0.0,0.0,0.0,0.0,-5.0386,-4.9661,-4.905,-4.9259,-4.9097,-4.8309,-4.8309,-4.8573,-4.9275,-4.8867,-4.862,-4.862,-4.862,-4.862,-4.862,-4.862,-4.862,-4.862,-4.862,-4.862,-4.862,-4.865,-4.8666,-4.8666,-4.8712,-4.9143,-4.9743,-4.9743,-5.0174,-5.0743,-5.0743,-5.0774,-5.079,-5.079,-5.079,-5.079,-5.079,-5.1251,-5.1759,-5.1759,-5.2221,-5.2713,-5.2713,-5.2503,-5.2306,-5.2306,-5.2155,-5.2078,-5.2215,-5.2155,-5.1987,-5.2002,-5.2002,-5.2002,-5.2002,-5.1787,-5.1587,-5.1587,-5.1401,-5.1214,-5.1214,-5.1214,-5.1214,-5.1214,-5.1214,-5.1214,-5.1214,-5.1214,-5.1214,-5.1214,-5.1214,-5.1214,-5.1214,-5.1214,-5.1214,-5.1214,-5.1214,-5.1214,-5.1214,-5.1214,-5.1214,-5.1214,-5.1214,-5.1214,0.0,0.0,0.0,0.0,0.0,0.0,0.0,0.0,0.0,0.0,0.0,0.0,0.0,0.0,0.0,0.0,0.0,0.0,0.0,0.0,0.0,0.0,0.0,0.0,0.0,0.0,0.0,0.0,0.0,-4.9805,-4.8754,-4.8918,-4.8836,-4.8438,-4.7888,-4.7804,-4.8172,-4.8438,-4.862,-4.862,-4.862,-4.862,-4.862,-4.862,-4.862,-4.862,-4.862,-4.862,-4.862,-4.862,-4.862,-4.862,-4.862,-4.8773,-4.9004,-4.9004,-4.9451,-5.0051,-5.0051,-5.0328,-5.0697,-5.0697,-5.0697,-5.0697,-5.0697,-5.0867,-5.1051,-5.1051,-5.1544,-5.2067,-5.1858,-5.2075,-5.2306,-5.2155,-5.188,-5.1772,-5.1849,-5.1772,-5.1695,-5.1509,-5.1509,-5.1509,-5.1509,-5.1416,-5.1308,-5.1308,-5.1214,-5.1214,-5.1214,-5.1214,-5.1214,-5.1214,-5.1214,-5.1214,-5.1214,-5.1214,-5.1214,-5.1214,-5.1214,-5.1214,-5.1214,-5.1214,-5.1214,-5.1214,-5.1214,-5.1214,-5.1214,-5.1214,-5.1214,-5.1214,-5.1214,-5.1214,-2.8676,0.0,0.0,0.0,0.0,0.0,0.0,0.0,0.0,0.0,0.0,0.0,0.0,0.0,0.0,0.0,0.0,0.0,0.0,0.0,0.0,0.0,0.0,0.0,0.0,0.0,0.0,0.0,0.0,0.0,-4.7987,-4.7821,-4.7745,-4.7563,-4.7204,-4.7031,-4.7219,-4.7919,-4.8355,-4.862,-4.862,-4.862,-4.862,-4.862,-4.862,-4.862,-4.862,-4.862,-4.862,-4.862,-4.862,-4.862,-4.862,-4.862,-4.862,-4.862,-4.8912,-4.9328,-4.9328,-4.962,-5.0005,-5.0005,-5.0005,-5.0005,-5.0005,-5.0174,-5.0359,-5.0359,-5.0749,-5.1214,-5.1252,-5.1712,-5.2033,-5.1787,-5.1602,-5.1494,-5.1494,-5.1494,-5.1401,-5.1214,-5.1214,-5.1214,-5.1214,-5.1214,-5.1214,-5.1214,-5.1214,-5.1214,-5.1214,-5.1214,-5.1214,-5.1214,-5.1214,-5.1214,-5.1214,-5.1214,-5.1214,-5.1214,-5.1214,-5.1214,-5.1214,-5.1214,-5.1214,-5.1214,-5.1214,-5.1214,-5.1214,-5.1214,-5.1214,-5.1214,-5.1214,-5.1214,0.0,0.0,0.0,0.0,0.0,0.0,0.0,0.0,0.0,0.0,0.0,0.0,0.0,0.0,0.0,0.0,0.0,0.0,0.0,0.0,0.0,0.0,0.0,0.0,0.0,0.0,0.0,0.0,-4.5758,-4.565,-4.6478,-4.5962,-4.5508,-4.5446,-4.6137,-4.6476,-4.6491,-4.7219,-4.7934,-4.8537,-4.862,-4.862,-4.862,-4.862,-4.862,-4.862,-4.862,-4.862,-4.862,-4.862,-4.862,-4.862,-4.862,-4.862,-4.862,-4.862,-4.862,-4.862,-4.862,-4.862,-4.862,-4.862,-4.862,-4.862,-4.862,-4.9097,-4.9651,-4.9651,-4.9941,-5.0426,-5.1114,-5.144,-5.1494,-5.1214,-5.1214,-5.1214,-5.1214,-5.1214,-5.1214,-5.1214,-5.1214,-5.1214,-5.1214,-5.1214,-5.1214,-5.1214,-5.1214,-5.1214,-5.1214,-5.1214,-5.1214,-5.1214,-5.1214,-5.1214,-5.1214,-5.1214,-5.1214,-5.1214,-5.1214,-5.1214,-5.1214,-5.1214,-5.1214,-5.1214,-5.1214,-5.1214,-5.1214,-5.1214,-5.1214,-5.1214,-5.1214,-5.1214,-2.683,0.0,0.0,0.0,0.0,0.0,0.0,0.0,0.0,0.0,0.0,0.0,0.0,0.0,0.0,0.0,0.0,0.0,0.0,0.0,0.0,0.0,0.0,0.0,0.0,0.0,0.0,0.0,-4.4599,-4.5123,-4.477,-4.4884,-4.4661,-4.4089,-4.5229,-4.5801,-4.5747,-4.6974,-4.7664,-4.7834,-4.8355,-4.862,-4.862,-4.862,-4.862,-4.862,-4.862,-4.862,-4.862,-4.862,-4.862,-4.862,-4.862,-4.862,-4.862,-4.862,-4.862,-4.862,-4.862,-4.862,-4.862,-4.862,-4.862,-4.862,-4.862,-4.8743,-4.8912,-4.8912,-4.922,-4.9743,-5.0561,-5.109,-5.1308,-5.1214,-5.1214,-5.1214,-5.1214,-5.1214,-5.1214,-5.1214,-5.1214,-5.1214,-5.1214,-5.1214,-5.1214,-5.1214,-5.1214,-5.1214,-5.1214,-5.1214,-5.1214,-5.1214,-5.1214,-5.1214,-5.1214,-5.1214,-5.1214,-5.1214,-5.1214,-5.1214,-5.1214,-5.1214,-5.1214,-5.1214,-5.1214,-5.1214,-5.1214,-5.1214,-5.1214,-5.1214,-5.1214,-5.1214,-2.7931,0.0,0.0,0.0,0.0,0.0,0.0,0.0,0.0,0.0,0.0,0.0,0.0,0.0,0.0,0.0,0.0,0.0,0.0,0.0,0.0,0.0,0.0,0.0,0.0,-4.3182,-4.3323,-4.1995,-4.2792,-4.3294,-4.2998,-4.4033,-4.4196,-4.3195,-4.4748,-4.558,-4.5534,-4.6927,-4.7749,-4.8003,-4.8438,-4.862,-4.862,-4.862,-4.862,-4.862,-4.862,-4.862,-4.862,-4.862,-4.862,-4.862,-4.862,-4.862,-4.862,-4.862,-4.862,-4.862,-4.862,-4.862,-4.862,-4.862,-4.862,-4.8604,-4.8537,-4.8453,-4.8453,-4.837,-4.8691,-4.9194,-4.9914,-5.0408,-5.087,-5.1154,-5.1214,-5.1214,-5.1214,-5.1214,-5.1214,-5.1214,-5.1214,-5.1214,-5.1214,-5.1214,-5.1214,-5.1214,-5.1214,-5.1214,-5.1214,-5.1214,-5.1214,-5.1214,-5.1214,-5.1214,-5.1214,-5.1214,-5.1214,-5.1214,-5.1214,-5.1214,-5.1214,-5.1214,-5.1214,-5.1214,-5.1214,-5.1214,-5.1214,-5.1214,-5.1214,-5.1214,-5.1214,-5.1214,0.0,0.0,0.0,0.0,0.0,0.0,-3.4771,-3.4485,0.0,0.0,0.0,0.0,0.0,0.0,0.0,0.0,0.0,0.0,0.0,0.0,0.0,0.0,0.0,0.0,-4.1294,-4.1738,-4.1835,-4.1381,-4.0958,-4.0926,-4.1474,-4.3227,-4.3675,-4.265,-4.4196,-4.5213,-4.5474,-4.6715,-4.7728,-4.8414,-4.849,-4.862,-4.862,-4.862,-4.862,-4.862,-4.862,-4.862,-4.862,-4.862,-4.862,-4.862,-4.862,-4.862,-4.862,-4.862,-4.862,-4.862,-4.862,-4.862,-4.8537,-4.862,-4.8537,-4.8537,-4.837,-4.8286,-4.8202,-4.8049,-4.8278,-4.8666,-4.9089,-4.9643,-5.0301,-5.0945,-5.1109,-5.1124,-5.1199,-5.1214,-5.1214,-5.1214,-5.1214,-5.1214,-5.1214,-5.1214,-5.1214,-5.1214,-5.1214,-5.1214,-5.1214,-5.1214,-5.1214,-5.1214,-5.1214,-5.1214,-5.1214,-5.1214,-5.1214,-5.1214,-5.1214,-5.1214,-5.1214,-5.1214,-5.1214,-5.1214,-5.1214,-5.1214,-5.1214,-5.1214,-5.1214,-5.1214,-5.1214,-5.1214,0.0,0.0,0.0,0.0,0.0,0.0,-3.2031,-3.2634,0.0,0.0,0.0,0.0,0.0,0.0,0.0,0.0,0.0,0.0,0.0,0.0,0.0,0.0,0.0,0.0,-4.0402,-4.0278,-4.0407,-4.083,-4.0787,-4.0744,-4.087,-4.1241,-4.1796,-4.2553,-4.2422,-4.3156,-4.4711,-4.5531,-4.6371,-4.6963,-4.8094,-4.862,-4.862,-4.862,-4.862,-4.862,-4.862,-4.862,-4.862,-4.862,-4.862,-4.862,-4.862,-4.862,-4.862,-4.862,-4.862,-4.862,-4.862,-4.8537,-4.837,-4.8537,-4.837,-4.8133,-4.8286,-4.8218,-4.8049,-4.7709,-4.8106,-4.8561,-4.852,-4.8955,-4.9613,-5.0272,-5.0436,-5.0571,-5.1109,-5.1214,-5.1214,-5.1214,-5.1214,-5.1214,-5.1214,-5.1214,-5.1214,-5.1214,-5.1214,-5.1214,-5.1214,-5.1214,-5.1214,-5.1214,-5.1214,-5.1214,-5.1214,-5.1214,-5.1214,-5.1214,-5.1214,-5.1214,-5.1214,-5.1214,-5.1214,-5.1214,-5.1214,-5.1214,-5.1214,-5.1214,-5.1214,-5.1214,-5.1214,-5.1214,0.0,0.0,0.0,-3.3371,0.0,0.0,0.0,0.0,0.0,0.0,0.0,0.0,0.0,0.0,0.0,0.0,0.0,0.0,0.0,0.0,0.0,0.0,0.0,0.0,-3.9516,-3.9408,-3.9578,-4.0196,-4.0238,-4.0378,-4.0674,-4.1029,-4.1341,-4.1654,-4.2606,-4.3431,-4.4133,-4.5439,-4.6433,-4.7098,-4.7778,-4.8296,-4.862,-4.862,-4.862,-4.862,-4.862,-4.862,-4.862,-4.862,-4.862,-4.862,-4.862,-4.862,-4.862,-4.862,-4.862,-4.862,-4.8453,-4.837,-4.8286,-4.8286,-4.8118,-4.7964,-4.7964,-4.7794,-4.7639,-4.7467,-4.7707,-4.8037,-4.8207,-4.8536,-4.894,-4.9598,-4.9748,-4.9942,-5.0586,-5.0735,-5.0825,-5.1154,-5.1214,-5.1214,-5.1214,-5.1214,-5.1214,-5.1214,-5.1214,-5.1214,-5.1214,-5.1214,-5.1214,-5.1214,-5.1214,-5.1214,-5.1214,-5.1214,-5.1214,-5.1214,-5.1214,-5.1214,-5.1214,-5.1214,-5.1214,-5.1214,-5.1214,-5.1214,-5.1214,-5.1214,-5.1214,-5.1214,-5.1214,-5.1214,0.0,0.0,0.0,0.0,0.0,-3.3253,0.0,0.0,0.0,0.0,0.0,0.0,0.0,0.0,0.0,0.0,0.0,0.0,0.0,0.0,0.0,0.0,0.0,0.0,0.0,-3.8496,-3.8805,-3.955,-3.9381,-3.962,-4.0477,-4.1013,-4.1239,-4.0859,-4.2802,-4.3819,-4.3716,-4.5253,-4.6425,-4.7219,-4.7481,-4.7896,-4.8419,-4.8558,-4.862,-4.862,-4.862,-4.862,-4.862,-4.862,-4.862,-4.862,-4.862,-4.862,-4.862,-4.8537,-4.8537,-4.8537,-4.8286,-4.8202,-4.8133,-4.8049,-4.7964,-4.788,-4.7639,-4.7467,-4.7309,-4.7309,-4.7309,-4.7429,-4.7952,-4.8102,-4.8267,-4.8925,-4.9179,-4.9449,-5.0092,-5.0331,-5.0586,-5.1109,-5.1214,-5.1214,-5.1214,-5.1214,-5.1214,-5.1214,-5.1214,-5.1214,-5.1214,-5.1214,-5.1214,-5.1214,-5.1214,-5.1214,-5.1214,-5.1214,-5.1214,-5.1214,-5.1214,-5.1214,-5.1214,-5.1214,-5.1214,-5.1214,-5.1214,-5.1214,-5.1214,-5.1214,-5.1214,-5.1214,-5.1214,-5.1214,0.0,0.0,0.0,0.0,-3.3891,0.0,0.0,0.0,-3.1753,0.0,0.0,0.0,0.0,0.0,0.0,0.0,0.0,0.0,0.0,0.0,0.0,0.0,0.0,0.0,0.0,-3.7203,-3.7695,-3.8889,-3.7934,-3.806,-3.9788,-3.9971,-4.0462,-4.1506,-4.1255,-4.1941,-4.3578,-4.3916,-4.4599,-4.5834,-4.7034,-4.765,-4.7742,-4.8343,-4.862,-4.862,-4.862,-4.862,-4.862,-4.862,-4.862,-4.862,-4.862,-4.862,-4.862,-4.837,-4.837,-4.8286,-4.8133,-4.788,-4.7709,-4.7964,-4.7794,-4.7639,-4.7381,-4.7309,-4.7309,-4.7309,-4.7309,-4.7324,-4.7399,-4.7414,-4.7578,-4.8237,-4.8835,-4.9449,-5.0092,-5.069,-5.1124,-5.1214,-5.1214,-5.1214,-5.1214,-5.1214,-5.1214,-5.1214,-5.1214,-5.1214,-5.1214,-5.1214,-5.1214,-5.1214,-5.1214,-5.1214,-5.1214,-5.1214,-5.1214,-5.1214,-5.1214,-5.1214,-5.1214,-5.1214,-5.1214,-5.1214,-5.1214,-5.1214,-5.1214,-5.1214,-5.1214,-5.1214,-5.1214,-5.1214,0.0,0.0,0.0,0.0,0.0,0.0,-3.0687,0.0,-3.0511,0.0,0.0,0.0,0.0,0.0,0.0,0.0,0.0,0.0,0.0,0.0,0.0,0.0,0.0,0.0,0.0,0.0,0.0,0.0,-3.6754,-3.7105,-3.8608,-3.9381,-4.0221,-4.1141,-4.1569,-4.24,-4.363,-4.398,-4.4721,-4.5603,-4.6157,-4.685,-4.7619,-4.7896,-4.825,-4.862,-4.862,-4.8537,-4.8453,-4.8453,-4.837,-4.8286,-4.8286,-4.8286,-4.837,-4.8202,-4.8133,-4.8133,-4.788,-4.7709,-4.7624,-4.7639,-4.7553,-4.7381,-4.7309,-4.7309,-4.7309,-4.7309,-4.7309,-4.7309,-4.7309,-4.7309,-4.7369,-4.7653,-4.8222,-4.888,-4.9538,-5.0182,-5.0765,-5.1139,-5.1214,-5.1214,-5.1214,-5.1214,-5.1214,-5.1214,-5.1214,-5.1214,-5.1214,-5.1214,-5.1214,-5.1214,-5.1214,-5.1214,-5.1214,-5.1214,-5.1214,-5.1214,-5.1214,-5.1214,-5.1214,-5.1214,-5.1214,-5.1214,-5.1214,-5.1214,-5.1214,-5.1214,-5.1214,-5.1214,-5.1214,-5.1214,-3.7498,0.0,0.0,0.0,0.0,0.0,0.0,0.0,0.0,0.0,0.0,0.0,0.0,0.0,0.0,0.0,0.0,0.0,0.0,0.0,0.0,0.0,0.0,0.0,0.0,0.0,0.0,0.0,0.0,-3.5826,-3.7555,-3.8672,-3.9651,-4.0492,-4.1741,-4.2628,-4.3299,-4.402,-4.4665,-4.5311,-4.5495,-4.6095,-4.7065,-4.7434,-4.7881,-4.826,-4.846,-4.837,-4.8218,-4.8218,-4.8133,-4.7964,-4.788,-4.7964,-4.8133,-4.7964,-4.788,-4.788,-4.7624,-4.7553,-4.7467,-4.7396,-4.7309,-4.7309,-4.7309,-4.7309,-4.7309,-4.7309,-4.7309,-4.7309,-4.7309,-4.7309,-4.7354,-4.7534,-4.8072,-4.873,-4.9389,-5.0047,-5.0646,-5.1124,-5.1214,-5.1214,-5.1214,-5.1214,-5.1214,-5.1214,-5.1214,-5.1214,-5.1214,-5.1214,-5.1214,-5.1214,-5.1214,-5.1214,-5.1214,-5.1214,-5.1214,-5.1214,-5.1214,-5.1214,-5.1214,-5.1214,-5.1214,-5.1214,-5.1214,-5.1214,-5.1214,-5.1214,-5.1214,-5.1214,-5.1214,-5.1214,0.0,0.0,0.0,-3.1977,0.0,0.0,0.0,0.0,-3.0559,0.0,0.0,0.0,0.0,0.0,-3.0474,-3.0488,0.0,0.0,0.0,0.0,0.0,0.0,0.0,0.0,0.0,0.0,0.0,0.0,0.0,0.0,-3.6852,-3.7653,-3.8525,-3.9802,-4.0981,-4.1916,-4.2629,-4.3299,-4.3957,-4.4618,-4.528,-4.5603,-4.5695,-4.7004,-4.7538,-4.7354,-4.8011,-4.8218,-4.8049,-4.8049,-4.8049,-4.7964,-4.7709,-4.7639,-4.7624,-4.7639,-4.7624,-4.7538,-4.7381,-4.7309,-4.7309,-4.7309,-4.7309,-4.7309,-4.7309,-4.7309,-4.7309,-4.7309,-4.7309,-4.7309,-4.7309,-4.7309,-4.7459,-4.8102,-4.876,-4.9419,-5.0062,-5.072,-5.1184,-5.1214,-5.1214,-5.1214,-5.1214,-5.1214,-5.1214,-5.1214,-5.1214,-5.1214,-5.1214,-5.1214,-5.1214,-5.1214,-5.1214,-5.1214,-5.1214,-5.1214,-5.1214,-5.1214,-5.1214,-5.1214,-5.1214,-5.1214,-5.1214,-5.1214,-5.1214,-5.1214,-5.1214,-5.1214,-5.1214,-5.1214,-5.1214,-5.1214,0.0,0.0,-3.8248,-3.384,0.0,0.0,0.0,0.0,0.0,0.0,0.0,0.0,0.0,0.0,0.0,-3.0586,-3.053,0.0,0.0,0.0,0.0,0.0,0.0,0.0,0.0,0.0,0.0,0.0,-3.2637,0.0,0.0,-3.691,-3.8529,-3.9833,-4.14,-4.2782,-4.3927,-4.4174,-4.4343,-4.4572,-4.4803,-4.508,-4.5462,-4.6287,-4.6865,-4.7174,-4.7844,-4.7964,-4.7709,-4.7709,-4.7639,-4.7553,-4.7467,-4.7381,-4.7381,-4.7381,-4.7381,-4.7381,-4.7309,-4.7309,-4.7309,-4.7309,-4.7309,-4.7309,-4.7309,-4.7309,-4.7309,-4.7309,-4.7309,-4.7309,-4.7309,-4.7309,-4.7474,-4.8132,-4.879,-4.9449,-5.0092,-5.075,-5.1214,-5.1214,-5.1214,-5.1214,-5.1214,-5.1214,-5.1214,-5.1214,-5.1214,-5.1214,-5.1214,-5.1214,-5.1214,-5.1214,-5.1214,-5.1214,-5.1214,-5.1214,-5.1214,-5.1214,-5.1214,-5.1214,-5.1214,-5.1214,-5.1214,-5.1214,-5.1214,-5.1214,-5.1214,-5.1214,-5.1214,-5.1214,-5.1214,-5.1214,-3.909,-3.9305,0.0,-3.5339,-3.474,0.0,-3.0672,0.0,-3.2281,0.0,0.0,0.0,0.0,0.0,0.0,-3.1555,-3.0965,0.0,0.0,-2.779,0.0,0.0,0.0,0.0,0.0,0.0,-3.0249,-3.1949,0.0,0.0,0.0,0.0,-3.8222,-3.9786,-4.1656,-4.3122,-4.4251,-4.4496,-4.4572,-4.4496,-4.4496,-4.4573,-4.4891,-4.5791,-4.6285,-4.6561,-4.7486,-4.7709,-4.7467,-4.7467,-4.7381,-4.7309,-4.7309,-4.7309,-4.7309,-4.7309,-4.7309,-4.7309,-4.7309,-4.7309,-4.7309,-4.7309,-4.7309,-4.7309,-4.7309,-4.7309,-4.7309,-4.7309,-4.7309,-4.7309,-4.7309,-4.7309,-4.7534,-4.8416,-4.8955,-4.9508,-5.0391,-5.093,-5.1214,-5.1214,-5.1214,-5.1214,-5.1214,-5.1214,-5.1214,-5.1214,-5.1214,-5.1214,-5.1214,-5.1214,-5.1214,-5.1214,-5.1214,-5.1214,-5.1214,-5.1214,-5.1214,-5.1214,-5.1214,-5.1214,-5.1214,-5.1214,-5.1214,-5.1214,-5.1214,-5.1214,-5.1214,-5.1214,-5.1214,-5.1214,-5.0822,-5.0618]}]]